<?xml version="1.0" encoding="UTF-8" standalone="no" ?>
<gpx xmlns="http://www.topografix.com/GPX/1/1" xmlns:xsi="http://www.w3.org/2001/XMLSchema-instance" xsi:schemaLocation="http://www.topografix.com/GPX/1/1 http://www.topografix.com/GPX/1/1/gpx.xsd" version="1.1" creator="VisuGPX - https://www.visugpx.com">
  <metadata>
    <name>au coeur de l'ardeche vers saint martial</name>
    <desc><![CDATA[départ,deux eaux,  lanteyron, Grand, les plaines, col de joux st andeol retour par trafourchas, cros la planche
]]></desc>
  </metadata>
  <trk>
    <name><![CDATA[11-JUIL-16 16:54:36]]></name>
    <trkseg>
      <trkpt lat="44.86832" lon="4.27478">
        <ele>884.55</ele>
        <time>2016-07-11T06:05:36Z</time>
      </trkpt>
      <trkpt lat="44.86831" lon="4.27478">
        <ele>885.03</ele>
        <time>2016-07-11T06:05:56Z</time>
      </trkpt>
      <trkpt lat="44.86831" lon="4.27479">
        <ele>884.55</ele>
        <time>2016-07-11T06:06:17Z</time>
      </trkpt>
      <trkpt lat="44.86831" lon="4.27478">
        <ele>885.03</ele>
        <time>2016-07-11T06:06:38Z</time>
      </trkpt>
      <trkpt lat="44.8683" lon="4.27478">
        <ele>884.55</ele>
        <time>2016-07-11T06:07:05Z</time>
      </trkpt>
      <trkpt lat="44.86833" lon="4.27478">
        <ele>884.55</ele>
        <time>2016-07-11T06:07:32Z</time>
      </trkpt>
      <trkpt lat="44.86836" lon="4.27478">
        <ele>884.55</ele>
        <time>2016-07-11T06:07:35Z</time>
      </trkpt>
      <trkpt lat="44.86843" lon="4.27477">
        <ele>884.07</ele>
        <time>2016-07-11T06:07:41Z</time>
      </trkpt>
      <trkpt lat="44.86856" lon="4.27472">
        <ele>880.71</ele>
        <time>2016-07-11T06:07:55Z</time>
      </trkpt>
      <trkpt lat="44.86857" lon="4.27471">
        <ele>879.26</ele>
        <time>2016-07-11T06:08:13Z</time>
      </trkpt>
      <trkpt lat="44.86859" lon="4.27471">
        <ele>878.3</ele>
        <time>2016-07-11T06:08:29Z</time>
      </trkpt>
      <trkpt lat="44.86861" lon="4.27469">
        <ele>879.26</ele>
        <time>2016-07-11T06:08:53Z</time>
      </trkpt>
      <trkpt lat="44.86865" lon="4.27466">
        <ele>878.78</ele>
        <time>2016-07-11T06:09:11Z</time>
      </trkpt>
      <trkpt lat="44.86866" lon="4.2747">
        <ele>879.74</ele>
        <time>2016-07-11T06:09:34Z</time>
      </trkpt>
      <trkpt lat="44.86869" lon="4.27471">
        <ele>882.15</ele>
        <time>2016-07-11T06:10:01Z</time>
      </trkpt>
      <trkpt lat="44.86869" lon="4.2747">
        <ele>881.67</ele>
        <time>2016-07-11T06:10:31Z</time>
      </trkpt>
      <trkpt lat="44.8687" lon="4.27469">
        <ele>882.15</ele>
        <time>2016-07-11T06:10:49Z</time>
      </trkpt>
      <trkpt lat="44.8687" lon="4.27468">
        <ele>881.19</ele>
        <time>2016-07-11T06:11:04Z</time>
      </trkpt>
      <trkpt lat="44.86871" lon="4.27468">
        <ele>881.67</ele>
        <time>2016-07-11T06:11:29Z</time>
      </trkpt>
      <trkpt lat="44.86877" lon="4.27464">
        <ele>881.67</ele>
        <time>2016-07-11T06:11:42Z</time>
      </trkpt>
      <trkpt lat="44.86878" lon="4.27463">
        <ele>881.67</ele>
        <time>2016-07-11T06:11:56Z</time>
      </trkpt>
      <trkpt lat="44.8688" lon="4.27462">
        <ele>882.63</ele>
        <time>2016-07-11T06:12:19Z</time>
      </trkpt>
      <trkpt lat="44.8689" lon="4.27463">
        <ele>883.11</ele>
        <time>2016-07-11T06:12:34Z</time>
      </trkpt>
      <trkpt lat="44.86896" lon="4.27462">
        <ele>883.59</ele>
        <time>2016-07-11T06:12:51Z</time>
      </trkpt>
      <trkpt lat="44.86906" lon="4.27466">
        <ele>882.15</ele>
        <time>2016-07-11T06:13:07Z</time>
      </trkpt>
      <trkpt lat="44.8691" lon="4.27467">
        <ele>880.22</ele>
        <time>2016-07-11T06:13:12Z</time>
      </trkpt>
      <trkpt lat="44.86919" lon="4.27481">
        <ele>873.5</ele>
        <time>2016-07-11T06:13:26Z</time>
      </trkpt>
      <trkpt lat="44.86926" lon="4.27492">
        <ele>869.65</ele>
        <time>2016-07-11T06:13:38Z</time>
      </trkpt>
      <trkpt lat="44.8694" lon="4.27501">
        <ele>868.21</ele>
        <time>2016-07-11T06:13:53Z</time>
      </trkpt>
      <trkpt lat="44.86954" lon="4.27508">
        <ele>868.69</ele>
        <time>2016-07-11T06:14:09Z</time>
      </trkpt>
      <trkpt lat="44.86967" lon="4.27516">
        <ele>868.21</ele>
        <time>2016-07-11T06:14:26Z</time>
      </trkpt>
      <trkpt lat="44.8697" lon="4.27518">
        <ele>866.77</ele>
        <time>2016-07-11T06:14:45Z</time>
      </trkpt>
      <trkpt lat="44.86971" lon="4.27519">
        <ele>862.44</ele>
        <time>2016-07-11T06:15:15Z</time>
      </trkpt>
      <trkpt lat="44.86973" lon="4.27519">
        <ele>859.56</ele>
        <time>2016-07-11T06:15:30Z</time>
      </trkpt>
      <trkpt lat="44.86982" lon="4.27527">
        <ele>860.52</ele>
        <time>2016-07-11T06:15:47Z</time>
      </trkpt>
      <trkpt lat="44.86983" lon="4.27528">
        <ele>861</ele>
        <time>2016-07-11T06:15:48Z</time>
      </trkpt>
      <trkpt lat="44.86991" lon="4.27533">
        <ele>863.88</ele>
        <time>2016-07-11T06:16:05Z</time>
      </trkpt>
      <trkpt lat="44.86997" lon="4.27542">
        <ele>865.32</ele>
        <time>2016-07-11T06:16:30Z</time>
      </trkpt>
      <trkpt lat="44.87012" lon="4.27555">
        <ele>867.25</ele>
        <time>2016-07-11T06:16:47Z</time>
      </trkpt>
      <trkpt lat="44.87013" lon="4.27556">
        <ele>867.25</ele>
        <time>2016-07-11T06:16:48Z</time>
      </trkpt>
      <trkpt lat="44.87026" lon="4.27565">
        <ele>868.69</ele>
        <time>2016-07-11T06:17:02Z</time>
      </trkpt>
      <trkpt lat="44.87038" lon="4.27572">
        <ele>867.73</ele>
        <time>2016-07-11T06:17:16Z</time>
      </trkpt>
      <trkpt lat="44.87047" lon="4.27579">
        <ele>866.29</ele>
        <time>2016-07-11T06:17:29Z</time>
      </trkpt>
      <trkpt lat="44.87048" lon="4.2758">
        <ele>867.25</ele>
        <time>2016-07-11T06:17:52Z</time>
      </trkpt>
      <trkpt lat="44.87049" lon="4.27581">
        <ele>866.77</ele>
        <time>2016-07-11T06:18:17Z</time>
      </trkpt>
      <trkpt lat="44.87049" lon="4.27581">
        <ele>866.77</ele>
        <time>2016-07-11T06:18:37Z</time>
      </trkpt>
      <trkpt lat="44.8705" lon="4.27583">
        <ele>866.29</ele>
        <time>2016-07-11T06:19:02Z</time>
      </trkpt>
      <trkpt lat="44.87057" lon="4.27588">
        <ele>864.84</ele>
        <time>2016-07-11T06:19:22Z</time>
      </trkpt>
      <trkpt lat="44.87074" lon="4.27593">
        <ele>861.96</ele>
        <time>2016-07-11T06:19:38Z</time>
      </trkpt>
      <trkpt lat="44.87084" lon="4.27595">
        <ele>856.19</ele>
        <time>2016-07-11T06:19:53Z</time>
      </trkpt>
      <trkpt lat="44.87092" lon="4.27593">
        <ele>852.35</ele>
        <time>2016-07-11T06:20:06Z</time>
      </trkpt>
      <trkpt lat="44.87103" lon="4.27599">
        <ele>848.98</ele>
        <time>2016-07-11T06:20:22Z</time>
      </trkpt>
      <trkpt lat="44.87122" lon="4.27608">
        <ele>856.67</ele>
        <time>2016-07-11T06:20:35Z</time>
      </trkpt>
      <trkpt lat="44.87135" lon="4.27622">
        <ele>854.27</ele>
        <time>2016-07-11T06:20:52Z</time>
      </trkpt>
      <trkpt lat="44.8715" lon="4.27623">
        <ele>855.23</ele>
        <time>2016-07-11T06:21:09Z</time>
      </trkpt>
      <trkpt lat="44.87168" lon="4.27638">
        <ele>858.59</ele>
        <time>2016-07-11T06:21:26Z</time>
      </trkpt>
      <trkpt lat="44.87175" lon="4.27653">
        <ele>851.87</ele>
        <time>2016-07-11T06:21:42Z</time>
      </trkpt>
      <trkpt lat="44.87177" lon="4.27676">
        <ele>848.02</ele>
        <time>2016-07-11T06:21:58Z</time>
      </trkpt>
      <trkpt lat="44.8718" lon="4.277">
        <ele>851.38</ele>
        <time>2016-07-11T06:22:13Z</time>
      </trkpt>
      <trkpt lat="44.87184" lon="4.27723">
        <ele>850.42</ele>
        <time>2016-07-11T06:22:29Z</time>
      </trkpt>
      <trkpt lat="44.87185" lon="4.27729">
        <ele>850.42</ele>
        <time>2016-07-11T06:22:33Z</time>
      </trkpt>
      <trkpt lat="44.87189" lon="4.27753">
        <ele>850.9</ele>
        <time>2016-07-11T06:22:49Z</time>
      </trkpt>
      <trkpt lat="44.8719" lon="4.27778">
        <ele>848.5</ele>
        <time>2016-07-11T06:23:06Z</time>
      </trkpt>
      <trkpt lat="44.87187" lon="4.27805">
        <ele>851.87</ele>
        <time>2016-07-11T06:23:23Z</time>
      </trkpt>
      <trkpt lat="44.87182" lon="4.27827">
        <ele>854.75</ele>
        <time>2016-07-11T06:23:39Z</time>
      </trkpt>
      <trkpt lat="44.87179" lon="4.27842">
        <ele>854.75</ele>
        <time>2016-07-11T06:23:51Z</time>
      </trkpt>
      <trkpt lat="44.87176" lon="4.27866">
        <ele>851.87</ele>
        <time>2016-07-11T06:24:08Z</time>
      </trkpt>
      <trkpt lat="44.87178" lon="4.27877">
        <ele>848.98</ele>
        <time>2016-07-11T06:24:18Z</time>
      </trkpt>
      <trkpt lat="44.87176" lon="4.27894">
        <ele>852.35</ele>
        <time>2016-07-11T06:24:30Z</time>
      </trkpt>
      <trkpt lat="44.87173" lon="4.2792">
        <ele>856.19</ele>
        <time>2016-07-11T06:24:47Z</time>
      </trkpt>
      <trkpt lat="44.87171" lon="4.2794">
        <ele>858.11</ele>
        <time>2016-07-11T06:25:01Z</time>
      </trkpt>
      <trkpt lat="44.87171" lon="4.27943">
        <ele>858.11</ele>
        <time>2016-07-11T06:25:03Z</time>
      </trkpt>
      <trkpt lat="44.87171" lon="4.27952">
        <ele>857.63</ele>
        <time>2016-07-11T06:25:09Z</time>
      </trkpt>
      <trkpt lat="44.8717" lon="4.27977">
        <ele>857.15</ele>
        <time>2016-07-11T06:25:25Z</time>
      </trkpt>
      <trkpt lat="44.87171" lon="4.27985">
        <ele>856.67</ele>
        <time>2016-07-11T06:25:30Z</time>
      </trkpt>
      <trkpt lat="44.87173" lon="4.28002">
        <ele>854.75</ele>
        <time>2016-07-11T06:25:42Z</time>
      </trkpt>
      <trkpt lat="44.87169" lon="4.28027">
        <ele>853.79</ele>
        <time>2016-07-11T06:25:58Z</time>
      </trkpt>
      <trkpt lat="44.87164" lon="4.28044">
        <ele>854.75</ele>
        <time>2016-07-11T06:26:11Z</time>
      </trkpt>
      <trkpt lat="44.87165" lon="4.28066">
        <ele>855.23</ele>
        <time>2016-07-11T06:26:26Z</time>
      </trkpt>
      <trkpt lat="44.87167" lon="4.28072">
        <ele>853.79</ele>
        <time>2016-07-11T06:26:33Z</time>
      </trkpt>
      <trkpt lat="44.87174" lon="4.28095">
        <ele>852.35</ele>
        <time>2016-07-11T06:26:51Z</time>
      </trkpt>
      <trkpt lat="44.87174" lon="4.28101">
        <ele>851.38</ele>
        <time>2016-07-11T06:26:56Z</time>
      </trkpt>
      <trkpt lat="44.87178" lon="4.28121">
        <ele>849.46</ele>
        <time>2016-07-11T06:27:12Z</time>
      </trkpt>
      <trkpt lat="44.8718" lon="4.28124">
        <ele>848.98</ele>
        <time>2016-07-11T06:27:15Z</time>
      </trkpt>
      <trkpt lat="44.87181" lon="4.28129">
        <ele>848.5</ele>
        <time>2016-07-11T06:27:19Z</time>
      </trkpt>
      <trkpt lat="44.87187" lon="4.2815">
        <ele>844.66</ele>
        <time>2016-07-11T06:27:36Z</time>
      </trkpt>
      <trkpt lat="44.87194" lon="4.28168">
        <ele>843.21</ele>
        <time>2016-07-11T06:27:50Z</time>
      </trkpt>
      <trkpt lat="44.87197" lon="4.28173">
        <ele>842.73</ele>
        <time>2016-07-11T06:27:55Z</time>
      </trkpt>
      <trkpt lat="44.87208" lon="4.28189">
        <ele>842.73</ele>
        <time>2016-07-11T06:28:13Z</time>
      </trkpt>
      <trkpt lat="44.87222" lon="4.28201">
        <ele>843.21</ele>
        <time>2016-07-11T06:28:26Z</time>
      </trkpt>
      <trkpt lat="44.87229" lon="4.28215">
        <ele>844.18</ele>
        <time>2016-07-11T06:28:44Z</time>
      </trkpt>
      <trkpt lat="44.87236" lon="4.28225">
        <ele>844.18</ele>
        <time>2016-07-11T06:28:58Z</time>
      </trkpt>
      <trkpt lat="44.87241" lon="4.28243">
        <ele>840.81</ele>
        <time>2016-07-11T06:29:14Z</time>
      </trkpt>
      <trkpt lat="44.87248" lon="4.28275">
        <ele>838.41</ele>
        <time>2016-07-11T06:29:32Z</time>
      </trkpt>
      <trkpt lat="44.87246" lon="4.28311">
        <ele>841.77</ele>
        <time>2016-07-11T06:29:48Z</time>
      </trkpt>
      <trkpt lat="44.87245" lon="4.28326">
        <ele>841.29</ele>
        <time>2016-07-11T06:30:02Z</time>
      </trkpt>
      <trkpt lat="44.87243" lon="4.28335">
        <ele>839.85</ele>
        <time>2016-07-11T06:30:14Z</time>
      </trkpt>
      <trkpt lat="44.87242" lon="4.28351">
        <ele>838.89</ele>
        <time>2016-07-11T06:30:31Z</time>
      </trkpt>
      <trkpt lat="44.87238" lon="4.28376">
        <ele>837.93</ele>
        <time>2016-07-11T06:30:48Z</time>
      </trkpt>
      <trkpt lat="44.87236" lon="4.28404">
        <ele>836</ele>
        <time>2016-07-11T06:31:07Z</time>
      </trkpt>
      <trkpt lat="44.87235" lon="4.28421">
        <ele>834.56</ele>
        <time>2016-07-11T06:31:23Z</time>
      </trkpt>
      <trkpt lat="44.87238" lon="4.28445">
        <ele>833.6</ele>
        <time>2016-07-11T06:31:43Z</time>
      </trkpt>
      <trkpt lat="44.87245" lon="4.28472">
        <ele>834.56</ele>
        <time>2016-07-11T06:31:59Z</time>
      </trkpt>
      <trkpt lat="44.87246" lon="4.28486">
        <ele>834.08</ele>
        <time>2016-07-11T06:32:13Z</time>
      </trkpt>
      <trkpt lat="44.87245" lon="4.2851">
        <ele>832.64</ele>
        <time>2016-07-11T06:32:29Z</time>
      </trkpt>
      <trkpt lat="44.87243" lon="4.2853">
        <ele>830.72</ele>
        <time>2016-07-11T06:32:46Z</time>
      </trkpt>
      <trkpt lat="44.87243" lon="4.2855">
        <ele>829.27</ele>
        <time>2016-07-11T06:33:04Z</time>
      </trkpt>
      <trkpt lat="44.87243" lon="4.28567">
        <ele>829.27</ele>
        <time>2016-07-11T06:33:22Z</time>
      </trkpt>
      <trkpt lat="44.8724" lon="4.28593">
        <ele>830.72</ele>
        <time>2016-07-11T06:33:39Z</time>
      </trkpt>
      <trkpt lat="44.87229" lon="4.2863">
        <ele>827.35</ele>
        <time>2016-07-11T06:33:55Z</time>
      </trkpt>
      <trkpt lat="44.87227" lon="4.28644">
        <ele>826.87</ele>
        <time>2016-07-11T06:34:08Z</time>
      </trkpt>
      <trkpt lat="44.87229" lon="4.28656">
        <ele>826.87</ele>
        <time>2016-07-11T06:34:22Z</time>
      </trkpt>
      <trkpt lat="44.87223" lon="4.28684">
        <ele>823.99</ele>
        <time>2016-07-11T06:34:39Z</time>
      </trkpt>
      <trkpt lat="44.87227" lon="4.28697">
        <ele>824.47</ele>
        <time>2016-07-11T06:34:55Z</time>
      </trkpt>
      <trkpt lat="44.87234" lon="4.28708">
        <ele>824.95</ele>
        <time>2016-07-11T06:35:11Z</time>
      </trkpt>
      <trkpt lat="44.87236" lon="4.28714">
        <ele>825.43</ele>
        <time>2016-07-11T06:35:25Z</time>
      </trkpt>
      <trkpt lat="44.87233" lon="4.28731">
        <ele>825.91</ele>
        <time>2016-07-11T06:35:38Z</time>
      </trkpt>
      <trkpt lat="44.87231" lon="4.28741">
        <ele>825.91</ele>
        <time>2016-07-11T06:35:55Z</time>
      </trkpt>
      <trkpt lat="44.87222" lon="4.28805">
        <ele>812.93</ele>
        <time>2016-07-11T06:36:09Z</time>
      </trkpt>
      <trkpt lat="44.87218" lon="4.28811">
        <ele>810.53</ele>
        <time>2016-07-11T06:36:16Z</time>
      </trkpt>
      <trkpt lat="44.8721" lon="4.28823">
        <ele>808.61</ele>
        <time>2016-07-11T06:36:30Z</time>
      </trkpt>
      <trkpt lat="44.87207" lon="4.28833">
        <ele>808.61</ele>
        <time>2016-07-11T06:36:41Z</time>
      </trkpt>
      <trkpt lat="44.87207" lon="4.28842">
        <ele>804.76</ele>
        <time>2016-07-11T06:36:55Z</time>
      </trkpt>
      <trkpt lat="44.87216" lon="4.28849">
        <ele>799.47</ele>
        <time>2016-07-11T06:37:08Z</time>
      </trkpt>
      <trkpt lat="44.87219" lon="4.28865">
        <ele>790.82</ele>
        <time>2016-07-11T06:37:23Z</time>
      </trkpt>
      <trkpt lat="44.87219" lon="4.28883">
        <ele>784.57</ele>
        <time>2016-07-11T06:37:37Z</time>
      </trkpt>
      <trkpt lat="44.87219" lon="4.289">
        <ele>777.36</ele>
        <time>2016-07-11T06:37:50Z</time>
      </trkpt>
      <trkpt lat="44.87222" lon="4.28927">
        <ele>771.6</ele>
        <time>2016-07-11T06:38:09Z</time>
      </trkpt>
      <trkpt lat="44.87222" lon="4.28935">
        <ele>771.11</ele>
        <time>2016-07-11T06:38:14Z</time>
      </trkpt>
      <trkpt lat="44.87225" lon="4.2896">
        <ele>768.23</ele>
        <time>2016-07-11T06:38:31Z</time>
      </trkpt>
      <trkpt lat="44.87228" lon="4.28983">
        <ele>767.75</ele>
        <time>2016-07-11T06:38:48Z</time>
      </trkpt>
      <trkpt lat="44.87226" lon="4.29003">
        <ele>766.79</ele>
        <time>2016-07-11T06:39:01Z</time>
      </trkpt>
      <trkpt lat="44.87224" lon="4.29028">
        <ele>762.94</ele>
        <time>2016-07-11T06:39:18Z</time>
      </trkpt>
      <trkpt lat="44.87223" lon="4.2905">
        <ele>761.98</ele>
        <time>2016-07-11T06:39:33Z</time>
      </trkpt>
      <trkpt lat="44.87224" lon="4.29076">
        <ele>761.98</ele>
        <time>2016-07-11T06:39:50Z</time>
      </trkpt>
      <trkpt lat="44.87225" lon="4.291">
        <ele>760.54</ele>
        <time>2016-07-11T06:40:05Z</time>
      </trkpt>
      <trkpt lat="44.87226" lon="4.29117">
        <ele>758.62</ele>
        <time>2016-07-11T06:40:17Z</time>
      </trkpt>
      <trkpt lat="44.87226" lon="4.2914">
        <ele>756.69</ele>
        <time>2016-07-11T06:40:34Z</time>
      </trkpt>
      <trkpt lat="44.87226" lon="4.2916">
        <ele>758.62</ele>
        <time>2016-07-11T06:40:48Z</time>
      </trkpt>
      <trkpt lat="44.87226" lon="4.29182">
        <ele>758.62</ele>
        <time>2016-07-11T06:41:04Z</time>
      </trkpt>
      <trkpt lat="44.87227" lon="4.29206">
        <ele>756.69</ele>
        <time>2016-07-11T06:41:22Z</time>
      </trkpt>
      <trkpt lat="44.87226" lon="4.29227">
        <ele>754.29</ele>
        <time>2016-07-11T06:41:37Z</time>
      </trkpt>
      <trkpt lat="44.8723" lon="4.2925">
        <ele>750.45</ele>
        <time>2016-07-11T06:41:54Z</time>
      </trkpt>
      <trkpt lat="44.87243" lon="4.29268">
        <ele>749.49</ele>
        <time>2016-07-11T06:42:12Z</time>
      </trkpt>
      <trkpt lat="44.87257" lon="4.29275">
        <ele>749</ele>
        <time>2016-07-11T06:42:27Z</time>
      </trkpt>
      <trkpt lat="44.87272" lon="4.29284">
        <ele>749.49</ele>
        <time>2016-07-11T06:42:42Z</time>
      </trkpt>
      <trkpt lat="44.87289" lon="4.29299">
        <ele>748.04</ele>
        <time>2016-07-11T06:43:01Z</time>
      </trkpt>
      <trkpt lat="44.873" lon="4.29313">
        <ele>746.6</ele>
        <time>2016-07-11T06:43:16Z</time>
      </trkpt>
      <trkpt lat="44.87299" lon="4.29317">
        <ele>745.16</ele>
        <time>2016-07-11T06:43:31Z</time>
      </trkpt>
      <trkpt lat="44.87308" lon="4.29325">
        <ele>745.16</ele>
        <time>2016-07-11T06:43:44Z</time>
      </trkpt>
      <trkpt lat="44.8732" lon="4.29334">
        <ele>744.2</ele>
        <time>2016-07-11T06:44:00Z</time>
      </trkpt>
      <trkpt lat="44.87332" lon="4.29348">
        <ele>744.2</ele>
        <time>2016-07-11T06:44:18Z</time>
      </trkpt>
      <trkpt lat="44.87338" lon="4.2936">
        <ele>741.79</ele>
        <time>2016-07-11T06:44:29Z</time>
      </trkpt>
      <trkpt lat="44.8734" lon="4.29379">
        <ele>736.99</ele>
        <time>2016-07-11T06:44:45Z</time>
      </trkpt>
      <trkpt lat="44.87338" lon="4.29398">
        <ele>736.51</ele>
        <time>2016-07-11T06:44:58Z</time>
      </trkpt>
      <trkpt lat="44.8734" lon="4.29406">
        <ele>736.03</ele>
        <time>2016-07-11T06:45:04Z</time>
      </trkpt>
      <trkpt lat="44.87345" lon="4.29421">
        <ele>737.47</ele>
        <time>2016-07-11T06:45:16Z</time>
      </trkpt>
      <trkpt lat="44.87346" lon="4.29422">
        <ele>737.47</ele>
        <time>2016-07-11T06:45:17Z</time>
      </trkpt>
      <trkpt lat="44.87356" lon="4.29439">
        <ele>736.03</ele>
        <time>2016-07-11T06:45:31Z</time>
      </trkpt>
      <trkpt lat="44.87365" lon="4.2946">
        <ele>736.03</ele>
        <time>2016-07-11T06:45:48Z</time>
      </trkpt>
      <trkpt lat="44.87373" lon="4.29477">
        <ele>736.51</ele>
        <time>2016-07-11T06:46:02Z</time>
      </trkpt>
      <trkpt lat="44.87374" lon="4.2948">
        <ele>736.51</ele>
        <time>2016-07-11T06:46:05Z</time>
      </trkpt>
      <trkpt lat="44.87383" lon="4.29505">
        <ele>733.62</ele>
        <time>2016-07-11T06:46:23Z</time>
      </trkpt>
      <trkpt lat="44.8739" lon="4.29526">
        <ele>733.14</ele>
        <time>2016-07-11T06:46:38Z</time>
      </trkpt>
      <trkpt lat="44.87399" lon="4.29548">
        <ele>730.26</ele>
        <time>2016-07-11T06:46:56Z</time>
      </trkpt>
      <trkpt lat="44.874" lon="4.29552">
        <ele>729.78</ele>
        <time>2016-07-11T06:46:59Z</time>
      </trkpt>
      <trkpt lat="44.8741" lon="4.29573">
        <ele>726.89</ele>
        <time>2016-07-11T06:47:16Z</time>
      </trkpt>
      <trkpt lat="44.87409" lon="4.29577">
        <ele>726.89</ele>
        <time>2016-07-11T06:47:28Z</time>
      </trkpt>
      <trkpt lat="44.87412" lon="4.29581">
        <ele>726.89</ele>
        <time>2016-07-11T06:47:33Z</time>
      </trkpt>
      <trkpt lat="44.87423" lon="4.296">
        <ele>725.45</ele>
        <time>2016-07-11T06:47:49Z</time>
      </trkpt>
      <trkpt lat="44.87436" lon="4.29619">
        <ele>726.89</ele>
        <time>2016-07-11T06:48:06Z</time>
      </trkpt>
      <trkpt lat="44.87449" lon="4.29641">
        <ele>725.93</ele>
        <time>2016-07-11T06:48:23Z</time>
      </trkpt>
      <trkpt lat="44.87449" lon="4.29643">
        <ele>725.93</ele>
        <time>2016-07-11T06:48:24Z</time>
      </trkpt>
      <trkpt lat="44.87456" lon="4.29654">
        <ele>725.45</ele>
        <time>2016-07-11T06:48:34Z</time>
      </trkpt>
      <trkpt lat="44.87467" lon="4.29675">
        <ele>723.53</ele>
        <time>2016-07-11T06:48:52Z</time>
      </trkpt>
      <trkpt lat="44.87476" lon="4.29688">
        <ele>723.53</ele>
        <time>2016-07-11T06:49:04Z</time>
      </trkpt>
      <trkpt lat="44.87483" lon="4.29699">
        <ele>723.05</ele>
        <time>2016-07-11T06:49:13Z</time>
      </trkpt>
      <trkpt lat="44.87498" lon="4.2972">
        <ele>724.49</ele>
        <time>2016-07-11T06:49:31Z</time>
      </trkpt>
      <trkpt lat="44.87508" lon="4.29737">
        <ele>724.01</ele>
        <time>2016-07-11T06:49:45Z</time>
      </trkpt>
      <trkpt lat="44.8752" lon="4.29758">
        <ele>721.13</ele>
        <time>2016-07-11T06:50:02Z</time>
      </trkpt>
      <trkpt lat="44.87534" lon="4.29776">
        <ele>719.2</ele>
        <time>2016-07-11T06:50:19Z</time>
      </trkpt>
      <trkpt lat="44.87552" lon="4.29795">
        <ele>717.76</ele>
        <time>2016-07-11T06:50:40Z</time>
      </trkpt>
      <trkpt lat="44.87563" lon="4.29805">
        <ele>716.8</ele>
        <time>2016-07-11T06:50:53Z</time>
      </trkpt>
      <trkpt lat="44.8758" lon="4.29821">
        <ele>715.36</ele>
        <time>2016-07-11T06:51:11Z</time>
      </trkpt>
      <trkpt lat="44.87597" lon="4.29833">
        <ele>714.88</ele>
        <time>2016-07-11T06:51:28Z</time>
      </trkpt>
      <trkpt lat="44.87612" lon="4.2985">
        <ele>712.47</ele>
        <time>2016-07-11T06:51:45Z</time>
      </trkpt>
      <trkpt lat="44.87622" lon="4.29867">
        <ele>709.11</ele>
        <time>2016-07-11T06:51:58Z</time>
      </trkpt>
      <trkpt lat="44.87629" lon="4.29891">
        <ele>706.23</ele>
        <time>2016-07-11T06:52:14Z</time>
      </trkpt>
      <trkpt lat="44.87635" lon="4.29914">
        <ele>706.23</ele>
        <time>2016-07-11T06:52:31Z</time>
      </trkpt>
      <trkpt lat="44.87642" lon="4.29926">
        <ele>705.75</ele>
        <time>2016-07-11T06:52:45Z</time>
      </trkpt>
      <trkpt lat="44.87653" lon="4.2994">
        <ele>705.26</ele>
        <time>2016-07-11T06:52:59Z</time>
      </trkpt>
      <trkpt lat="44.87658" lon="4.29942">
        <ele>705.75</ele>
        <time>2016-07-11T06:53:03Z</time>
      </trkpt>
      <trkpt lat="44.87672" lon="4.29948">
        <ele>707.19</ele>
        <time>2016-07-11T06:53:20Z</time>
      </trkpt>
      <trkpt lat="44.87681" lon="4.29949">
        <ele>706.71</ele>
        <time>2016-07-11T06:53:35Z</time>
      </trkpt>
      <trkpt lat="44.87692" lon="4.29959">
        <ele>705.26</ele>
        <time>2016-07-11T06:53:49Z</time>
      </trkpt>
      <trkpt lat="44.87696" lon="4.29976">
        <ele>702.86</ele>
        <time>2016-07-11T06:54:03Z</time>
      </trkpt>
      <trkpt lat="44.87705" lon="4.29995">
        <ele>701.42</ele>
        <time>2016-07-11T06:54:19Z</time>
      </trkpt>
      <trkpt lat="44.87708" lon="4.30004">
        <ele>700.94</ele>
        <time>2016-07-11T06:54:34Z</time>
      </trkpt>
      <trkpt lat="44.87712" lon="4.30011">
        <ele>699.98</ele>
        <time>2016-07-11T06:54:48Z</time>
      </trkpt>
      <trkpt lat="44.87721" lon="4.30033">
        <ele>699.5</ele>
        <time>2016-07-11T06:55:04Z</time>
      </trkpt>
      <trkpt lat="44.87722" lon="4.30036">
        <ele>699.5</ele>
        <time>2016-07-11T06:55:06Z</time>
      </trkpt>
      <trkpt lat="44.87729" lon="4.30055">
        <ele>699.5</ele>
        <time>2016-07-11T06:55:20Z</time>
      </trkpt>
      <trkpt lat="44.87733" lon="4.30074">
        <ele>699.02</ele>
        <time>2016-07-11T06:55:32Z</time>
      </trkpt>
      <trkpt lat="44.87733" lon="4.30077">
        <ele>699.5</ele>
        <time>2016-07-11T06:55:34Z</time>
      </trkpt>
      <trkpt lat="44.87734" lon="4.30097">
        <ele>697.57</ele>
        <time>2016-07-11T06:55:49Z</time>
      </trkpt>
      <trkpt lat="44.87737" lon="4.3012">
        <ele>698.53</ele>
        <time>2016-07-11T06:56:03Z</time>
      </trkpt>
      <trkpt lat="44.8774" lon="4.30138">
        <ele>697.09</ele>
        <time>2016-07-11T06:56:17Z</time>
      </trkpt>
      <trkpt lat="44.8774" lon="4.30138">
        <ele>697.09</ele>
        <time>2016-07-11T06:56:36Z</time>
      </trkpt>
      <trkpt lat="44.87743" lon="4.30145">
        <ele>697.09</ele>
        <time>2016-07-11T06:56:51Z</time>
      </trkpt>
      <trkpt lat="44.87743" lon="4.30156">
        <ele>696.61</ele>
        <time>2016-07-11T06:57:04Z</time>
      </trkpt>
      <trkpt lat="44.87745" lon="4.30164">
        <ele>695.65</ele>
        <time>2016-07-11T06:57:11Z</time>
      </trkpt>
      <trkpt lat="44.87756" lon="4.30178">
        <ele>693.73</ele>
        <time>2016-07-11T06:57:24Z</time>
      </trkpt>
      <trkpt lat="44.87759" lon="4.30182">
        <ele>692.77</ele>
        <time>2016-07-11T06:57:28Z</time>
      </trkpt>
      <trkpt lat="44.87769" lon="4.30189">
        <ele>692.77</ele>
        <time>2016-07-11T06:57:41Z</time>
      </trkpt>
      <trkpt lat="44.87782" lon="4.30199">
        <ele>694.21</ele>
        <time>2016-07-11T06:57:56Z</time>
      </trkpt>
      <trkpt lat="44.87796" lon="4.30215">
        <ele>695.17</ele>
        <time>2016-07-11T06:58:13Z</time>
      </trkpt>
      <trkpt lat="44.87812" lon="4.30231">
        <ele>698.53</ele>
        <time>2016-07-11T06:58:30Z</time>
      </trkpt>
      <trkpt lat="44.87808" lon="4.30239">
        <ele>700.46</ele>
        <time>2016-07-11T06:58:43Z</time>
      </trkpt>
      <trkpt lat="44.87813" lon="4.30247">
        <ele>701.9</ele>
        <time>2016-07-11T06:59:00Z</time>
      </trkpt>
      <trkpt lat="44.87813" lon="4.3025">
        <ele>702.38</ele>
        <time>2016-07-11T06:59:15Z</time>
      </trkpt>
      <trkpt lat="44.87801" lon="4.30252">
        <ele>703.82</ele>
        <time>2016-07-11T06:59:32Z</time>
      </trkpt>
      <trkpt lat="44.87795" lon="4.30254">
        <ele>707.67</ele>
        <time>2016-07-11T06:59:50Z</time>
      </trkpt>
      <trkpt lat="44.87792" lon="4.30263">
        <ele>707.67</ele>
        <time>2016-07-11T07:00:08Z</time>
      </trkpt>
      <trkpt lat="44.87788" lon="4.30269">
        <ele>708.63</ele>
        <time>2016-07-11T07:00:27Z</time>
      </trkpt>
      <trkpt lat="44.87784" lon="4.30276">
        <ele>708.63</ele>
        <time>2016-07-11T07:00:44Z</time>
      </trkpt>
      <trkpt lat="44.87784" lon="4.30278">
        <ele>710.07</ele>
        <time>2016-07-11T07:01:02Z</time>
      </trkpt>
      <trkpt lat="44.87783" lon="4.3028">
        <ele>711.99</ele>
        <time>2016-07-11T07:01:29Z</time>
      </trkpt>
      <trkpt lat="44.8778" lon="4.3028">
        <ele>714.88</ele>
        <time>2016-07-11T07:01:49Z</time>
      </trkpt>
      <trkpt lat="44.87779" lon="4.30278">
        <ele>713.92</ele>
        <time>2016-07-11T07:02:20Z</time>
      </trkpt>
      <trkpt lat="44.87779" lon="4.30277">
        <ele>714.4</ele>
        <time>2016-07-11T07:02:44Z</time>
      </trkpt>
      <trkpt lat="44.8778" lon="4.30276">
        <ele>714.88</ele>
        <time>2016-07-11T07:03:03Z</time>
      </trkpt>
      <trkpt lat="44.8778" lon="4.30275">
        <ele>715.36</ele>
        <time>2016-07-11T07:03:30Z</time>
      </trkpt>
      <trkpt lat="44.87779" lon="4.30275">
        <ele>715.36</ele>
        <time>2016-07-11T07:03:56Z</time>
      </trkpt>
      <trkpt lat="44.87779" lon="4.30275">
        <ele>715.84</ele>
        <time>2016-07-11T07:04:18Z</time>
      </trkpt>
      <trkpt lat="44.87787" lon="4.30281">
        <ele>717.28</ele>
        <time>2016-07-11T07:04:37Z</time>
      </trkpt>
      <trkpt lat="44.87794" lon="4.30292">
        <ele>721.13</ele>
        <time>2016-07-11T07:04:56Z</time>
      </trkpt>
      <trkpt lat="44.87798" lon="4.30298">
        <ele>722.57</ele>
        <time>2016-07-11T07:05:19Z</time>
      </trkpt>
      <trkpt lat="44.878" lon="4.30306">
        <ele>721.13</ele>
        <time>2016-07-11T07:05:38Z</time>
      </trkpt>
      <trkpt lat="44.87801" lon="4.30315">
        <ele>721.13</ele>
        <time>2016-07-11T07:05:57Z</time>
      </trkpt>
      <trkpt lat="44.87799" lon="4.30322">
        <ele>722.57</ele>
        <time>2016-07-11T07:06:19Z</time>
      </trkpt>
      <trkpt lat="44.87798" lon="4.30336">
        <ele>725.45</ele>
        <time>2016-07-11T07:06:37Z</time>
      </trkpt>
      <trkpt lat="44.87796" lon="4.30344">
        <ele>731.22</ele>
        <time>2016-07-11T07:07:06Z</time>
      </trkpt>
      <trkpt lat="44.87796" lon="4.30345">
        <ele>733.14</ele>
        <time>2016-07-11T07:07:33Z</time>
      </trkpt>
      <trkpt lat="44.87796" lon="4.30346">
        <ele>734.1</ele>
        <time>2016-07-11T07:07:59Z</time>
      </trkpt>
      <trkpt lat="44.87796" lon="4.30347">
        <ele>734.1</ele>
        <time>2016-07-11T07:08:21Z</time>
      </trkpt>
      <trkpt lat="44.87795" lon="4.3034">
        <ele>732.66</ele>
        <time>2016-07-11T07:08:36Z</time>
      </trkpt>
      <trkpt lat="44.8779" lon="4.30325">
        <ele>732.66</ele>
        <time>2016-07-11T07:08:55Z</time>
      </trkpt>
      <trkpt lat="44.87791" lon="4.30318">
        <ele>729.78</ele>
        <time>2016-07-11T07:09:12Z</time>
      </trkpt>
      <trkpt lat="44.8779" lon="4.303">
        <ele>728.34</ele>
        <time>2016-07-11T07:09:31Z</time>
      </trkpt>
      <trkpt lat="44.87791" lon="4.30291">
        <ele>726.89</ele>
        <time>2016-07-11T07:09:50Z</time>
      </trkpt>
      <trkpt lat="44.87793" lon="4.30288">
        <ele>725.45</ele>
        <time>2016-07-11T07:10:10Z</time>
      </trkpt>
      <trkpt lat="44.87796" lon="4.30276">
        <ele>723.05</ele>
        <time>2016-07-11T07:10:26Z</time>
      </trkpt>
      <trkpt lat="44.87802" lon="4.30272">
        <ele>718.72</ele>
        <time>2016-07-11T07:10:38Z</time>
      </trkpt>
      <trkpt lat="44.87813" lon="4.30285">
        <ele>712.95</ele>
        <time>2016-07-11T07:10:46Z</time>
      </trkpt>
      <trkpt lat="44.87824" lon="4.303">
        <ele>710.55</ele>
        <time>2016-07-11T07:11:04Z</time>
      </trkpt>
      <trkpt lat="44.87832" lon="4.30304">
        <ele>710.55</ele>
        <time>2016-07-11T07:11:18Z</time>
      </trkpt>
      <trkpt lat="44.87839" lon="4.30307">
        <ele>711.03</ele>
        <time>2016-07-11T07:11:36Z</time>
      </trkpt>
      <trkpt lat="44.87849" lon="4.30318">
        <ele>710.55</ele>
        <time>2016-07-11T07:11:51Z</time>
      </trkpt>
      <trkpt lat="44.87859" lon="4.30326">
        <ele>712.95</ele>
        <time>2016-07-11T07:12:11Z</time>
      </trkpt>
      <trkpt lat="44.87859" lon="4.30328">
        <ele>712.95</ele>
        <time>2016-07-11T07:12:41Z</time>
      </trkpt>
      <trkpt lat="44.87859" lon="4.30329">
        <ele>713.92</ele>
        <time>2016-07-11T07:13:02Z</time>
      </trkpt>
      <trkpt lat="44.87857" lon="4.30328">
        <ele>713.92</ele>
        <time>2016-07-11T07:13:31Z</time>
      </trkpt>
      <trkpt lat="44.87856" lon="4.30329">
        <ele>714.4</ele>
        <time>2016-07-11T07:13:56Z</time>
      </trkpt>
      <trkpt lat="44.87856" lon="4.30329">
        <ele>714.88</ele>
        <time>2016-07-11T07:14:23Z</time>
      </trkpt>
      <trkpt lat="44.87869" lon="4.30341">
        <ele>715.36</ele>
        <time>2016-07-11T07:14:41Z</time>
      </trkpt>
      <trkpt lat="44.87877" lon="4.30348">
        <ele>715.36</ele>
        <time>2016-07-11T07:14:59Z</time>
      </trkpt>
      <trkpt lat="44.87888" lon="4.30361">
        <ele>715.84</ele>
        <time>2016-07-11T07:15:17Z</time>
      </trkpt>
      <trkpt lat="44.87894" lon="4.30367">
        <ele>718.24</ele>
        <time>2016-07-11T07:15:32Z</time>
      </trkpt>
      <trkpt lat="44.87897" lon="4.30371">
        <ele>719.2</ele>
        <time>2016-07-11T07:15:50Z</time>
      </trkpt>
      <trkpt lat="44.87907" lon="4.30377">
        <ele>718.24</ele>
        <time>2016-07-11T07:16:05Z</time>
      </trkpt>
      <trkpt lat="44.8791" lon="4.3038">
        <ele>718.24</ele>
        <time>2016-07-11T07:16:20Z</time>
      </trkpt>
      <trkpt lat="44.87915" lon="4.30388">
        <ele>718.72</ele>
        <time>2016-07-11T07:16:32Z</time>
      </trkpt>
      <trkpt lat="44.8792" lon="4.3039">
        <ele>718.72</ele>
        <time>2016-07-11T07:16:39Z</time>
      </trkpt>
      <trkpt lat="44.87932" lon="4.30393">
        <ele>720.65</ele>
        <time>2016-07-11T07:16:53Z</time>
      </trkpt>
      <trkpt lat="44.87933" lon="4.30396">
        <ele>723.05</ele>
        <time>2016-07-11T07:17:19Z</time>
      </trkpt>
      <trkpt lat="44.87942" lon="4.30404">
        <ele>724.01</ele>
        <time>2016-07-11T07:17:37Z</time>
      </trkpt>
      <trkpt lat="44.87951" lon="4.3041">
        <ele>724.01</ele>
        <time>2016-07-11T07:17:56Z</time>
      </trkpt>
      <trkpt lat="44.87959" lon="4.30417">
        <ele>724.97</ele>
        <time>2016-07-11T07:18:08Z</time>
      </trkpt>
      <trkpt lat="44.87969" lon="4.30429">
        <ele>725.93</ele>
        <time>2016-07-11T07:18:26Z</time>
      </trkpt>
      <trkpt lat="44.87984" lon="4.30439">
        <ele>732.66</ele>
        <time>2016-07-11T07:18:42Z</time>
      </trkpt>
      <trkpt lat="44.87984" lon="4.30448">
        <ele>733.62</ele>
        <time>2016-07-11T07:18:58Z</time>
      </trkpt>
      <trkpt lat="44.87979" lon="4.30452">
        <ele>734.58</ele>
        <time>2016-07-11T07:19:14Z</time>
      </trkpt>
      <trkpt lat="44.87972" lon="4.30463">
        <ele>734.58</ele>
        <time>2016-07-11T07:19:29Z</time>
      </trkpt>
      <trkpt lat="44.87971" lon="4.30469">
        <ele>734.1</ele>
        <time>2016-07-11T07:19:43Z</time>
      </trkpt>
      <trkpt lat="44.87966" lon="4.30475">
        <ele>731.7</ele>
        <time>2016-07-11T07:19:58Z</time>
      </trkpt>
      <trkpt lat="44.8796" lon="4.30483">
        <ele>730.26</ele>
        <time>2016-07-11T07:20:12Z</time>
      </trkpt>
      <trkpt lat="44.87942" lon="4.3049">
        <ele>727.37</ele>
        <time>2016-07-11T07:20:33Z</time>
      </trkpt>
      <trkpt lat="44.87929" lon="4.30503">
        <ele>728.82</ele>
        <time>2016-07-11T07:20:47Z</time>
      </trkpt>
      <trkpt lat="44.87922" lon="4.30515">
        <ele>730.74</ele>
        <time>2016-07-11T07:20:58Z</time>
      </trkpt>
      <trkpt lat="44.87919" lon="4.30519">
        <ele>729.78</ele>
        <time>2016-07-11T07:21:10Z</time>
      </trkpt>
      <trkpt lat="44.87907" lon="4.30532">
        <ele>732.18</ele>
        <time>2016-07-11T07:21:25Z</time>
      </trkpt>
      <trkpt lat="44.87905" lon="4.30533">
        <ele>731.7</ele>
        <time>2016-07-11T07:21:26Z</time>
      </trkpt>
      <trkpt lat="44.87892" lon="4.30547">
        <ele>734.1</ele>
        <time>2016-07-11T07:21:43Z</time>
      </trkpt>
      <trkpt lat="44.87885" lon="4.30548">
        <ele>732.66</ele>
        <time>2016-07-11T07:21:55Z</time>
      </trkpt>
      <trkpt lat="44.87875" lon="4.30556">
        <ele>731.22</ele>
        <time>2016-07-11T07:22:10Z</time>
      </trkpt>
      <trkpt lat="44.87867" lon="4.30562">
        <ele>729.78</ele>
        <time>2016-07-11T07:22:25Z</time>
      </trkpt>
      <trkpt lat="44.87856" lon="4.30569">
        <ele>728.34</ele>
        <time>2016-07-11T07:22:39Z</time>
      </trkpt>
      <trkpt lat="44.87844" lon="4.30581">
        <ele>731.7</ele>
        <time>2016-07-11T07:22:53Z</time>
      </trkpt>
      <trkpt lat="44.87834" lon="4.30591">
        <ele>736.03</ele>
        <time>2016-07-11T07:23:07Z</time>
      </trkpt>
      <trkpt lat="44.87827" lon="4.30598">
        <ele>737.47</ele>
        <time>2016-07-11T07:23:20Z</time>
      </trkpt>
      <trkpt lat="44.87819" lon="4.30599">
        <ele>736.03</ele>
        <time>2016-07-11T07:23:32Z</time>
      </trkpt>
      <trkpt lat="44.8781" lon="4.3061">
        <ele>736.99</ele>
        <time>2016-07-11T07:23:45Z</time>
      </trkpt>
      <trkpt lat="44.87803" lon="4.30619">
        <ele>739.87</ele>
        <time>2016-07-11T07:24:01Z</time>
      </trkpt>
      <trkpt lat="44.87796" lon="4.30629">
        <ele>742.76</ele>
        <time>2016-07-11T07:24:13Z</time>
      </trkpt>
      <trkpt lat="44.87789" lon="4.30636">
        <ele>744.2</ele>
        <time>2016-07-11T07:24:27Z</time>
      </trkpt>
      <trkpt lat="44.87782" lon="4.30647">
        <ele>744.68</ele>
        <time>2016-07-11T07:24:39Z</time>
      </trkpt>
      <trkpt lat="44.87776" lon="4.30655">
        <ele>746.6</ele>
        <time>2016-07-11T07:24:47Z</time>
      </trkpt>
      <trkpt lat="44.87775" lon="4.30663">
        <ele>749.49</ele>
        <time>2016-07-11T07:25:00Z</time>
      </trkpt>
      <trkpt lat="44.87767" lon="4.30672">
        <ele>750.45</ele>
        <time>2016-07-11T07:25:14Z</time>
      </trkpt>
      <trkpt lat="44.87756" lon="4.30682">
        <ele>749.97</ele>
        <time>2016-07-11T07:25:27Z</time>
      </trkpt>
      <trkpt lat="44.87748" lon="4.30697">
        <ele>749.97</ele>
        <time>2016-07-11T07:25:43Z</time>
      </trkpt>
      <trkpt lat="44.87735" lon="4.30705">
        <ele>749.49</ele>
        <time>2016-07-11T07:25:58Z</time>
      </trkpt>
      <trkpt lat="44.8773" lon="4.30712">
        <ele>749</ele>
        <time>2016-07-11T07:26:11Z</time>
      </trkpt>
      <trkpt lat="44.87726" lon="4.30721">
        <ele>749.49</ele>
        <time>2016-07-11T07:26:21Z</time>
      </trkpt>
      <trkpt lat="44.87721" lon="4.3073">
        <ele>747.56</ele>
        <time>2016-07-11T07:26:34Z</time>
      </trkpt>
      <trkpt lat="44.87718" lon="4.30743">
        <ele>746.6</ele>
        <time>2016-07-11T07:26:48Z</time>
      </trkpt>
      <trkpt lat="44.87718" lon="4.30747">
        <ele>747.08</ele>
        <time>2016-07-11T07:27:00Z</time>
      </trkpt>
      <trkpt lat="44.87719" lon="4.30753">
        <ele>749</ele>
        <time>2016-07-11T07:27:12Z</time>
      </trkpt>
      <trkpt lat="44.8772" lon="4.30756">
        <ele>750.45</ele>
        <time>2016-07-11T07:27:29Z</time>
      </trkpt>
      <trkpt lat="44.8772" lon="4.30756">
        <ele>750.93</ele>
        <time>2016-07-11T07:27:31Z</time>
      </trkpt>
      <trkpt lat="44.8772" lon="4.30768">
        <ele>751.89</ele>
        <time>2016-07-11T07:27:44Z</time>
      </trkpt>
      <trkpt lat="44.87718" lon="4.30776">
        <ele>752.37</ele>
        <time>2016-07-11T07:27:54Z</time>
      </trkpt>
      <trkpt lat="44.87719" lon="4.30791">
        <ele>752.85</ele>
        <time>2016-07-11T07:28:06Z</time>
      </trkpt>
      <trkpt lat="44.87717" lon="4.30799">
        <ele>754.77</ele>
        <time>2016-07-11T07:28:21Z</time>
      </trkpt>
      <trkpt lat="44.87714" lon="4.30811">
        <ele>754.29</ele>
        <time>2016-07-11T07:28:33Z</time>
      </trkpt>
      <trkpt lat="44.87712" lon="4.30823">
        <ele>753.33</ele>
        <time>2016-07-11T07:28:45Z</time>
      </trkpt>
      <trkpt lat="44.87708" lon="4.30846">
        <ele>749</ele>
        <time>2016-07-11T07:28:59Z</time>
      </trkpt>
      <trkpt lat="44.87706" lon="4.30854">
        <ele>747.08</ele>
        <time>2016-07-11T07:29:05Z</time>
      </trkpt>
      <trkpt lat="44.87696" lon="4.30865">
        <ele>742.76</ele>
        <time>2016-07-11T07:29:18Z</time>
      </trkpt>
      <trkpt lat="44.87692" lon="4.30867">
        <ele>742.28</ele>
        <time>2016-07-11T07:29:33Z</time>
      </trkpt>
      <trkpt lat="44.87684" lon="4.30866">
        <ele>740.35</ele>
        <time>2016-07-11T07:29:45Z</time>
      </trkpt>
      <trkpt lat="44.87679" lon="4.30865">
        <ele>737.95</ele>
        <time>2016-07-11T07:29:59Z</time>
      </trkpt>
      <trkpt lat="44.87676" lon="4.30863">
        <ele>736.03</ele>
        <time>2016-07-11T07:30:11Z</time>
      </trkpt>
      <trkpt lat="44.87668" lon="4.3086">
        <ele>734.1</ele>
        <time>2016-07-11T07:30:24Z</time>
      </trkpt>
      <trkpt lat="44.87663" lon="4.30861">
        <ele>734.58</ele>
        <time>2016-07-11T07:30:36Z</time>
      </trkpt>
      <trkpt lat="44.87662" lon="4.30864">
        <ele>735.07</ele>
        <time>2016-07-11T07:30:47Z</time>
      </trkpt>
      <trkpt lat="44.8766" lon="4.30864">
        <ele>734.1</ele>
        <time>2016-07-11T07:30:58Z</time>
      </trkpt>
      <trkpt lat="44.87648" lon="4.30869">
        <ele>734.58</ele>
        <time>2016-07-11T07:31:10Z</time>
      </trkpt>
      <trkpt lat="44.87643" lon="4.30871">
        <ele>735.07</ele>
        <time>2016-07-11T07:31:26Z</time>
      </trkpt>
      <trkpt lat="44.87648" lon="4.30879">
        <ele>733.62</ele>
        <time>2016-07-11T07:31:40Z</time>
      </trkpt>
      <trkpt lat="44.87649" lon="4.30884">
        <ele>733.62</ele>
        <time>2016-07-11T07:31:55Z</time>
      </trkpt>
      <trkpt lat="44.87649" lon="4.30885">
        <ele>734.1</ele>
        <time>2016-07-11T07:32:24Z</time>
      </trkpt>
      <trkpt lat="44.87645" lon="4.30887">
        <ele>734.1</ele>
        <time>2016-07-11T07:32:44Z</time>
      </trkpt>
      <trkpt lat="44.87639" lon="4.30896">
        <ele>737.47</ele>
        <time>2016-07-11T07:32:56Z</time>
      </trkpt>
      <trkpt lat="44.87631" lon="4.30902">
        <ele>739.87</ele>
        <time>2016-07-11T07:33:07Z</time>
      </trkpt>
      <trkpt lat="44.87617" lon="4.30905">
        <ele>745.64</ele>
        <time>2016-07-11T07:33:22Z</time>
      </trkpt>
      <trkpt lat="44.87605" lon="4.30903">
        <ele>751.41</ele>
        <time>2016-07-11T07:33:35Z</time>
      </trkpt>
      <trkpt lat="44.87601" lon="4.30914">
        <ele>753.81</ele>
        <time>2016-07-11T07:33:50Z</time>
      </trkpt>
      <trkpt lat="44.87598" lon="4.30922">
        <ele>755.73</ele>
        <time>2016-07-11T07:34:05Z</time>
      </trkpt>
      <trkpt lat="44.8759" lon="4.30927">
        <ele>757.66</ele>
        <time>2016-07-11T07:34:19Z</time>
      </trkpt>
      <trkpt lat="44.87589" lon="4.30928">
        <ele>757.66</ele>
        <time>2016-07-11T07:34:21Z</time>
      </trkpt>
      <trkpt lat="44.87586" lon="4.30938">
        <ele>758.14</ele>
        <time>2016-07-11T07:34:35Z</time>
      </trkpt>
      <trkpt lat="44.87585" lon="4.30939">
        <ele>758.14</ele>
        <time>2016-07-11T07:34:36Z</time>
      </trkpt>
      <trkpt lat="44.87577" lon="4.30944">
        <ele>756.69</ele>
        <time>2016-07-11T07:34:49Z</time>
      </trkpt>
      <trkpt lat="44.87572" lon="4.30947">
        <ele>756.21</ele>
        <time>2016-07-11T07:34:56Z</time>
      </trkpt>
      <trkpt lat="44.87571" lon="4.30947">
        <ele>755.25</ele>
        <time>2016-07-11T07:35:11Z</time>
      </trkpt>
      <trkpt lat="44.87568" lon="4.3095">
        <ele>754.29</ele>
        <time>2016-07-11T07:35:25Z</time>
      </trkpt>
      <trkpt lat="44.87565" lon="4.30958">
        <ele>755.25</ele>
        <time>2016-07-11T07:35:40Z</time>
      </trkpt>
      <trkpt lat="44.87559" lon="4.30968">
        <ele>757.18</ele>
        <time>2016-07-11T07:35:52Z</time>
      </trkpt>
      <trkpt lat="44.87551" lon="4.3098">
        <ele>760.06</ele>
        <time>2016-07-11T07:36:04Z</time>
      </trkpt>
      <trkpt lat="44.87551" lon="4.30983">
        <ele>760.54</ele>
        <time>2016-07-11T07:36:22Z</time>
      </trkpt>
      <trkpt lat="44.87551" lon="4.30983">
        <ele>760.54</ele>
        <time>2016-07-11T07:36:26Z</time>
      </trkpt>
      <trkpt lat="44.87549" lon="4.30983">
        <ele>761.02</ele>
        <time>2016-07-11T07:36:37Z</time>
      </trkpt>
      <trkpt lat="44.87542" lon="4.3099">
        <ele>762.46</ele>
        <time>2016-07-11T07:36:50Z</time>
      </trkpt>
      <trkpt lat="44.87534" lon="4.30996">
        <ele>762.94</ele>
        <time>2016-07-11T07:37:03Z</time>
      </trkpt>
      <trkpt lat="44.87526" lon="4.3101">
        <ele>766.31</ele>
        <time>2016-07-11T07:37:17Z</time>
      </trkpt>
      <trkpt lat="44.87523" lon="4.31016">
        <ele>766.79</ele>
        <time>2016-07-11T07:37:23Z</time>
      </trkpt>
      <trkpt lat="44.87518" lon="4.31025">
        <ele>767.27</ele>
        <time>2016-07-11T07:37:32Z</time>
      </trkpt>
      <trkpt lat="44.87511" lon="4.31039">
        <ele>767.75</ele>
        <time>2016-07-11T07:37:44Z</time>
      </trkpt>
      <trkpt lat="44.87503" lon="4.31053">
        <ele>766.31</ele>
        <time>2016-07-11T07:37:58Z</time>
      </trkpt>
      <trkpt lat="44.87491" lon="4.31063">
        <ele>761.5</ele>
        <time>2016-07-11T07:38:13Z</time>
      </trkpt>
      <trkpt lat="44.87483" lon="4.31075">
        <ele>758.14</ele>
        <time>2016-07-11T07:38:28Z</time>
      </trkpt>
      <trkpt lat="44.87481" lon="4.31077">
        <ele>758.14</ele>
        <time>2016-07-11T07:38:31Z</time>
      </trkpt>
      <trkpt lat="44.87475" lon="4.31088">
        <ele>761.5</ele>
        <time>2016-07-11T07:38:44Z</time>
      </trkpt>
      <trkpt lat="44.87472" lon="4.31098">
        <ele>762.94</ele>
        <time>2016-07-11T07:38:55Z</time>
      </trkpt>
      <trkpt lat="44.87463" lon="4.31113">
        <ele>764.39</ele>
        <time>2016-07-11T07:39:11Z</time>
      </trkpt>
      <trkpt lat="44.87455" lon="4.31127">
        <ele>768.71</ele>
        <time>2016-07-11T07:39:25Z</time>
      </trkpt>
      <trkpt lat="44.87448" lon="4.31134">
        <ele>771.11</ele>
        <time>2016-07-11T07:39:38Z</time>
      </trkpt>
      <trkpt lat="44.87443" lon="4.31145">
        <ele>772.08</ele>
        <time>2016-07-11T07:39:53Z</time>
      </trkpt>
      <trkpt lat="44.87438" lon="4.31153">
        <ele>771.11</ele>
        <time>2016-07-11T07:40:05Z</time>
      </trkpt>
      <trkpt lat="44.87437" lon="4.31168">
        <ele>771.6</ele>
        <time>2016-07-11T07:40:18Z</time>
      </trkpt>
      <trkpt lat="44.87445" lon="4.31159">
        <ele>775.44</ele>
        <time>2016-07-11T07:40:33Z</time>
      </trkpt>
      <trkpt lat="44.87449" lon="4.31153">
        <ele>776.4</ele>
        <time>2016-07-11T07:40:39Z</time>
      </trkpt>
      <trkpt lat="44.8746" lon="4.31138">
        <ele>777.84</ele>
        <time>2016-07-11T07:40:54Z</time>
      </trkpt>
      <trkpt lat="44.87464" lon="4.3113">
        <ele>779.29</ele>
        <time>2016-07-11T07:41:05Z</time>
      </trkpt>
      <trkpt lat="44.87473" lon="4.31122">
        <ele>778.32</ele>
        <time>2016-07-11T07:41:18Z</time>
      </trkpt>
      <trkpt lat="44.87477" lon="4.31119">
        <ele>778.32</ele>
        <time>2016-07-11T07:41:23Z</time>
      </trkpt>
      <trkpt lat="44.87489" lon="4.31116">
        <ele>778.81</ele>
        <time>2016-07-11T07:41:37Z</time>
      </trkpt>
      <trkpt lat="44.8749" lon="4.31116">
        <ele>778.81</ele>
        <time>2016-07-11T07:41:52Z</time>
      </trkpt>
      <trkpt lat="44.87489" lon="4.31118">
        <ele>779.29</ele>
        <time>2016-07-11T07:42:09Z</time>
      </trkpt>
      <trkpt lat="44.87492" lon="4.31117">
        <ele>780.73</ele>
        <time>2016-07-11T07:42:26Z</time>
      </trkpt>
      <trkpt lat="44.87492" lon="4.31115">
        <ele>780.73</ele>
        <time>2016-07-11T07:42:41Z</time>
      </trkpt>
      <trkpt lat="44.87492" lon="4.31115">
        <ele>781.69</ele>
        <time>2016-07-11T07:43:07Z</time>
      </trkpt>
      <trkpt lat="44.87492" lon="4.31116">
        <ele>781.69</ele>
        <time>2016-07-11T07:43:26Z</time>
      </trkpt>
      <trkpt lat="44.87491" lon="4.31116">
        <ele>782.17</ele>
        <time>2016-07-11T07:43:54Z</time>
      </trkpt>
      <trkpt lat="44.8749" lon="4.31115">
        <ele>781.69</ele>
        <time>2016-07-11T07:44:17Z</time>
      </trkpt>
      <trkpt lat="44.87491" lon="4.31116">
        <ele>782.17</ele>
        <time>2016-07-11T07:44:32Z</time>
      </trkpt>
      <trkpt lat="44.8749" lon="4.31121">
        <ele>782.17</ele>
        <time>2016-07-11T07:45:00Z</time>
      </trkpt>
      <trkpt lat="44.87489" lon="4.31119">
        <ele>782.65</ele>
        <time>2016-07-11T07:45:30Z</time>
      </trkpt>
      <trkpt lat="44.87489" lon="4.31117">
        <ele>782.65</ele>
        <time>2016-07-11T07:45:54Z</time>
      </trkpt>
      <trkpt lat="44.87491" lon="4.31115">
        <ele>783.13</ele>
        <time>2016-07-11T07:46:21Z</time>
      </trkpt>
      <trkpt lat="44.87491" lon="4.31115">
        <ele>784.09</ele>
        <time>2016-07-11T07:46:51Z</time>
      </trkpt>
      <trkpt lat="44.87493" lon="4.31115">
        <ele>785.53</ele>
        <time>2016-07-11T07:47:28Z</time>
      </trkpt>
      <trkpt lat="44.87494" lon="4.31115">
        <ele>786.98</ele>
        <time>2016-07-11T07:48:03Z</time>
      </trkpt>
      <trkpt lat="44.87491" lon="4.31116">
        <ele>786.98</ele>
        <time>2016-07-11T07:48:32Z</time>
      </trkpt>
      <trkpt lat="44.87491" lon="4.31115">
        <ele>787.46</ele>
        <time>2016-07-11T07:48:57Z</time>
      </trkpt>
      <trkpt lat="44.8749" lon="4.31116">
        <ele>787.94</ele>
        <time>2016-07-11T07:49:31Z</time>
      </trkpt>
      <trkpt lat="44.87494" lon="4.31116">
        <ele>788.9</ele>
        <time>2016-07-11T07:50:02Z</time>
      </trkpt>
      <trkpt lat="44.87495" lon="4.31115">
        <ele>789.86</ele>
        <time>2016-07-11T07:50:38Z</time>
      </trkpt>
      <trkpt lat="44.87494" lon="4.31115">
        <ele>790.82</ele>
        <time>2016-07-11T07:51:12Z</time>
      </trkpt>
      <trkpt lat="44.87493" lon="4.31115">
        <ele>790.82</ele>
        <time>2016-07-11T07:51:41Z</time>
      </trkpt>
      <trkpt lat="44.87491" lon="4.31116">
        <ele>790.34</ele>
        <time>2016-07-11T07:52:15Z</time>
      </trkpt>
      <trkpt lat="44.87491" lon="4.31116">
        <ele>789.86</ele>
        <time>2016-07-11T07:52:46Z</time>
      </trkpt>
      <trkpt lat="44.87491" lon="4.31115">
        <ele>788.9</ele>
        <time>2016-07-11T07:53:20Z</time>
      </trkpt>
      <trkpt lat="44.87491" lon="4.31115">
        <ele>788.9</ele>
        <time>2016-07-11T07:53:53Z</time>
      </trkpt>
      <trkpt lat="44.87491" lon="4.31114">
        <ele>786.5</ele>
        <time>2016-07-11T07:54:08Z</time>
      </trkpt>
      <trkpt lat="44.87491" lon="4.31115">
        <ele>786.5</ele>
        <time>2016-07-11T07:54:10Z</time>
      </trkpt>
      <trkpt lat="44.87488" lon="4.31119">
        <ele>786.98</ele>
        <time>2016-07-11T07:54:27Z</time>
      </trkpt>
      <trkpt lat="44.87486" lon="4.31119">
        <ele>787.94</ele>
        <time>2016-07-11T07:54:41Z</time>
      </trkpt>
      <trkpt lat="44.87486" lon="4.31119">
        <ele>787.46</ele>
        <time>2016-07-11T07:55:00Z</time>
      </trkpt>
      <trkpt lat="44.87483" lon="4.31117">
        <ele>787.46</ele>
        <time>2016-07-11T07:55:14Z</time>
      </trkpt>
      <trkpt lat="44.87481" lon="4.31118">
        <ele>787.94</ele>
        <time>2016-07-11T07:55:28Z</time>
      </trkpt>
      <trkpt lat="44.87483" lon="4.31115">
        <ele>788.42</ele>
        <time>2016-07-11T07:55:59Z</time>
      </trkpt>
      <trkpt lat="44.87482" lon="4.31115">
        <ele>786.98</ele>
        <time>2016-07-11T07:56:25Z</time>
      </trkpt>
      <trkpt lat="44.87481" lon="4.31116">
        <ele>785.05</ele>
        <time>2016-07-11T07:56:45Z</time>
      </trkpt>
      <trkpt lat="44.87478" lon="4.31117">
        <ele>783.61</ele>
        <time>2016-07-11T07:57:05Z</time>
      </trkpt>
      <trkpt lat="44.87475" lon="4.31119">
        <ele>782.65</ele>
        <time>2016-07-11T07:57:25Z</time>
      </trkpt>
      <trkpt lat="44.87467" lon="4.31127">
        <ele>780.25</ele>
        <time>2016-07-11T07:57:40Z</time>
      </trkpt>
      <trkpt lat="44.87463" lon="4.31134">
        <ele>780.25</ele>
        <time>2016-07-11T07:57:46Z</time>
      </trkpt>
      <trkpt lat="44.87454" lon="4.31145">
        <ele>781.21</ele>
        <time>2016-07-11T07:57:59Z</time>
      </trkpt>
      <trkpt lat="44.87445" lon="4.31157">
        <ele>781.69</ele>
        <time>2016-07-11T07:58:15Z</time>
      </trkpt>
      <trkpt lat="44.87438" lon="4.3116">
        <ele>781.69</ele>
        <time>2016-07-11T07:58:33Z</time>
      </trkpt>
      <trkpt lat="44.87429" lon="4.3117">
        <ele>780.73</ele>
        <time>2016-07-11T07:58:48Z</time>
      </trkpt>
      <trkpt lat="44.87421" lon="4.31182">
        <ele>780.73</ele>
        <time>2016-07-11T07:59:02Z</time>
      </trkpt>
      <trkpt lat="44.87416" lon="4.31195">
        <ele>780.25</ele>
        <time>2016-07-11T07:59:15Z</time>
      </trkpt>
      <trkpt lat="44.87407" lon="4.31212">
        <ele>783.13</ele>
        <time>2016-07-11T07:59:30Z</time>
      </trkpt>
      <trkpt lat="44.87398" lon="4.3122">
        <ele>784.57</ele>
        <time>2016-07-11T07:59:43Z</time>
      </trkpt>
      <trkpt lat="44.87391" lon="4.31226">
        <ele>786.5</ele>
        <time>2016-07-11T07:59:56Z</time>
      </trkpt>
      <trkpt lat="44.8738" lon="4.31233">
        <ele>789.38</ele>
        <time>2016-07-11T08:00:10Z</time>
      </trkpt>
      <trkpt lat="44.87369" lon="4.31239">
        <ele>788.9</ele>
        <time>2016-07-11T08:00:24Z</time>
      </trkpt>
      <trkpt lat="44.87359" lon="4.31251">
        <ele>787.46</ele>
        <time>2016-07-11T08:00:38Z</time>
      </trkpt>
      <trkpt lat="44.87352" lon="4.31261">
        <ele>787.46</ele>
        <time>2016-07-11T08:00:51Z</time>
      </trkpt>
      <trkpt lat="44.8734" lon="4.31273">
        <ele>785.53</ele>
        <time>2016-07-11T08:01:09Z</time>
      </trkpt>
      <trkpt lat="44.87328" lon="4.31266">
        <ele>784.09</ele>
        <time>2016-07-11T08:01:23Z</time>
      </trkpt>
      <trkpt lat="44.87325" lon="4.31263">
        <ele>784.09</ele>
        <time>2016-07-11T08:01:26Z</time>
      </trkpt>
      <trkpt lat="44.87321" lon="4.31261">
        <ele>783.61</ele>
        <time>2016-07-11T08:01:30Z</time>
      </trkpt>
      <trkpt lat="44.87309" lon="4.31263">
        <ele>784.57</ele>
        <time>2016-07-11T08:01:43Z</time>
      </trkpt>
      <trkpt lat="44.873" lon="4.31267">
        <ele>787.46</ele>
        <time>2016-07-11T08:01:55Z</time>
      </trkpt>
      <trkpt lat="44.87289" lon="4.31269">
        <ele>787.46</ele>
        <time>2016-07-11T08:02:07Z</time>
      </trkpt>
      <trkpt lat="44.87285" lon="4.3127">
        <ele>787.46</ele>
        <time>2016-07-11T08:02:12Z</time>
      </trkpt>
      <trkpt lat="44.87272" lon="4.31275">
        <ele>788.9</ele>
        <time>2016-07-11T08:02:27Z</time>
      </trkpt>
      <trkpt lat="44.8726" lon="4.3128">
        <ele>790.82</ele>
        <time>2016-07-11T08:02:40Z</time>
      </trkpt>
      <trkpt lat="44.87248" lon="4.31288">
        <ele>792.26</ele>
        <time>2016-07-11T08:02:53Z</time>
      </trkpt>
      <trkpt lat="44.87242" lon="4.31298">
        <ele>793.22</ele>
        <time>2016-07-11T08:03:06Z</time>
      </trkpt>
      <trkpt lat="44.87234" lon="4.31311">
        <ele>792.74</ele>
        <time>2016-07-11T08:03:20Z</time>
      </trkpt>
      <trkpt lat="44.87229" lon="4.31313">
        <ele>791.78</ele>
        <time>2016-07-11T08:03:25Z</time>
      </trkpt>
      <trkpt lat="44.87216" lon="4.31309">
        <ele>789.86</ele>
        <time>2016-07-11T08:03:41Z</time>
      </trkpt>
      <trkpt lat="44.87207" lon="4.31309">
        <ele>791.78</ele>
        <time>2016-07-11T08:03:53Z</time>
      </trkpt>
      <trkpt lat="44.87195" lon="4.31314">
        <ele>792.74</ele>
        <time>2016-07-11T08:04:06Z</time>
      </trkpt>
      <trkpt lat="44.87184" lon="4.31322">
        <ele>792.26</ele>
        <time>2016-07-11T08:04:19Z</time>
      </trkpt>
      <trkpt lat="44.87173" lon="4.31334">
        <ele>791.78</ele>
        <time>2016-07-11T08:04:33Z</time>
      </trkpt>
      <trkpt lat="44.8716" lon="4.31344">
        <ele>793.22</ele>
        <time>2016-07-11T08:04:48Z</time>
      </trkpt>
      <trkpt lat="44.87147" lon="4.31356">
        <ele>793.22</ele>
        <time>2016-07-11T08:05:04Z</time>
      </trkpt>
      <trkpt lat="44.87144" lon="4.3136">
        <ele>792.74</ele>
        <time>2016-07-11T08:05:08Z</time>
      </trkpt>
      <trkpt lat="44.87139" lon="4.31367">
        <ele>793.22</ele>
        <time>2016-07-11T08:05:14Z</time>
      </trkpt>
      <trkpt lat="44.87131" lon="4.31386">
        <ele>793.71</ele>
        <time>2016-07-11T08:05:30Z</time>
      </trkpt>
      <trkpt lat="44.87125" lon="4.31395">
        <ele>795.15</ele>
        <time>2016-07-11T08:05:42Z</time>
      </trkpt>
      <trkpt lat="44.87117" lon="4.31403">
        <ele>797.07</ele>
        <time>2016-07-11T08:05:54Z</time>
      </trkpt>
      <trkpt lat="44.87115" lon="4.31403">
        <ele>795.63</ele>
        <time>2016-07-11T08:06:11Z</time>
      </trkpt>
      <trkpt lat="44.87107" lon="4.3141">
        <ele>795.63</ele>
        <time>2016-07-11T08:06:22Z</time>
      </trkpt>
      <trkpt lat="44.87094" lon="4.31419">
        <ele>797.55</ele>
        <time>2016-07-11T08:06:37Z</time>
      </trkpt>
      <trkpt lat="44.87084" lon="4.31425">
        <ele>796.11</ele>
        <time>2016-07-11T08:06:50Z</time>
      </trkpt>
      <trkpt lat="44.87069" lon="4.31431">
        <ele>794.67</ele>
        <time>2016-07-11T08:07:05Z</time>
      </trkpt>
      <trkpt lat="44.87052" lon="4.31437">
        <ele>795.15</ele>
        <time>2016-07-11T08:07:20Z</time>
      </trkpt>
      <trkpt lat="44.8704" lon="4.31445">
        <ele>798.51</ele>
        <time>2016-07-11T08:07:36Z</time>
      </trkpt>
      <trkpt lat="44.87027" lon="4.31446">
        <ele>798.99</ele>
        <time>2016-07-11T08:07:51Z</time>
      </trkpt>
      <trkpt lat="44.87018" lon="4.31443">
        <ele>798.99</ele>
        <time>2016-07-11T08:08:04Z</time>
      </trkpt>
      <trkpt lat="44.87011" lon="4.31436">
        <ele>800.92</ele>
        <time>2016-07-11T08:08:23Z</time>
      </trkpt>
      <trkpt lat="44.8701" lon="4.3144">
        <ele>800.44</ele>
        <time>2016-07-11T08:08:37Z</time>
      </trkpt>
      <trkpt lat="44.87003" lon="4.31444">
        <ele>802.36</ele>
        <time>2016-07-11T08:08:50Z</time>
      </trkpt>
      <trkpt lat="44.86994" lon="4.31444">
        <ele>805.72</ele>
        <time>2016-07-11T08:09:05Z</time>
      </trkpt>
      <trkpt lat="44.86981" lon="4.31446">
        <ele>811.49</ele>
        <time>2016-07-11T08:09:19Z</time>
      </trkpt>
      <trkpt lat="44.86971" lon="4.31446">
        <ele>815.82</ele>
        <time>2016-07-11T08:09:34Z</time>
      </trkpt>
      <trkpt lat="44.86962" lon="4.31444">
        <ele>819.66</ele>
        <time>2016-07-11T08:09:48Z</time>
      </trkpt>
      <trkpt lat="44.86957" lon="4.31445">
        <ele>821.58</ele>
        <time>2016-07-11T08:09:59Z</time>
      </trkpt>
      <trkpt lat="44.86946" lon="4.31442">
        <ele>821.58</ele>
        <time>2016-07-11T08:10:13Z</time>
      </trkpt>
      <trkpt lat="44.8693" lon="4.31436">
        <ele>821.1</ele>
        <time>2016-07-11T08:10:29Z</time>
      </trkpt>
      <trkpt lat="44.86917" lon="4.31435">
        <ele>821.1</ele>
        <time>2016-07-11T08:10:42Z</time>
      </trkpt>
      <trkpt lat="44.86902" lon="4.31433">
        <ele>821.58</ele>
        <time>2016-07-11T08:10:57Z</time>
      </trkpt>
      <trkpt lat="44.86887" lon="4.31433">
        <ele>823.51</ele>
        <time>2016-07-11T08:11:12Z</time>
      </trkpt>
      <trkpt lat="44.86875" lon="4.31439">
        <ele>823.51</ele>
        <time>2016-07-11T08:11:25Z</time>
      </trkpt>
      <trkpt lat="44.86865" lon="4.31447">
        <ele>824.47</ele>
        <time>2016-07-11T08:11:38Z</time>
      </trkpt>
      <trkpt lat="44.8685" lon="4.31452">
        <ele>826.39</ele>
        <time>2016-07-11T08:11:56Z</time>
      </trkpt>
      <trkpt lat="44.86837" lon="4.31454">
        <ele>826.87</ele>
        <time>2016-07-11T08:12:09Z</time>
      </trkpt>
      <trkpt lat="44.86836" lon="4.31454">
        <ele>827.35</ele>
        <time>2016-07-11T08:12:10Z</time>
      </trkpt>
      <trkpt lat="44.86825" lon="4.31461">
        <ele>829.27</ele>
        <time>2016-07-11T08:12:25Z</time>
      </trkpt>
      <trkpt lat="44.86816" lon="4.31472">
        <ele>829.27</ele>
        <time>2016-07-11T08:12:38Z</time>
      </trkpt>
      <trkpt lat="44.86809" lon="4.31488">
        <ele>831.68</ele>
        <time>2016-07-11T08:12:54Z</time>
      </trkpt>
      <trkpt lat="44.86808" lon="4.31504">
        <ele>839.37</ele>
        <time>2016-07-11T08:13:09Z</time>
      </trkpt>
      <trkpt lat="44.86806" lon="4.31512">
        <ele>839.37</ele>
        <time>2016-07-11T08:13:17Z</time>
      </trkpt>
      <trkpt lat="44.86805" lon="4.31531">
        <ele>838.41</ele>
        <time>2016-07-11T08:13:32Z</time>
      </trkpt>
      <trkpt lat="44.86802" lon="4.31546">
        <ele>839.37</ele>
        <time>2016-07-11T08:13:46Z</time>
      </trkpt>
      <trkpt lat="44.86808" lon="4.31549">
        <ele>840.33</ele>
        <time>2016-07-11T08:14:00Z</time>
      </trkpt>
      <trkpt lat="44.86807" lon="4.31565">
        <ele>842.25</ele>
        <time>2016-07-11T08:14:15Z</time>
      </trkpt>
      <trkpt lat="44.86801" lon="4.31566">
        <ele>841.77</ele>
        <time>2016-07-11T08:14:33Z</time>
      </trkpt>
      <trkpt lat="44.868" lon="4.31567">
        <ele>842.25</ele>
        <time>2016-07-11T08:14:54Z</time>
      </trkpt>
      <trkpt lat="44.86799" lon="4.31568">
        <ele>842.73</ele>
        <time>2016-07-11T08:15:15Z</time>
      </trkpt>
      <trkpt lat="44.868" lon="4.31575">
        <ele>844.66</ele>
        <time>2016-07-11T08:15:36Z</time>
      </trkpt>
      <trkpt lat="44.868" lon="4.31588">
        <ele>846.1</ele>
        <time>2016-07-11T08:15:57Z</time>
      </trkpt>
      <trkpt lat="44.86795" lon="4.31587">
        <ele>846.58</ele>
        <time>2016-07-11T08:16:10Z</time>
      </trkpt>
      <trkpt lat="44.86787" lon="4.31576">
        <ele>847.06</ele>
        <time>2016-07-11T08:16:24Z</time>
      </trkpt>
      <trkpt lat="44.86781" lon="4.31573">
        <ele>848.5</ele>
        <time>2016-07-11T08:16:37Z</time>
      </trkpt>
      <trkpt lat="44.86778" lon="4.31571">
        <ele>849.94</ele>
        <time>2016-07-11T08:16:53Z</time>
      </trkpt>
      <trkpt lat="44.86769" lon="4.31574">
        <ele>852.35</ele>
        <time>2016-07-11T08:17:11Z</time>
      </trkpt>
      <trkpt lat="44.86762" lon="4.31575">
        <ele>854.27</ele>
        <time>2016-07-11T08:17:25Z</time>
      </trkpt>
      <trkpt lat="44.86759" lon="4.31578">
        <ele>854.75</ele>
        <time>2016-07-11T08:17:40Z</time>
      </trkpt>
      <trkpt lat="44.86759" lon="4.31579">
        <ele>854.75</ele>
        <time>2016-07-11T08:17:41Z</time>
      </trkpt>
      <trkpt lat="44.86751" lon="4.31584">
        <ele>854.75</ele>
        <time>2016-07-11T08:17:54Z</time>
      </trkpt>
      <trkpt lat="44.86742" lon="4.31586">
        <ele>855.71</ele>
        <time>2016-07-11T08:18:11Z</time>
      </trkpt>
      <trkpt lat="44.86739" lon="4.31587">
        <ele>858.11</ele>
        <time>2016-07-11T08:18:26Z</time>
      </trkpt>
      <trkpt lat="44.86738" lon="4.31588">
        <ele>858.59</ele>
        <time>2016-07-11T08:18:39Z</time>
      </trkpt>
      <trkpt lat="44.86728" lon="4.3159">
        <ele>857.63</ele>
        <time>2016-07-11T08:18:55Z</time>
      </trkpt>
      <trkpt lat="44.8672" lon="4.31596">
        <ele>859.08</ele>
        <time>2016-07-11T08:19:08Z</time>
      </trkpt>
      <trkpt lat="44.86714" lon="4.31599">
        <ele>861</ele>
        <time>2016-07-11T08:19:20Z</time>
      </trkpt>
      <trkpt lat="44.86711" lon="4.31601">
        <ele>862.44</ele>
        <time>2016-07-11T08:19:34Z</time>
      </trkpt>
      <trkpt lat="44.86704" lon="4.31606">
        <ele>865.32</ele>
        <time>2016-07-11T08:19:47Z</time>
      </trkpt>
      <trkpt lat="44.86703" lon="4.31607">
        <ele>865.8</ele>
        <time>2016-07-11T08:20:04Z</time>
      </trkpt>
      <trkpt lat="44.867" lon="4.31609">
        <ele>867.25</ele>
        <time>2016-07-11T08:20:21Z</time>
      </trkpt>
      <trkpt lat="44.86695" lon="4.31617">
        <ele>869.65</ele>
        <time>2016-07-11T08:20:33Z</time>
      </trkpt>
      <trkpt lat="44.8669" lon="4.31618">
        <ele>870.13</ele>
        <time>2016-07-11T08:20:48Z</time>
      </trkpt>
      <trkpt lat="44.86689" lon="4.31618">
        <ele>870.13</ele>
        <time>2016-07-11T08:21:10Z</time>
      </trkpt>
      <trkpt lat="44.86689" lon="4.3162">
        <ele>869.17</ele>
        <time>2016-07-11T08:21:32Z</time>
      </trkpt>
      <trkpt lat="44.86689" lon="4.3162">
        <ele>869.17</ele>
        <time>2016-07-11T08:21:55Z</time>
      </trkpt>
      <trkpt lat="44.86686" lon="4.31622">
        <ele>868.69</ele>
        <time>2016-07-11T08:22:17Z</time>
      </trkpt>
      <trkpt lat="44.86675" lon="4.31623">
        <ele>870.61</ele>
        <time>2016-07-11T08:22:33Z</time>
      </trkpt>
      <trkpt lat="44.86668" lon="4.31618">
        <ele>870.13</ele>
        <time>2016-07-11T08:22:50Z</time>
      </trkpt>
      <trkpt lat="44.86665" lon="4.31621">
        <ele>871.09</ele>
        <time>2016-07-11T08:23:04Z</time>
      </trkpt>
      <trkpt lat="44.86667" lon="4.31626">
        <ele>872.05</ele>
        <time>2016-07-11T08:23:14Z</time>
      </trkpt>
      <trkpt lat="44.86665" lon="4.31628">
        <ele>873.5</ele>
        <time>2016-07-11T08:23:29Z</time>
      </trkpt>
      <trkpt lat="44.86664" lon="4.31632">
        <ele>875.42</ele>
        <time>2016-07-11T08:23:40Z</time>
      </trkpt>
      <trkpt lat="44.86662" lon="4.31634">
        <ele>876.86</ele>
        <time>2016-07-11T08:23:55Z</time>
      </trkpt>
      <trkpt lat="44.86653" lon="4.31634">
        <ele>878.78</ele>
        <time>2016-07-11T08:24:12Z</time>
      </trkpt>
      <trkpt lat="44.86646" lon="4.31631">
        <ele>879.26</ele>
        <time>2016-07-11T08:24:26Z</time>
      </trkpt>
      <trkpt lat="44.86637" lon="4.31622">
        <ele>880.71</ele>
        <time>2016-07-11T08:24:39Z</time>
      </trkpt>
      <trkpt lat="44.86633" lon="4.31619">
        <ele>880.22</ele>
        <time>2016-07-11T08:24:53Z</time>
      </trkpt>
      <trkpt lat="44.86631" lon="4.31616">
        <ele>881.19</ele>
        <time>2016-07-11T08:25:09Z</time>
      </trkpt>
      <trkpt lat="44.86631" lon="4.3162">
        <ele>881.19</ele>
        <time>2016-07-11T08:25:24Z</time>
      </trkpt>
      <trkpt lat="44.86631" lon="4.31628">
        <ele>882.63</ele>
        <time>2016-07-11T08:25:36Z</time>
      </trkpt>
      <trkpt lat="44.8663" lon="4.31629">
        <ele>883.11</ele>
        <time>2016-07-11T08:25:51Z</time>
      </trkpt>
      <trkpt lat="44.86623" lon="4.31641">
        <ele>887.43</ele>
        <time>2016-07-11T08:26:04Z</time>
      </trkpt>
      <trkpt lat="44.8662" lon="4.31651">
        <ele>890.32</ele>
        <time>2016-07-11T08:26:19Z</time>
      </trkpt>
      <trkpt lat="44.86619" lon="4.31653">
        <ele>892.24</ele>
        <time>2016-07-11T08:26:36Z</time>
      </trkpt>
      <trkpt lat="44.86613" lon="4.31663">
        <ele>894.16</ele>
        <time>2016-07-11T08:26:50Z</time>
      </trkpt>
      <trkpt lat="44.86606" lon="4.31667">
        <ele>894.64</ele>
        <time>2016-07-11T08:27:06Z</time>
      </trkpt>
      <trkpt lat="44.86603" lon="4.31669">
        <ele>895.12</ele>
        <time>2016-07-11T08:27:10Z</time>
      </trkpt>
      <trkpt lat="44.86593" lon="4.31672">
        <ele>896.09</ele>
        <time>2016-07-11T08:27:21Z</time>
      </trkpt>
      <trkpt lat="44.86584" lon="4.3168">
        <ele>898.01</ele>
        <time>2016-07-11T08:27:35Z</time>
      </trkpt>
      <trkpt lat="44.86584" lon="4.31675">
        <ele>898.01</ele>
        <time>2016-07-11T08:27:48Z</time>
      </trkpt>
      <trkpt lat="44.86586" lon="4.31676">
        <ele>898.49</ele>
        <time>2016-07-11T08:28:10Z</time>
      </trkpt>
      <trkpt lat="44.86589" lon="4.31682">
        <ele>898.97</ele>
        <time>2016-07-11T08:28:20Z</time>
      </trkpt>
      <trkpt lat="44.86591" lon="4.31683">
        <ele>899.45</ele>
        <time>2016-07-11T08:28:33Z</time>
      </trkpt>
      <trkpt lat="44.86584" lon="4.31687">
        <ele>898.97</ele>
        <time>2016-07-11T08:28:41Z</time>
      </trkpt>
      <trkpt lat="44.86574" lon="4.31694">
        <ele>900.41</ele>
        <time>2016-07-11T08:28:55Z</time>
      </trkpt>
      <trkpt lat="44.86572" lon="4.31695">
        <ele>902.33</ele>
        <time>2016-07-11T08:29:09Z</time>
      </trkpt>
      <trkpt lat="44.86569" lon="4.31703">
        <ele>903.78</ele>
        <time>2016-07-11T08:29:21Z</time>
      </trkpt>
      <trkpt lat="44.86564" lon="4.31716">
        <ele>904.26</ele>
        <time>2016-07-11T08:29:35Z</time>
      </trkpt>
      <trkpt lat="44.86562" lon="4.31721">
        <ele>905.7</ele>
        <time>2016-07-11T08:29:50Z</time>
      </trkpt>
      <trkpt lat="44.86561" lon="4.31728">
        <ele>907.14</ele>
        <time>2016-07-11T08:30:06Z</time>
      </trkpt>
      <trkpt lat="44.86554" lon="4.31727">
        <ele>907.62</ele>
        <time>2016-07-11T08:30:23Z</time>
      </trkpt>
      <trkpt lat="44.86548" lon="4.31727">
        <ele>907.14</ele>
        <time>2016-07-11T08:30:37Z</time>
      </trkpt>
      <trkpt lat="44.86545" lon="4.31728">
        <ele>908.1</ele>
        <time>2016-07-11T08:30:51Z</time>
      </trkpt>
      <trkpt lat="44.86532" lon="4.31729">
        <ele>906.66</ele>
        <time>2016-07-11T08:31:07Z</time>
      </trkpt>
      <trkpt lat="44.86522" lon="4.31728">
        <ele>908.58</ele>
        <time>2016-07-11T08:31:19Z</time>
      </trkpt>
      <trkpt lat="44.86515" lon="4.31727">
        <ele>910.03</ele>
        <time>2016-07-11T08:31:32Z</time>
      </trkpt>
      <trkpt lat="44.86507" lon="4.31727">
        <ele>910.99</ele>
        <time>2016-07-11T08:31:45Z</time>
      </trkpt>
      <trkpt lat="44.86497" lon="4.3173">
        <ele>914.83</ele>
        <time>2016-07-11T08:32:01Z</time>
      </trkpt>
      <trkpt lat="44.86493" lon="4.31731">
        <ele>915.79</ele>
        <time>2016-07-11T08:32:17Z</time>
      </trkpt>
      <trkpt lat="44.86487" lon="4.31734">
        <ele>916.27</ele>
        <time>2016-07-11T08:32:35Z</time>
      </trkpt>
      <trkpt lat="44.86486" lon="4.31735">
        <ele>916.75</ele>
        <time>2016-07-11T08:32:57Z</time>
      </trkpt>
      <trkpt lat="44.86485" lon="4.31736">
        <ele>916.75</ele>
        <time>2016-07-11T08:33:22Z</time>
      </trkpt>
      <trkpt lat="44.86485" lon="4.31736">
        <ele>917.72</ele>
        <time>2016-07-11T08:33:36Z</time>
      </trkpt>
      <trkpt lat="44.86481" lon="4.31743">
        <ele>919.16</ele>
        <time>2016-07-11T08:33:49Z</time>
      </trkpt>
      <trkpt lat="44.86477" lon="4.31749">
        <ele>921.56</ele>
        <time>2016-07-11T08:34:05Z</time>
      </trkpt>
      <trkpt lat="44.86475" lon="4.31753">
        <ele>922.52</ele>
        <time>2016-07-11T08:34:17Z</time>
      </trkpt>
      <trkpt lat="44.86485" lon="4.31756">
        <ele>923.48</ele>
        <time>2016-07-11T08:34:29Z</time>
      </trkpt>
      <trkpt lat="44.86488" lon="4.31766">
        <ele>925.89</ele>
        <time>2016-07-11T08:34:43Z</time>
      </trkpt>
      <trkpt lat="44.8648" lon="4.31768">
        <ele>926.37</ele>
        <time>2016-07-11T08:34:53Z</time>
      </trkpt>
      <trkpt lat="44.86466" lon="4.3177">
        <ele>926.37</ele>
        <time>2016-07-11T08:35:08Z</time>
      </trkpt>
      <trkpt lat="44.8646" lon="4.31769">
        <ele>926.85</ele>
        <time>2016-07-11T08:35:22Z</time>
      </trkpt>
      <trkpt lat="44.86452" lon="4.31774">
        <ele>929.73</ele>
        <time>2016-07-11T08:35:35Z</time>
      </trkpt>
      <trkpt lat="44.86453" lon="4.31777">
        <ele>931.17</ele>
        <time>2016-07-11T08:35:53Z</time>
      </trkpt>
      <trkpt lat="44.86454" lon="4.31787">
        <ele>933.58</ele>
        <time>2016-07-11T08:36:07Z</time>
      </trkpt>
      <trkpt lat="44.86448" lon="4.31798">
        <ele>935.98</ele>
        <time>2016-07-11T08:36:22Z</time>
      </trkpt>
      <trkpt lat="44.86448" lon="4.31803">
        <ele>936.94</ele>
        <time>2016-07-11T08:36:35Z</time>
      </trkpt>
      <trkpt lat="44.86443" lon="4.3181">
        <ele>939.35</ele>
        <time>2016-07-11T08:36:48Z</time>
      </trkpt>
      <trkpt lat="44.86437" lon="4.31819">
        <ele>941.75</ele>
        <time>2016-07-11T08:37:02Z</time>
      </trkpt>
      <trkpt lat="44.86435" lon="4.31826">
        <ele>943.67</ele>
        <time>2016-07-11T08:37:16Z</time>
      </trkpt>
      <trkpt lat="44.86436" lon="4.31831">
        <ele>945.59</ele>
        <time>2016-07-11T08:37:28Z</time>
      </trkpt>
      <trkpt lat="44.86445" lon="4.31835">
        <ele>948</ele>
        <time>2016-07-11T08:37:40Z</time>
      </trkpt>
      <trkpt lat="44.86447" lon="4.31838">
        <ele>948.96</ele>
        <time>2016-07-11T08:37:46Z</time>
      </trkpt>
      <trkpt lat="44.86457" lon="4.31845">
        <ele>952.32</ele>
        <time>2016-07-11T08:38:00Z</time>
      </trkpt>
      <trkpt lat="44.8646" lon="4.31853">
        <ele>953.77</ele>
        <time>2016-07-11T08:38:12Z</time>
      </trkpt>
      <trkpt lat="44.86453" lon="4.31858">
        <ele>953.77</ele>
        <time>2016-07-11T08:38:24Z</time>
      </trkpt>
      <trkpt lat="44.8645" lon="4.31862">
        <ele>955.21</ele>
        <time>2016-07-11T08:38:38Z</time>
      </trkpt>
      <trkpt lat="44.8645" lon="4.31863">
        <ele>954.73</ele>
        <time>2016-07-11T08:39:02Z</time>
      </trkpt>
      <trkpt lat="44.86449" lon="4.3187">
        <ele>954.73</ele>
        <time>2016-07-11T08:39:16Z</time>
      </trkpt>
      <trkpt lat="44.86449" lon="4.31869">
        <ele>954.73</ele>
        <time>2016-07-11T08:39:20Z</time>
      </trkpt>
      <trkpt lat="44.86455" lon="4.31871">
        <ele>954.73</ele>
        <time>2016-07-11T08:39:35Z</time>
      </trkpt>
      <trkpt lat="44.86458" lon="4.31871">
        <ele>953.28</ele>
        <time>2016-07-11T08:39:46Z</time>
      </trkpt>
      <trkpt lat="44.86459" lon="4.31873">
        <ele>953.77</ele>
        <time>2016-07-11T08:39:49Z</time>
      </trkpt>
      <trkpt lat="44.86457" lon="4.31875">
        <ele>953.77</ele>
        <time>2016-07-11T08:39:53Z</time>
      </trkpt>
      <trkpt lat="44.86449" lon="4.31878">
        <ele>954.73</ele>
        <time>2016-07-11T08:40:04Z</time>
      </trkpt>
      <trkpt lat="44.86442" lon="4.31882">
        <ele>954.73</ele>
        <time>2016-07-11T08:40:18Z</time>
      </trkpt>
      <trkpt lat="44.86433" lon="4.31883">
        <ele>949.92</ele>
        <time>2016-07-11T08:40:31Z</time>
      </trkpt>
      <trkpt lat="44.86429" lon="4.31881">
        <ele>944.63</ele>
        <time>2016-07-11T08:40:45Z</time>
      </trkpt>
      <trkpt lat="44.86426" lon="4.31882">
        <ele>942.23</ele>
        <time>2016-07-11T08:41:00Z</time>
      </trkpt>
      <trkpt lat="44.86424" lon="4.31884">
        <ele>942.71</ele>
        <time>2016-07-11T08:41:23Z</time>
      </trkpt>
      <trkpt lat="44.86422" lon="4.31881">
        <ele>946.07</ele>
        <time>2016-07-11T08:41:54Z</time>
      </trkpt>
      <trkpt lat="44.86422" lon="4.31878">
        <ele>948.96</ele>
        <time>2016-07-11T08:42:16Z</time>
      </trkpt>
      <trkpt lat="44.86422" lon="4.31877">
        <ele>950.88</ele>
        <time>2016-07-11T08:42:41Z</time>
      </trkpt>
      <trkpt lat="44.86422" lon="4.31877">
        <ele>951.84</ele>
        <time>2016-07-11T08:43:07Z</time>
      </trkpt>
      <trkpt lat="44.86421" lon="4.31877">
        <ele>952.8</ele>
        <time>2016-07-11T08:43:24Z</time>
      </trkpt>
      <trkpt lat="44.86421" lon="4.31876">
        <ele>953.77</ele>
        <time>2016-07-11T08:43:43Z</time>
      </trkpt>
      <trkpt lat="44.8642" lon="4.31873">
        <ele>954.73</ele>
        <time>2016-07-11T08:44:01Z</time>
      </trkpt>
      <trkpt lat="44.8642" lon="4.31873">
        <ele>954.25</ele>
        <time>2016-07-11T08:44:23Z</time>
      </trkpt>
      <trkpt lat="44.86418" lon="4.31873">
        <ele>953.77</ele>
        <time>2016-07-11T08:44:47Z</time>
      </trkpt>
      <trkpt lat="44.86418" lon="4.31873">
        <ele>953.28</ele>
        <time>2016-07-11T08:45:12Z</time>
      </trkpt>
      <trkpt lat="44.86416" lon="4.31873">
        <ele>952.8</ele>
        <time>2016-07-11T08:45:37Z</time>
      </trkpt>
      <trkpt lat="44.86414" lon="4.31874">
        <ele>952.8</ele>
        <time>2016-07-11T08:45:57Z</time>
      </trkpt>
      <trkpt lat="44.86413" lon="4.31874">
        <ele>952.8</ele>
        <time>2016-07-11T08:46:13Z</time>
      </trkpt>
      <trkpt lat="44.86409" lon="4.31873">
        <ele>954.25</ele>
        <time>2016-07-11T08:46:29Z</time>
      </trkpt>
      <trkpt lat="44.86405" lon="4.31873">
        <ele>954.73</ele>
        <time>2016-07-11T08:46:49Z</time>
      </trkpt>
      <trkpt lat="44.86405" lon="4.31873">
        <ele>955.21</ele>
        <time>2016-07-11T08:47:06Z</time>
      </trkpt>
      <trkpt lat="44.86405" lon="4.31875">
        <ele>954.73</ele>
        <time>2016-07-11T08:47:30Z</time>
      </trkpt>
      <trkpt lat="44.86403" lon="4.31879">
        <ele>954.25</ele>
        <time>2016-07-11T08:47:43Z</time>
      </trkpt>
      <trkpt lat="44.86404" lon="4.3189">
        <ele>954.25</ele>
        <time>2016-07-11T08:48:04Z</time>
      </trkpt>
      <trkpt lat="44.86405" lon="4.31892">
        <ele>954.73</ele>
        <time>2016-07-11T08:48:32Z</time>
      </trkpt>
      <trkpt lat="44.86404" lon="4.31896">
        <ele>954.25</ele>
        <time>2016-07-11T08:48:52Z</time>
      </trkpt>
      <trkpt lat="44.86403" lon="4.31895">
        <ele>953.28</ele>
        <time>2016-07-11T08:49:13Z</time>
      </trkpt>
      <trkpt lat="44.86402" lon="4.31894">
        <ele>954.73</ele>
        <time>2016-07-11T08:49:35Z</time>
      </trkpt>
      <trkpt lat="44.86394" lon="4.31896">
        <ele>955.69</ele>
        <time>2016-07-11T08:49:55Z</time>
      </trkpt>
      <trkpt lat="44.86386" lon="4.31901">
        <ele>954.25</ele>
        <time>2016-07-11T08:50:06Z</time>
      </trkpt>
      <trkpt lat="44.86378" lon="4.31908">
        <ele>953.28</ele>
        <time>2016-07-11T08:50:19Z</time>
      </trkpt>
      <trkpt lat="44.86368" lon="4.31916">
        <ele>955.69</ele>
        <time>2016-07-11T08:50:33Z</time>
      </trkpt>
      <trkpt lat="44.86366" lon="4.31915">
        <ele>957.61</ele>
        <time>2016-07-11T08:50:48Z</time>
      </trkpt>
      <trkpt lat="44.86359" lon="4.3192">
        <ele>960.01</ele>
        <time>2016-07-11T08:51:01Z</time>
      </trkpt>
      <trkpt lat="44.86349" lon="4.31928">
        <ele>960.98</ele>
        <time>2016-07-11T08:51:15Z</time>
      </trkpt>
      <trkpt lat="44.86337" lon="4.31936">
        <ele>960.98</ele>
        <time>2016-07-11T08:51:33Z</time>
      </trkpt>
      <trkpt lat="44.8633" lon="4.31942">
        <ele>963.38</ele>
        <time>2016-07-11T08:51:48Z</time>
      </trkpt>
      <trkpt lat="44.86326" lon="4.31945">
        <ele>963.86</ele>
        <time>2016-07-11T08:52:03Z</time>
      </trkpt>
      <trkpt lat="44.86325" lon="4.31944">
        <ele>964.82</ele>
        <time>2016-07-11T08:52:26Z</time>
      </trkpt>
      <trkpt lat="44.86316" lon="4.31953">
        <ele>964.82</ele>
        <time>2016-07-11T08:52:41Z</time>
      </trkpt>
      <trkpt lat="44.8631" lon="4.31963">
        <ele>965.3</ele>
        <time>2016-07-11T08:52:56Z</time>
      </trkpt>
      <trkpt lat="44.86303" lon="4.31971">
        <ele>964.82</ele>
        <time>2016-07-11T08:53:05Z</time>
      </trkpt>
      <trkpt lat="44.86289" lon="4.31984">
        <ele>966.26</ele>
        <time>2016-07-11T08:53:21Z</time>
      </trkpt>
      <trkpt lat="44.8628" lon="4.31993">
        <ele>966.26</ele>
        <time>2016-07-11T08:53:32Z</time>
      </trkpt>
      <trkpt lat="44.86266" lon="4.32005">
        <ele>967.22</ele>
        <time>2016-07-11T08:53:47Z</time>
      </trkpt>
      <trkpt lat="44.86257" lon="4.3201">
        <ele>967.22</ele>
        <time>2016-07-11T08:53:59Z</time>
      </trkpt>
      <trkpt lat="44.86246" lon="4.32016">
        <ele>966.26</ele>
        <time>2016-07-11T08:54:13Z</time>
      </trkpt>
      <trkpt lat="44.86235" lon="4.32023">
        <ele>965.3</ele>
        <time>2016-07-11T08:54:25Z</time>
      </trkpt>
      <trkpt lat="44.8622" lon="4.32025">
        <ele>968.67</ele>
        <time>2016-07-11T08:54:39Z</time>
      </trkpt>
      <trkpt lat="44.86205" lon="4.32029">
        <ele>972.99</ele>
        <time>2016-07-11T08:54:54Z</time>
      </trkpt>
      <trkpt lat="44.86192" lon="4.32035">
        <ele>973.95</ele>
        <time>2016-07-11T08:55:07Z</time>
      </trkpt>
      <trkpt lat="44.86179" lon="4.32043">
        <ele>975.39</ele>
        <time>2016-07-11T08:55:21Z</time>
      </trkpt>
      <trkpt lat="44.86169" lon="4.32051">
        <ele>976.84</ele>
        <time>2016-07-11T08:55:33Z</time>
      </trkpt>
      <trkpt lat="44.86163" lon="4.32055">
        <ele>978.28</ele>
        <time>2016-07-11T08:55:40Z</time>
      </trkpt>
      <trkpt lat="44.8615" lon="4.32062">
        <ele>980.2</ele>
        <time>2016-07-11T08:55:52Z</time>
      </trkpt>
      <trkpt lat="44.86135" lon="4.32069">
        <ele>982.6</ele>
        <time>2016-07-11T08:56:07Z</time>
      </trkpt>
      <trkpt lat="44.86129" lon="4.32074">
        <ele>984.05</ele>
        <time>2016-07-11T08:56:13Z</time>
      </trkpt>
      <trkpt lat="44.86115" lon="4.32084">
        <ele>984.53</ele>
        <time>2016-07-11T08:56:28Z</time>
      </trkpt>
      <trkpt lat="44.86101" lon="4.32087">
        <ele>985.01</ele>
        <time>2016-07-11T08:56:42Z</time>
      </trkpt>
      <trkpt lat="44.86084" lon="4.32089">
        <ele>988.37</ele>
        <time>2016-07-11T08:56:57Z</time>
      </trkpt>
      <trkpt lat="44.86067" lon="4.32088">
        <ele>990.78</ele>
        <time>2016-07-11T08:57:12Z</time>
      </trkpt>
      <trkpt lat="44.86054" lon="4.32085">
        <ele>992.22</ele>
        <time>2016-07-11T08:57:25Z</time>
      </trkpt>
      <trkpt lat="44.86039" lon="4.32083">
        <ele>991.74</ele>
        <time>2016-07-11T08:57:40Z</time>
      </trkpt>
      <trkpt lat="44.86024" lon="4.32081">
        <ele>992.7</ele>
        <time>2016-07-11T08:57:54Z</time>
      </trkpt>
      <trkpt lat="44.86015" lon="4.32082">
        <ele>993.18</ele>
        <time>2016-07-11T08:58:04Z</time>
      </trkpt>
      <trkpt lat="44.86003" lon="4.32082">
        <ele>993.66</ele>
        <time>2016-07-11T08:58:16Z</time>
      </trkpt>
      <trkpt lat="44.85988" lon="4.32087">
        <ele>994.14</ele>
        <time>2016-07-11T08:58:31Z</time>
      </trkpt>
      <trkpt lat="44.85987" lon="4.32088">
        <ele>994.14</ele>
        <time>2016-07-11T08:58:32Z</time>
      </trkpt>
      <trkpt lat="44.85971" lon="4.32092">
        <ele>994.62</ele>
        <time>2016-07-11T08:58:49Z</time>
      </trkpt>
      <trkpt lat="44.85962" lon="4.32095">
        <ele>996.54</ele>
        <time>2016-07-11T08:58:58Z</time>
      </trkpt>
      <trkpt lat="44.85948" lon="4.32104">
        <ele>998.47</ele>
        <time>2016-07-11T08:59:14Z</time>
      </trkpt>
      <trkpt lat="44.85948" lon="4.32105">
        <ele>998.95</ele>
        <time>2016-07-11T08:59:15Z</time>
      </trkpt>
      <trkpt lat="44.85934" lon="4.32114">
        <ele>1001.35</ele>
        <time>2016-07-11T08:59:30Z</time>
      </trkpt>
      <trkpt lat="44.85922" lon="4.32118">
        <ele>1003.75</ele>
        <time>2016-07-11T08:59:44Z</time>
      </trkpt>
      <trkpt lat="44.85911" lon="4.32115">
        <ele>1005.68</ele>
        <time>2016-07-11T08:59:57Z</time>
      </trkpt>
      <trkpt lat="44.85908" lon="4.32114">
        <ele>1004.72</ele>
        <time>2016-07-11T09:00:15Z</time>
      </trkpt>
      <trkpt lat="44.85904" lon="4.32111">
        <ele>1004.72</ele>
        <time>2016-07-11T09:00:28Z</time>
      </trkpt>
      <trkpt lat="44.85896" lon="4.32096">
        <ele>1005.68</ele>
        <time>2016-07-11T09:00:43Z</time>
      </trkpt>
      <trkpt lat="44.85893" lon="4.32094">
        <ele>1006.16</ele>
        <time>2016-07-11T09:00:58Z</time>
      </trkpt>
      <trkpt lat="44.85894" lon="4.32093">
        <ele>1006.16</ele>
        <time>2016-07-11T09:01:18Z</time>
      </trkpt>
      <trkpt lat="44.85893" lon="4.32094">
        <ele>1005.2</ele>
        <time>2016-07-11T09:01:38Z</time>
      </trkpt>
      <trkpt lat="44.85887" lon="4.32084">
        <ele>1004.72</ele>
        <time>2016-07-11T09:01:50Z</time>
      </trkpt>
      <trkpt lat="44.85881" lon="4.32079">
        <ele>1004.23</ele>
        <time>2016-07-11T09:02:03Z</time>
      </trkpt>
      <trkpt lat="44.85873" lon="4.32072">
        <ele>1004.72</ele>
        <time>2016-07-11T09:02:15Z</time>
      </trkpt>
      <trkpt lat="44.85864" lon="4.32063">
        <ele>1005.2</ele>
        <time>2016-07-11T09:02:29Z</time>
      </trkpt>
      <trkpt lat="44.85856" lon="4.32054">
        <ele>1006.64</ele>
        <time>2016-07-11T09:02:43Z</time>
      </trkpt>
      <trkpt lat="44.8585" lon="4.32048">
        <ele>1008.56</ele>
        <time>2016-07-11T09:02:55Z</time>
      </trkpt>
      <trkpt lat="44.85846" lon="4.32044">
        <ele>1011.44</ele>
        <time>2016-07-11T09:03:13Z</time>
      </trkpt>
      <trkpt lat="44.85838" lon="4.32039">
        <ele>1012.89</ele>
        <time>2016-07-11T09:03:27Z</time>
      </trkpt>
      <trkpt lat="44.85836" lon="4.32038">
        <ele>1012.89</ele>
        <time>2016-07-11T09:03:41Z</time>
      </trkpt>
      <trkpt lat="44.85838" lon="4.32039">
        <ele>1012.89</ele>
        <time>2016-07-11T09:04:17Z</time>
      </trkpt>
      <trkpt lat="44.85838" lon="4.32039">
        <ele>1013.37</ele>
        <time>2016-07-11T09:04:56Z</time>
      </trkpt>
      <trkpt lat="44.85838" lon="4.32039">
        <ele>1013.85</ele>
        <time>2016-07-11T09:05:37Z</time>
      </trkpt>
      <trkpt lat="44.85838" lon="4.3204">
        <ele>1013.85</ele>
        <time>2016-07-11T09:06:08Z</time>
      </trkpt>
      <trkpt lat="44.85838" lon="4.3204">
        <ele>1013.85</ele>
        <time>2016-07-11T09:06:45Z</time>
      </trkpt>
      <trkpt lat="44.85837" lon="4.32041">
        <ele>1014.33</ele>
        <time>2016-07-11T09:07:23Z</time>
      </trkpt>
      <trkpt lat="44.85837" lon="4.32041">
        <ele>1013.85</ele>
        <time>2016-07-11T09:07:41Z</time>
      </trkpt>
      <trkpt lat="44.85837" lon="4.32041">
        <ele>1013.37</ele>
        <time>2016-07-11T09:08:19Z</time>
      </trkpt>
      <trkpt lat="44.85837" lon="4.32041">
        <ele>1013.85</ele>
        <time>2016-07-11T09:08:43Z</time>
      </trkpt>
      <trkpt lat="44.85837" lon="4.32041">
        <ele>1014.33</ele>
        <time>2016-07-11T09:09:04Z</time>
      </trkpt>
      <trkpt lat="44.85835" lon="4.32039">
        <ele>1014.33</ele>
        <time>2016-07-11T09:09:21Z</time>
      </trkpt>
      <trkpt lat="44.8583" lon="4.32035">
        <ele>1015.77</ele>
        <time>2016-07-11T09:09:37Z</time>
      </trkpt>
      <trkpt lat="44.85823" lon="4.32031">
        <ele>1017.21</ele>
        <time>2016-07-11T09:09:53Z</time>
      </trkpt>
      <trkpt lat="44.85812" lon="4.32035">
        <ele>1020.58</ele>
        <time>2016-07-11T09:10:08Z</time>
      </trkpt>
      <trkpt lat="44.85805" lon="4.32039">
        <ele>1021.06</ele>
        <time>2016-07-11T09:10:27Z</time>
      </trkpt>
      <trkpt lat="44.85797" lon="4.32044">
        <ele>1022.98</ele>
        <time>2016-07-11T09:10:41Z</time>
      </trkpt>
      <trkpt lat="44.85789" lon="4.32049">
        <ele>1023.46</ele>
        <time>2016-07-11T09:10:56Z</time>
      </trkpt>
      <trkpt lat="44.85785" lon="4.32054">
        <ele>1023.94</ele>
        <time>2016-07-11T09:11:10Z</time>
      </trkpt>
      <trkpt lat="44.85777" lon="4.32062">
        <ele>1023.94</ele>
        <time>2016-07-11T09:11:29Z</time>
      </trkpt>
      <trkpt lat="44.85763" lon="4.3207">
        <ele>1025.38</ele>
        <time>2016-07-11T09:11:47Z</time>
      </trkpt>
      <trkpt lat="44.85753" lon="4.32078">
        <ele>1028.27</ele>
        <time>2016-07-11T09:12:07Z</time>
      </trkpt>
      <trkpt lat="44.8575" lon="4.32081">
        <ele>1028.75</ele>
        <time>2016-07-11T09:12:27Z</time>
      </trkpt>
      <trkpt lat="44.85734" lon="4.32089">
        <ele>1030.67</ele>
        <time>2016-07-11T09:12:46Z</time>
      </trkpt>
      <trkpt lat="44.85722" lon="4.32095">
        <ele>1034.52</ele>
        <time>2016-07-11T09:13:08Z</time>
      </trkpt>
      <trkpt lat="44.85719" lon="4.32097">
        <ele>1036.92</ele>
        <time>2016-07-11T09:13:26Z</time>
      </trkpt>
      <trkpt lat="44.85709" lon="4.32103">
        <ele>1038.36</ele>
        <time>2016-07-11T09:13:45Z</time>
      </trkpt>
      <trkpt lat="44.85697" lon="4.32114">
        <ele>1040.76</ele>
        <time>2016-07-11T09:14:08Z</time>
      </trkpt>
      <trkpt lat="44.85693" lon="4.32114">
        <ele>1041.25</ele>
        <time>2016-07-11T09:14:39Z</time>
      </trkpt>
      <trkpt lat="44.85683" lon="4.32124">
        <ele>1044.61</ele>
        <time>2016-07-11T09:14:56Z</time>
      </trkpt>
      <trkpt lat="44.85675" lon="4.32132">
        <ele>1047.97</ele>
        <time>2016-07-11T09:15:15Z</time>
      </trkpt>
      <trkpt lat="44.85673" lon="4.32131">
        <ele>1048.45</ele>
        <time>2016-07-11T09:15:40Z</time>
      </trkpt>
      <trkpt lat="44.85666" lon="4.32141">
        <ele>1051.34</ele>
        <time>2016-07-11T09:15:58Z</time>
      </trkpt>
      <trkpt lat="44.85655" lon="4.32154">
        <ele>1055.18</ele>
        <time>2016-07-11T09:16:19Z</time>
      </trkpt>
      <trkpt lat="44.85647" lon="4.32163">
        <ele>1055.67</ele>
        <time>2016-07-11T09:16:40Z</time>
      </trkpt>
      <trkpt lat="44.8564" lon="4.32167">
        <ele>1055.67</ele>
        <time>2016-07-11T09:17:01Z</time>
      </trkpt>
      <trkpt lat="44.85632" lon="4.32172">
        <ele>1058.07</ele>
        <time>2016-07-11T09:17:21Z</time>
      </trkpt>
      <trkpt lat="44.85626" lon="4.32176">
        <ele>1059.03</ele>
        <time>2016-07-11T09:17:38Z</time>
      </trkpt>
      <trkpt lat="44.8562" lon="4.3218">
        <ele>1059.99</ele>
        <time>2016-07-11T09:17:53Z</time>
      </trkpt>
      <trkpt lat="44.85612" lon="4.32191">
        <ele>1062.87</ele>
        <time>2016-07-11T09:18:10Z</time>
      </trkpt>
      <trkpt lat="44.85612" lon="4.3219">
        <ele>1062.87</ele>
        <time>2016-07-11T09:18:37Z</time>
      </trkpt>
      <trkpt lat="44.85611" lon="4.32191">
        <ele>1063.84</ele>
        <time>2016-07-11T09:18:59Z</time>
      </trkpt>
      <trkpt lat="44.8561" lon="4.32192">
        <ele>1064.8</ele>
        <time>2016-07-11T09:19:26Z</time>
      </trkpt>
      <trkpt lat="44.85603" lon="4.32196">
        <ele>1068.64</ele>
        <time>2016-07-11T09:19:45Z</time>
      </trkpt>
      <trkpt lat="44.85598" lon="4.32199">
        <ele>1069.12</ele>
        <time>2016-07-11T09:20:02Z</time>
      </trkpt>
      <trkpt lat="44.85581" lon="4.322">
        <ele>1069.12</ele>
        <time>2016-07-11T09:20:20Z</time>
      </trkpt>
      <trkpt lat="44.85573" lon="4.32203">
        <ele>1071.05</ele>
        <time>2016-07-11T09:20:38Z</time>
      </trkpt>
      <trkpt lat="44.85566" lon="4.32204">
        <ele>1073.45</ele>
        <time>2016-07-11T09:20:56Z</time>
      </trkpt>
      <trkpt lat="44.85564" lon="4.32203">
        <ele>1074.41</ele>
        <time>2016-07-11T09:21:18Z</time>
      </trkpt>
      <trkpt lat="44.85563" lon="4.32203">
        <ele>1074.89</ele>
        <time>2016-07-11T09:21:42Z</time>
      </trkpt>
      <trkpt lat="44.85556" lon="4.32204">
        <ele>1077.78</ele>
        <time>2016-07-11T09:22:03Z</time>
      </trkpt>
      <trkpt lat="44.85554" lon="4.32205">
        <ele>1078.26</ele>
        <time>2016-07-11T09:22:22Z</time>
      </trkpt>
      <trkpt lat="44.85536" lon="4.32212">
        <ele>1082.58</ele>
        <time>2016-07-11T09:22:38Z</time>
      </trkpt>
      <trkpt lat="44.85529" lon="4.32209">
        <ele>1084.5</ele>
        <time>2016-07-11T09:22:55Z</time>
      </trkpt>
      <trkpt lat="44.85515" lon="4.32204">
        <ele>1086.43</ele>
        <time>2016-07-11T09:23:09Z</time>
      </trkpt>
      <trkpt lat="44.85506" lon="4.32192">
        <ele>1085.47</ele>
        <time>2016-07-11T09:23:24Z</time>
      </trkpt>
      <trkpt lat="44.85507" lon="4.32188">
        <ele>1088.35</ele>
        <time>2016-07-11T09:23:39Z</time>
      </trkpt>
      <trkpt lat="44.85507" lon="4.32187">
        <ele>1089.31</ele>
        <time>2016-07-11T09:24:03Z</time>
      </trkpt>
      <trkpt lat="44.85512" lon="4.32185">
        <ele>1089.79</ele>
        <time>2016-07-11T09:24:14Z</time>
      </trkpt>
      <trkpt lat="44.85524" lon="4.32178">
        <ele>1090.27</ele>
        <time>2016-07-11T09:24:27Z</time>
      </trkpt>
      <trkpt lat="44.85537" lon="4.32167">
        <ele>1090.75</ele>
        <time>2016-07-11T09:24:42Z</time>
      </trkpt>
      <trkpt lat="44.85537" lon="4.32167">
        <ele>1091.23</ele>
        <time>2016-07-11T09:25:04Z</time>
      </trkpt>
      <trkpt lat="44.85533" lon="4.32171">
        <ele>1092.2</ele>
        <time>2016-07-11T09:25:30Z</time>
      </trkpt>
      <trkpt lat="44.85526" lon="4.32174">
        <ele>1090.75</ele>
        <time>2016-07-11T09:25:37Z</time>
      </trkpt>
      <trkpt lat="44.85521" lon="4.32178">
        <ele>1089.79</ele>
        <time>2016-07-11T09:25:42Z</time>
      </trkpt>
      <trkpt lat="44.85516" lon="4.32178">
        <ele>1088.83</ele>
        <time>2016-07-11T09:25:58Z</time>
      </trkpt>
      <trkpt lat="44.85506" lon="4.32178">
        <ele>1088.83</ele>
        <time>2016-07-11T09:26:15Z</time>
      </trkpt>
      <trkpt lat="44.85502" lon="4.32176">
        <ele>1089.31</ele>
        <time>2016-07-11T09:26:20Z</time>
      </trkpt>
      <trkpt lat="44.85497" lon="4.32171">
        <ele>1090.75</ele>
        <time>2016-07-11T09:26:34Z</time>
      </trkpt>
      <trkpt lat="44.85497" lon="4.3217">
        <ele>1091.23</ele>
        <time>2016-07-11T09:26:54Z</time>
      </trkpt>
      <trkpt lat="44.85494" lon="4.32163">
        <ele>1091.71</ele>
        <time>2016-07-11T09:27:08Z</time>
      </trkpt>
      <trkpt lat="44.85485" lon="4.32145">
        <ele>1092.2</ele>
        <time>2016-07-11T09:27:27Z</time>
      </trkpt>
      <trkpt lat="44.85485" lon="4.32143">
        <ele>1092.2</ele>
        <time>2016-07-11T09:27:28Z</time>
      </trkpt>
      <trkpt lat="44.85483" lon="4.32137">
        <ele>1093.64</ele>
        <time>2016-07-11T09:27:43Z</time>
      </trkpt>
      <trkpt lat="44.85484" lon="4.32137">
        <ele>1093.16</ele>
        <time>2016-07-11T09:28:08Z</time>
      </trkpt>
      <trkpt lat="44.85484" lon="4.32136">
        <ele>1092.68</ele>
        <time>2016-07-11T09:28:34Z</time>
      </trkpt>
      <trkpt lat="44.85479" lon="4.32111">
        <ele>1091.23</ele>
        <time>2016-07-11T09:28:52Z</time>
      </trkpt>
      <trkpt lat="44.85475" lon="4.32087">
        <ele>1091.71</ele>
        <time>2016-07-11T09:29:09Z</time>
      </trkpt>
      <trkpt lat="44.85472" lon="4.32057">
        <ele>1090.27</ele>
        <time>2016-07-11T09:29:29Z</time>
      </trkpt>
      <trkpt lat="44.85472" lon="4.32055">
        <ele>1090.27</ele>
        <time>2016-07-11T09:29:30Z</time>
      </trkpt>
      <trkpt lat="44.8547" lon="4.32042">
        <ele>1090.27</ele>
        <time>2016-07-11T09:29:38Z</time>
      </trkpt>
      <trkpt lat="44.85465" lon="4.32022">
        <ele>1090.27</ele>
        <time>2016-07-11T09:29:54Z</time>
      </trkpt>
      <trkpt lat="44.85464" lon="4.32017">
        <ele>1090.27</ele>
        <time>2016-07-11T09:29:57Z</time>
      </trkpt>
      <trkpt lat="44.85457" lon="4.31996">
        <ele>1091.23</ele>
        <time>2016-07-11T09:30:13Z</time>
      </trkpt>
      <trkpt lat="44.85453" lon="4.31988">
        <ele>1093.16</ele>
        <time>2016-07-11T09:30:19Z</time>
      </trkpt>
      <trkpt lat="44.85446" lon="4.31977">
        <ele>1096.04</ele>
        <time>2016-07-11T09:30:30Z</time>
      </trkpt>
      <trkpt lat="44.85445" lon="4.31973">
        <ele>1096.04</ele>
        <time>2016-07-11T09:30:33Z</time>
      </trkpt>
      <trkpt lat="44.85435" lon="4.31954">
        <ele>1096.52</ele>
        <time>2016-07-11T09:30:48Z</time>
      </trkpt>
      <trkpt lat="44.85428" lon="4.31934">
        <ele>1097</ele>
        <time>2016-07-11T09:31:03Z</time>
      </trkpt>
      <trkpt lat="44.85424" lon="4.31919">
        <ele>1096.52</ele>
        <time>2016-07-11T09:31:14Z</time>
      </trkpt>
      <trkpt lat="44.85418" lon="4.31892">
        <ele>1096.04</ele>
        <time>2016-07-11T09:31:31Z</time>
      </trkpt>
      <trkpt lat="44.8541" lon="4.31872">
        <ele>1097</ele>
        <time>2016-07-11T09:31:47Z</time>
      </trkpt>
      <trkpt lat="44.85405" lon="4.31868">
        <ele>1097.96</ele>
        <time>2016-07-11T09:32:03Z</time>
      </trkpt>
      <trkpt lat="44.85405" lon="4.31868">
        <ele>1097.48</ele>
        <time>2016-07-11T09:32:27Z</time>
      </trkpt>
      <trkpt lat="44.85405" lon="4.31868">
        <ele>1097.48</ele>
        <time>2016-07-11T09:33:01Z</time>
      </trkpt>
      <trkpt lat="44.854" lon="4.31857">
        <ele>1097.96</ele>
        <time>2016-07-11T09:33:29Z</time>
      </trkpt>
      <trkpt lat="44.85396" lon="4.31852">
        <ele>1097.48</ele>
        <time>2016-07-11T09:33:41Z</time>
      </trkpt>
      <trkpt lat="44.85395" lon="4.31841">
        <ele>1096.04</ele>
        <time>2016-07-11T09:33:58Z</time>
      </trkpt>
      <trkpt lat="44.85393" lon="4.31824">
        <ele>1092.68</ele>
        <time>2016-07-11T09:34:13Z</time>
      </trkpt>
      <trkpt lat="44.85393" lon="4.31807">
        <ele>1091.23</ele>
        <time>2016-07-11T09:34:28Z</time>
      </trkpt>
      <trkpt lat="44.85394" lon="4.31795">
        <ele>1088.83</ele>
        <time>2016-07-11T09:34:42Z</time>
      </trkpt>
      <trkpt lat="44.85393" lon="4.31785">
        <ele>1090.27</ele>
        <time>2016-07-11T09:34:58Z</time>
      </trkpt>
      <trkpt lat="44.85394" lon="4.31793">
        <ele>1090.75</ele>
        <time>2016-07-11T09:35:18Z</time>
      </trkpt>
      <trkpt lat="44.85394" lon="4.31811">
        <ele>1091.71</ele>
        <time>2016-07-11T09:35:34Z</time>
      </trkpt>
      <trkpt lat="44.85396" lon="4.31825">
        <ele>1093.16</ele>
        <time>2016-07-11T09:35:45Z</time>
      </trkpt>
      <trkpt lat="44.85396" lon="4.31827">
        <ele>1093.16</ele>
        <time>2016-07-11T09:35:47Z</time>
      </trkpt>
      <trkpt lat="44.85397" lon="4.31847">
        <ele>1093.64</ele>
        <time>2016-07-11T09:36:02Z</time>
      </trkpt>
      <trkpt lat="44.85405" lon="4.31865">
        <ele>1094.6</ele>
        <time>2016-07-11T09:36:18Z</time>
      </trkpt>
      <trkpt lat="44.8541" lon="4.31861">
        <ele>1094.12</ele>
        <time>2016-07-11T09:36:32Z</time>
      </trkpt>
      <trkpt lat="44.85409" lon="4.31842">
        <ele>1094.12</ele>
        <time>2016-07-11T09:36:48Z</time>
      </trkpt>
      <trkpt lat="44.85411" lon="4.31826">
        <ele>1095.56</ele>
        <time>2016-07-11T09:37:02Z</time>
      </trkpt>
      <trkpt lat="44.8541" lon="4.31823">
        <ele>1095.56</ele>
        <time>2016-07-11T09:37:04Z</time>
      </trkpt>
      <trkpt lat="44.85411" lon="4.31805">
        <ele>1097</ele>
        <time>2016-07-11T09:37:17Z</time>
      </trkpt>
      <trkpt lat="44.85411" lon="4.31786">
        <ele>1098.44</ele>
        <time>2016-07-11T09:37:31Z</time>
      </trkpt>
      <trkpt lat="44.85411" lon="4.31774">
        <ele>1100.37</ele>
        <time>2016-07-11T09:37:39Z</time>
      </trkpt>
      <trkpt lat="44.8541" lon="4.31763">
        <ele>1101.33</ele>
        <time>2016-07-11T09:37:47Z</time>
      </trkpt>
      <trkpt lat="44.85406" lon="4.31747">
        <ele>1101.81</ele>
        <time>2016-07-11T09:38:03Z</time>
      </trkpt>
      <trkpt lat="44.8541" lon="4.31744">
        <ele>1101.33</ele>
        <time>2016-07-11T09:38:16Z</time>
      </trkpt>
      <trkpt lat="44.8541" lon="4.31745">
        <ele>1101.81</ele>
        <time>2016-07-11T09:38:42Z</time>
      </trkpt>
      <trkpt lat="44.8541" lon="4.31745">
        <ele>1102.29</ele>
        <time>2016-07-11T09:39:11Z</time>
      </trkpt>
      <trkpt lat="44.8541" lon="4.31745">
        <ele>1102.29</ele>
        <time>2016-07-11T09:39:26Z</time>
      </trkpt>
      <trkpt lat="44.85409" lon="4.31742">
        <ele>1101.81</ele>
        <time>2016-07-11T09:39:45Z</time>
      </trkpt>
      <trkpt lat="44.85409" lon="4.31742">
        <ele>1101.81</ele>
        <time>2016-07-11T09:40:10Z</time>
      </trkpt>
      <trkpt lat="44.85408" lon="4.31736">
        <ele>1101.81</ele>
        <time>2016-07-11T09:40:15Z</time>
      </trkpt>
      <trkpt lat="44.85408" lon="4.31712">
        <ele>1099.89</ele>
        <time>2016-07-11T09:40:32Z</time>
      </trkpt>
      <trkpt lat="44.85407" lon="4.31705">
        <ele>1100.37</ele>
        <time>2016-07-11T09:40:38Z</time>
      </trkpt>
      <trkpt lat="44.85406" lon="4.31686">
        <ele>1099.4</ele>
        <time>2016-07-11T09:40:53Z</time>
      </trkpt>
      <trkpt lat="44.85405" lon="4.31675">
        <ele>1099.4</ele>
        <time>2016-07-11T09:41:02Z</time>
      </trkpt>
      <trkpt lat="44.85404" lon="4.31657">
        <ele>1099.89</ele>
        <time>2016-07-11T09:41:16Z</time>
      </trkpt>
      <trkpt lat="44.85404" lon="4.31648">
        <ele>1101.33</ele>
        <time>2016-07-11T09:41:27Z</time>
      </trkpt>
      <trkpt lat="44.85403" lon="4.31627">
        <ele>1102.29</ele>
        <time>2016-07-11T09:41:43Z</time>
      </trkpt>
      <trkpt lat="44.85396" lon="4.31615">
        <ele>1102.29</ele>
        <time>2016-07-11T09:41:55Z</time>
      </trkpt>
      <trkpt lat="44.85388" lon="4.31605">
        <ele>1104.69</ele>
        <time>2016-07-11T09:42:07Z</time>
      </trkpt>
      <trkpt lat="44.85379" lon="4.31591">
        <ele>1106.61</ele>
        <time>2016-07-11T09:42:21Z</time>
      </trkpt>
      <trkpt lat="44.85377" lon="4.31588">
        <ele>1106.61</ele>
        <time>2016-07-11T09:42:24Z</time>
      </trkpt>
      <trkpt lat="44.85375" lon="4.31586">
        <ele>1107.58</ele>
        <time>2016-07-11T09:42:42Z</time>
      </trkpt>
      <trkpt lat="44.85372" lon="4.3158">
        <ele>1109.02</ele>
        <time>2016-07-11T09:43:10Z</time>
      </trkpt>
      <trkpt lat="44.8537" lon="4.31575">
        <ele>1109.98</ele>
        <time>2016-07-11T09:43:14Z</time>
      </trkpt>
      <trkpt lat="44.85368" lon="4.31573">
        <ele>1110.46</ele>
        <time>2016-07-11T09:43:16Z</time>
      </trkpt>
      <trkpt lat="44.85361" lon="4.31562">
        <ele>1111.42</ele>
        <time>2016-07-11T09:43:28Z</time>
      </trkpt>
      <trkpt lat="44.8536" lon="4.31561">
        <ele>1111.42</ele>
        <time>2016-07-11T09:43:29Z</time>
      </trkpt>
      <trkpt lat="44.85352" lon="4.3155">
        <ele>1113.34</ele>
        <time>2016-07-11T09:43:41Z</time>
      </trkpt>
      <trkpt lat="44.85345" lon="4.31541">
        <ele>1114.31</ele>
        <time>2016-07-11T09:43:54Z</time>
      </trkpt>
      <trkpt lat="44.85336" lon="4.31535">
        <ele>1116.23</ele>
        <time>2016-07-11T09:44:07Z</time>
      </trkpt>
      <trkpt lat="44.85328" lon="4.31527">
        <ele>1118.15</ele>
        <time>2016-07-11T09:44:19Z</time>
      </trkpt>
      <trkpt lat="44.85322" lon="4.3152">
        <ele>1119.59</ele>
        <time>2016-07-11T09:44:30Z</time>
      </trkpt>
      <trkpt lat="44.85318" lon="4.31516">
        <ele>1119.59</ele>
        <time>2016-07-11T09:44:36Z</time>
      </trkpt>
      <trkpt lat="44.85312" lon="4.31506">
        <ele>1120.07</ele>
        <time>2016-07-11T09:44:46Z</time>
      </trkpt>
      <trkpt lat="44.85311" lon="4.31491">
        <ele>1122</ele>
        <time>2016-07-11T09:44:58Z</time>
      </trkpt>
      <trkpt lat="44.85312" lon="4.31478">
        <ele>1122.48</ele>
        <time>2016-07-11T09:45:08Z</time>
      </trkpt>
      <trkpt lat="44.85308" lon="4.31461">
        <ele>1124.4</ele>
        <time>2016-07-11T09:45:24Z</time>
      </trkpt>
      <trkpt lat="44.85303" lon="4.3145">
        <ele>1125.84</ele>
        <time>2016-07-11T09:45:37Z</time>
      </trkpt>
      <trkpt lat="44.85302" lon="4.3145">
        <ele>1126.32</ele>
        <time>2016-07-11T09:45:44Z</time>
      </trkpt>
      <trkpt lat="44.85299" lon="4.31431">
        <ele>1125.36</ele>
        <time>2016-07-11T09:45:59Z</time>
      </trkpt>
      <trkpt lat="44.85301" lon="4.31414">
        <ele>1125.84</ele>
        <time>2016-07-11T09:46:13Z</time>
      </trkpt>
      <trkpt lat="44.85304" lon="4.31404">
        <ele>1125.36</ele>
        <time>2016-07-11T09:46:30Z</time>
      </trkpt>
      <trkpt lat="44.85305" lon="4.31398">
        <ele>1124.88</ele>
        <time>2016-07-11T09:46:54Z</time>
      </trkpt>
      <trkpt lat="44.85308" lon="4.31383">
        <ele>1119.59</ele>
        <time>2016-07-11T09:47:10Z</time>
      </trkpt>
      <trkpt lat="44.85305" lon="4.31373">
        <ele>1115.75</ele>
        <time>2016-07-11T09:47:25Z</time>
      </trkpt>
      <trkpt lat="44.85302" lon="4.31363">
        <ele>1114.31</ele>
        <time>2016-07-11T09:47:41Z</time>
      </trkpt>
      <trkpt lat="44.85299" lon="4.31353">
        <ele>1113.82</ele>
        <time>2016-07-11T09:47:53Z</time>
      </trkpt>
      <trkpt lat="44.85295" lon="4.31341">
        <ele>1114.31</ele>
        <time>2016-07-11T09:48:06Z</time>
      </trkpt>
      <trkpt lat="44.85289" lon="4.31327">
        <ele>1112.86</ele>
        <time>2016-07-11T09:48:24Z</time>
      </trkpt>
      <trkpt lat="44.85286" lon="4.31319">
        <ele>1111.9</ele>
        <time>2016-07-11T09:48:37Z</time>
      </trkpt>
      <trkpt lat="44.85285" lon="4.31316">
        <ele>1111.42</ele>
        <time>2016-07-11T09:48:55Z</time>
      </trkpt>
      <trkpt lat="44.85285" lon="4.31309">
        <ele>1111.42</ele>
        <time>2016-07-11T09:49:13Z</time>
      </trkpt>
      <trkpt lat="44.85282" lon="4.31303">
        <ele>1110.94</ele>
        <time>2016-07-11T09:49:18Z</time>
      </trkpt>
      <trkpt lat="44.85279" lon="4.31286">
        <ele>1107.58</ele>
        <time>2016-07-11T09:49:32Z</time>
      </trkpt>
      <trkpt lat="44.85275" lon="4.31271">
        <ele>1106.61</ele>
        <time>2016-07-11T09:49:46Z</time>
      </trkpt>
      <trkpt lat="44.85272" lon="4.31258">
        <ele>1102.29</ele>
        <time>2016-07-11T09:50:01Z</time>
      </trkpt>
      <trkpt lat="44.85269" lon="4.31246">
        <ele>1100.85</ele>
        <time>2016-07-11T09:50:16Z</time>
      </trkpt>
      <trkpt lat="44.85266" lon="4.31237">
        <ele>1100.37</ele>
        <time>2016-07-11T09:50:29Z</time>
      </trkpt>
      <trkpt lat="44.85263" lon="4.31221">
        <ele>1099.4</ele>
        <time>2016-07-11T09:50:44Z</time>
      </trkpt>
      <trkpt lat="44.85259" lon="4.31206">
        <ele>1096.52</ele>
        <time>2016-07-11T09:51:01Z</time>
      </trkpt>
      <trkpt lat="44.8525" lon="4.31194">
        <ele>1094.12</ele>
        <time>2016-07-11T09:51:18Z</time>
      </trkpt>
      <trkpt lat="44.85244" lon="4.31182">
        <ele>1094.12</ele>
        <time>2016-07-11T09:51:31Z</time>
      </trkpt>
      <trkpt lat="44.85238" lon="4.31166">
        <ele>1093.64</ele>
        <time>2016-07-11T09:51:45Z</time>
      </trkpt>
      <trkpt lat="44.85235" lon="4.31147">
        <ele>1091.23</ele>
        <time>2016-07-11T09:52:01Z</time>
      </trkpt>
      <trkpt lat="44.85232" lon="4.3113">
        <ele>1086.91</ele>
        <time>2016-07-11T09:52:17Z</time>
      </trkpt>
      <trkpt lat="44.85228" lon="4.31121">
        <ele>1085.95</ele>
        <time>2016-07-11T09:52:29Z</time>
      </trkpt>
      <trkpt lat="44.85221" lon="4.3111">
        <ele>1085.95</ele>
        <time>2016-07-11T09:52:43Z</time>
      </trkpt>
      <trkpt lat="44.85215" lon="4.31096">
        <ele>1085.95</ele>
        <time>2016-07-11T09:52:57Z</time>
      </trkpt>
      <trkpt lat="44.85211" lon="4.31088">
        <ele>1084.5</ele>
        <time>2016-07-11T09:53:12Z</time>
      </trkpt>
      <trkpt lat="44.85209" lon="4.31083">
        <ele>1084.02</ele>
        <time>2016-07-11T09:53:25Z</time>
      </trkpt>
      <trkpt lat="44.85212" lon="4.31078">
        <ele>1082.58</ele>
        <time>2016-07-11T09:53:39Z</time>
      </trkpt>
      <trkpt lat="44.85215" lon="4.3107">
        <ele>1082.1</ele>
        <time>2016-07-11T09:53:52Z</time>
      </trkpt>
      <trkpt lat="44.85204" lon="4.31069">
        <ele>1078.26</ele>
        <time>2016-07-11T09:54:12Z</time>
      </trkpt>
      <trkpt lat="44.85195" lon="4.31068">
        <ele>1074.41</ele>
        <time>2016-07-11T09:54:30Z</time>
      </trkpt>
      <trkpt lat="44.85185" lon="4.31069">
        <ele>1072.01</ele>
        <time>2016-07-11T09:54:46Z</time>
      </trkpt>
      <trkpt lat="44.85176" lon="4.31072">
        <ele>1070.57</ele>
        <time>2016-07-11T09:55:02Z</time>
      </trkpt>
      <trkpt lat="44.85166" lon="4.31073">
        <ele>1068.64</ele>
        <time>2016-07-11T09:55:17Z</time>
      </trkpt>
      <trkpt lat="44.85161" lon="4.31074">
        <ele>1067.2</ele>
        <time>2016-07-11T09:55:30Z</time>
      </trkpt>
      <trkpt lat="44.85157" lon="4.31075">
        <ele>1066.24</ele>
        <time>2016-07-11T09:55:42Z</time>
      </trkpt>
      <trkpt lat="44.85152" lon="4.31083">
        <ele>1064.32</ele>
        <time>2016-07-11T09:55:58Z</time>
      </trkpt>
      <trkpt lat="44.85148" lon="4.31088">
        <ele>1062.39</ele>
        <time>2016-07-11T09:56:12Z</time>
      </trkpt>
      <trkpt lat="44.85146" lon="4.31088">
        <ele>1062.87</ele>
        <time>2016-07-11T09:56:32Z</time>
      </trkpt>
      <trkpt lat="44.85143" lon="4.31082">
        <ele>1061.91</ele>
        <time>2016-07-11T09:56:45Z</time>
      </trkpt>
      <trkpt lat="44.85139" lon="4.31073">
        <ele>1061.43</ele>
        <time>2016-07-11T09:56:57Z</time>
      </trkpt>
      <trkpt lat="44.85137" lon="4.31067">
        <ele>1060.95</ele>
        <time>2016-07-11T09:57:13Z</time>
      </trkpt>
      <trkpt lat="44.85133" lon="4.31058">
        <ele>1059.03</ele>
        <time>2016-07-11T09:57:25Z</time>
      </trkpt>
      <trkpt lat="44.85125" lon="4.31061">
        <ele>1055.67</ele>
        <time>2016-07-11T09:57:41Z</time>
      </trkpt>
      <trkpt lat="44.85121" lon="4.31069">
        <ele>1053.26</ele>
        <time>2016-07-11T09:57:55Z</time>
      </trkpt>
      <trkpt lat="44.85118" lon="4.31077">
        <ele>1051.82</ele>
        <time>2016-07-11T09:58:09Z</time>
      </trkpt>
      <trkpt lat="44.85114" lon="4.31076">
        <ele>1050.86</ele>
        <time>2016-07-11T09:58:27Z</time>
      </trkpt>
      <trkpt lat="44.85112" lon="4.31071">
        <ele>1051.82</ele>
        <time>2016-07-11T09:58:44Z</time>
      </trkpt>
      <trkpt lat="44.85109" lon="4.31061">
        <ele>1051.34</ele>
        <time>2016-07-11T09:58:59Z</time>
      </trkpt>
      <trkpt lat="44.85107" lon="4.31066">
        <ele>1050.86</ele>
        <time>2016-07-11T09:59:14Z</time>
      </trkpt>
      <trkpt lat="44.85104" lon="4.31073">
        <ele>1049.9</ele>
        <time>2016-07-11T09:59:26Z</time>
      </trkpt>
      <trkpt lat="44.85102" lon="4.31077">
        <ele>1047.49</ele>
        <time>2016-07-11T09:59:40Z</time>
      </trkpt>
      <trkpt lat="44.85099" lon="4.31073">
        <ele>1046.53</ele>
        <time>2016-07-11T09:59:59Z</time>
      </trkpt>
      <trkpt lat="44.85097" lon="4.31066">
        <ele>1046.05</ele>
        <time>2016-07-11T10:00:10Z</time>
      </trkpt>
      <trkpt lat="44.85094" lon="4.3106">
        <ele>1045.57</ele>
        <time>2016-07-11T10:00:26Z</time>
      </trkpt>
      <trkpt lat="44.85093" lon="4.31052">
        <ele>1044.13</ele>
        <time>2016-07-11T10:00:47Z</time>
      </trkpt>
      <trkpt lat="44.85091" lon="4.31042">
        <ele>1041.73</ele>
        <time>2016-07-11T10:01:01Z</time>
      </trkpt>
      <trkpt lat="44.85089" lon="4.31032">
        <ele>1039.8</ele>
        <time>2016-07-11T10:01:14Z</time>
      </trkpt>
      <trkpt lat="44.85088" lon="4.31025">
        <ele>1037.88</ele>
        <time>2016-07-11T10:01:27Z</time>
      </trkpt>
      <trkpt lat="44.85086" lon="4.31031">
        <ele>1036.44</ele>
        <time>2016-07-11T10:01:40Z</time>
      </trkpt>
      <trkpt lat="44.8508" lon="4.31028">
        <ele>1033.55</ele>
        <time>2016-07-11T10:01:53Z</time>
      </trkpt>
      <trkpt lat="44.8508" lon="4.31015">
        <ele>1033.07</ele>
        <time>2016-07-11T10:02:10Z</time>
      </trkpt>
      <trkpt lat="44.8508" lon="4.31004">
        <ele>1030.67</ele>
        <time>2016-07-11T10:02:23Z</time>
      </trkpt>
      <trkpt lat="44.85081" lon="4.30994">
        <ele>1029.23</ele>
        <time>2016-07-11T10:02:45Z</time>
      </trkpt>
      <trkpt lat="44.85082" lon="4.30984">
        <ele>1028.75</ele>
        <time>2016-07-11T10:03:01Z</time>
      </trkpt>
      <trkpt lat="44.85085" lon="4.30975">
        <ele>1026.34</ele>
        <time>2016-07-11T10:03:17Z</time>
      </trkpt>
      <trkpt lat="44.85087" lon="4.30959">
        <ele>1024.42</ele>
        <time>2016-07-11T10:03:34Z</time>
      </trkpt>
      <trkpt lat="44.85085" lon="4.30953">
        <ele>1023.94</ele>
        <time>2016-07-11T10:03:49Z</time>
      </trkpt>
      <trkpt lat="44.85081" lon="4.30946">
        <ele>1021.54</ele>
        <time>2016-07-11T10:04:06Z</time>
      </trkpt>
      <trkpt lat="44.85077" lon="4.30937">
        <ele>1020.1</ele>
        <time>2016-07-11T10:04:22Z</time>
      </trkpt>
      <trkpt lat="44.85074" lon="4.30931">
        <ele>1020.1</ele>
        <time>2016-07-11T10:04:36Z</time>
      </trkpt>
      <trkpt lat="44.8507" lon="4.30926">
        <ele>1019.62</ele>
        <time>2016-07-11T10:04:50Z</time>
      </trkpt>
      <trkpt lat="44.85066" lon="4.30914">
        <ele>1017.69</ele>
        <time>2016-07-11T10:05:06Z</time>
      </trkpt>
      <trkpt lat="44.85064" lon="4.30903">
        <ele>1015.29</ele>
        <time>2016-07-11T10:05:21Z</time>
      </trkpt>
      <trkpt lat="44.8506" lon="4.30892">
        <ele>1012.89</ele>
        <time>2016-07-11T10:05:34Z</time>
      </trkpt>
      <trkpt lat="44.85058" lon="4.30885">
        <ele>1011.44</ele>
        <time>2016-07-11T10:05:49Z</time>
      </trkpt>
      <trkpt lat="44.85055" lon="4.30876">
        <ele>1010</ele>
        <time>2016-07-11T10:06:03Z</time>
      </trkpt>
      <trkpt lat="44.8505" lon="4.30877">
        <ele>1010</ele>
        <time>2016-07-11T10:06:16Z</time>
      </trkpt>
      <trkpt lat="44.85046" lon="4.3088">
        <ele>1009.04</ele>
        <time>2016-07-11T10:06:28Z</time>
      </trkpt>
      <trkpt lat="44.85044" lon="4.30881">
        <ele>1008.56</ele>
        <time>2016-07-11T10:06:42Z</time>
      </trkpt>
      <trkpt lat="44.85041" lon="4.30879">
        <ele>1006.64</ele>
        <time>2016-07-11T10:06:56Z</time>
      </trkpt>
      <trkpt lat="44.85044" lon="4.30868">
        <ele>1005.2</ele>
        <time>2016-07-11T10:07:09Z</time>
      </trkpt>
      <trkpt lat="44.85044" lon="4.30867">
        <ele>1005.2</ele>
        <time>2016-07-11T10:07:11Z</time>
      </trkpt>
      <trkpt lat="44.85041" lon="4.30856">
        <ele>1005.68</ele>
        <time>2016-07-11T10:07:24Z</time>
      </trkpt>
      <trkpt lat="44.85037" lon="4.30844">
        <ele>1008.08</ele>
        <time>2016-07-11T10:07:39Z</time>
      </trkpt>
      <trkpt lat="44.85036" lon="4.30839">
        <ele>1009.52</ele>
        <time>2016-07-11T10:07:44Z</time>
      </trkpt>
      <trkpt lat="44.85033" lon="4.30831">
        <ele>1009.04</ele>
        <time>2016-07-11T10:07:51Z</time>
      </trkpt>
      <trkpt lat="44.85029" lon="4.30817">
        <ele>1010</ele>
        <time>2016-07-11T10:08:05Z</time>
      </trkpt>
      <trkpt lat="44.85026" lon="4.30801">
        <ele>1008.56</ele>
        <time>2016-07-11T10:08:18Z</time>
      </trkpt>
      <trkpt lat="44.85024" lon="4.30785">
        <ele>1009.52</ele>
        <time>2016-07-11T10:08:32Z</time>
      </trkpt>
      <trkpt lat="44.85023" lon="4.30767">
        <ele>1009.04</ele>
        <time>2016-07-11T10:08:46Z</time>
      </trkpt>
      <trkpt lat="44.85022" lon="4.30756">
        <ele>1009.04</ele>
        <time>2016-07-11T10:08:55Z</time>
      </trkpt>
      <trkpt lat="44.85019" lon="4.30737">
        <ele>1008.56</ele>
        <time>2016-07-11T10:09:09Z</time>
      </trkpt>
      <trkpt lat="44.85019" lon="4.30717">
        <ele>1010.48</ele>
        <time>2016-07-11T10:09:25Z</time>
      </trkpt>
      <trkpt lat="44.85024" lon="4.307">
        <ele>1010.48</ele>
        <time>2016-07-11T10:09:39Z</time>
      </trkpt>
      <trkpt lat="44.85026" lon="4.30689">
        <ele>1011.93</ele>
        <time>2016-07-11T10:09:53Z</time>
      </trkpt>
      <trkpt lat="44.85027" lon="4.30685">
        <ele>1011.44</ele>
        <time>2016-07-11T10:10:06Z</time>
      </trkpt>
      <trkpt lat="44.85026" lon="4.30686">
        <ele>1010.48</ele>
        <time>2016-07-11T10:10:22Z</time>
      </trkpt>
      <trkpt lat="44.85025" lon="4.30686">
        <ele>1010</ele>
        <time>2016-07-11T10:10:38Z</time>
      </trkpt>
      <trkpt lat="44.85025" lon="4.30687">
        <ele>1010.48</ele>
        <time>2016-07-11T10:10:59Z</time>
      </trkpt>
      <trkpt lat="44.85025" lon="4.30687">
        <ele>1010.48</ele>
        <time>2016-07-11T10:11:16Z</time>
      </trkpt>
      <trkpt lat="44.85025" lon="4.30688">
        <ele>1010.96</ele>
        <time>2016-07-11T10:11:37Z</time>
      </trkpt>
      <trkpt lat="44.85027" lon="4.30691">
        <ele>1010.96</ele>
        <time>2016-07-11T10:11:50Z</time>
      </trkpt>
      <trkpt lat="44.85027" lon="4.30691">
        <ele>1011.44</ele>
        <time>2016-07-11T10:12:17Z</time>
      </trkpt>
      <trkpt lat="44.85027" lon="4.30691">
        <ele>1011.44</ele>
        <time>2016-07-11T10:12:36Z</time>
      </trkpt>
      <trkpt lat="44.85026" lon="4.30693">
        <ele>1010.96</ele>
        <time>2016-07-11T10:12:56Z</time>
      </trkpt>
      <trkpt lat="44.85026" lon="4.30694">
        <ele>1010.96</ele>
        <time>2016-07-11T10:13:28Z</time>
      </trkpt>
      <trkpt lat="44.85026" lon="4.30694">
        <ele>1011.44</ele>
        <time>2016-07-11T10:14:04Z</time>
      </trkpt>
      <trkpt lat="44.85026" lon="4.30693">
        <ele>1011.93</ele>
        <time>2016-07-11T10:14:37Z</time>
      </trkpt>
      <trkpt lat="44.85025" lon="4.30692">
        <ele>1013.37</ele>
        <time>2016-07-11T10:15:15Z</time>
      </trkpt>
      <trkpt lat="44.85025" lon="4.30692">
        <ele>1013.37</ele>
        <time>2016-07-11T10:15:49Z</time>
      </trkpt>
      <trkpt lat="44.85026" lon="4.30692">
        <ele>1012.41</ele>
        <time>2016-07-11T10:16:16Z</time>
      </trkpt>
      <trkpt lat="44.85026" lon="4.30693">
        <ele>1011.93</ele>
        <time>2016-07-11T10:16:45Z</time>
      </trkpt>
      <trkpt lat="44.85026" lon="4.30694">
        <ele>1011.44</ele>
        <time>2016-07-11T10:17:15Z</time>
      </trkpt>
      <trkpt lat="44.85026" lon="4.30693">
        <ele>1011.44</ele>
        <time>2016-07-11T10:17:50Z</time>
      </trkpt>
      <trkpt lat="44.85026" lon="4.30694">
        <ele>1011.44</ele>
        <time>2016-07-11T10:18:17Z</time>
      </trkpt>
      <trkpt lat="44.85026" lon="4.30693">
        <ele>1011.93</ele>
        <time>2016-07-11T10:18:44Z</time>
      </trkpt>
      <trkpt lat="44.85026" lon="4.30693">
        <ele>1011.93</ele>
        <time>2016-07-11T10:19:20Z</time>
      </trkpt>
      <trkpt lat="44.85026" lon="4.30693">
        <ele>1011.93</ele>
        <time>2016-07-11T10:19:51Z</time>
      </trkpt>
      <trkpt lat="44.85026" lon="4.30693">
        <ele>1011.44</ele>
        <time>2016-07-11T10:20:20Z</time>
      </trkpt>
      <trkpt lat="44.85026" lon="4.30693">
        <ele>1011.44</ele>
        <time>2016-07-11T10:20:45Z</time>
      </trkpt>
      <trkpt lat="44.85026" lon="4.30692">
        <ele>1011.44</ele>
        <time>2016-07-11T10:21:14Z</time>
      </trkpt>
      <trkpt lat="44.85025" lon="4.30692">
        <ele>1011.44</ele>
        <time>2016-07-11T10:21:43Z</time>
      </trkpt>
      <trkpt lat="44.85025" lon="4.30692">
        <ele>1011.44</ele>
        <time>2016-07-11T10:22:10Z</time>
      </trkpt>
      <trkpt lat="44.85025" lon="4.30693">
        <ele>1011.44</ele>
        <time>2016-07-11T10:22:35Z</time>
      </trkpt>
      <trkpt lat="44.85025" lon="4.30692">
        <ele>1011.93</ele>
        <time>2016-07-11T10:23:05Z</time>
      </trkpt>
      <trkpt lat="44.85025" lon="4.30693">
        <ele>1011.93</ele>
        <time>2016-07-11T10:23:35Z</time>
      </trkpt>
      <trkpt lat="44.85025" lon="4.30693">
        <ele>1010.96</ele>
        <time>2016-07-11T10:24:03Z</time>
      </trkpt>
      <trkpt lat="44.85025" lon="4.30693">
        <ele>1010.96</ele>
        <time>2016-07-11T10:24:31Z</time>
      </trkpt>
      <trkpt lat="44.85024" lon="4.30692">
        <ele>1010.48</ele>
        <time>2016-07-11T10:24:56Z</time>
      </trkpt>
      <trkpt lat="44.85024" lon="4.30692">
        <ele>1010.96</ele>
        <time>2016-07-11T10:25:31Z</time>
      </trkpt>
      <trkpt lat="44.85025" lon="4.30692">
        <ele>1012.41</ele>
        <time>2016-07-11T10:26:01Z</time>
      </trkpt>
      <trkpt lat="44.85025" lon="4.30692">
        <ele>1012.89</ele>
        <time>2016-07-11T10:26:24Z</time>
      </trkpt>
      <trkpt lat="44.85025" lon="4.30693">
        <ele>1012.89</ele>
        <time>2016-07-11T10:26:47Z</time>
      </trkpt>
      <trkpt lat="44.85025" lon="4.30693">
        <ele>1012.89</ele>
        <time>2016-07-11T10:27:13Z</time>
      </trkpt>
      <trkpt lat="44.85025" lon="4.30693">
        <ele>1013.85</ele>
        <time>2016-07-11T10:27:33Z</time>
      </trkpt>
      <trkpt lat="44.85025" lon="4.30693">
        <ele>1013.85</ele>
        <time>2016-07-11T10:27:55Z</time>
      </trkpt>
      <trkpt lat="44.85023" lon="4.30692">
        <ele>1013.85</ele>
        <time>2016-07-11T10:28:19Z</time>
      </trkpt>
      <trkpt lat="44.85021" lon="4.30691">
        <ele>1013.85</ele>
        <time>2016-07-11T10:28:50Z</time>
      </trkpt>
      <trkpt lat="44.85026" lon="4.30688">
        <ele>1015.29</ele>
        <time>2016-07-11T10:29:13Z</time>
      </trkpt>
      <trkpt lat="44.85026" lon="4.30692">
        <ele>1017.69</ele>
        <time>2016-07-11T10:29:41Z</time>
      </trkpt>
      <trkpt lat="44.85027" lon="4.30694">
        <ele>1017.21</ele>
        <time>2016-07-11T10:30:09Z</time>
      </trkpt>
      <trkpt lat="44.85026" lon="4.30694">
        <ele>1016.73</ele>
        <time>2016-07-11T10:30:24Z</time>
      </trkpt>
      <trkpt lat="44.85026" lon="4.30694">
        <ele>1016.73</ele>
        <time>2016-07-11T10:30:47Z</time>
      </trkpt>
      <trkpt lat="44.85026" lon="4.30694">
        <ele>1016.25</ele>
        <time>2016-07-11T10:31:15Z</time>
      </trkpt>
      <trkpt lat="44.85025" lon="4.30694">
        <ele>1015.77</ele>
        <time>2016-07-11T10:31:39Z</time>
      </trkpt>
      <trkpt lat="44.85025" lon="4.30694">
        <ele>1015.29</ele>
        <time>2016-07-11T10:32:04Z</time>
      </trkpt>
      <trkpt lat="44.85024" lon="4.30694">
        <ele>1015.29</ele>
        <time>2016-07-11T10:32:29Z</time>
      </trkpt>
      <trkpt lat="44.85024" lon="4.30695">
        <ele>1014.81</ele>
        <time>2016-07-11T10:33:00Z</time>
      </trkpt>
      <trkpt lat="44.85024" lon="4.30694">
        <ele>1014.33</ele>
        <time>2016-07-11T10:33:22Z</time>
      </trkpt>
      <trkpt lat="44.85024" lon="4.30695">
        <ele>1014.33</ele>
        <time>2016-07-11T10:33:45Z</time>
      </trkpt>
      <trkpt lat="44.85024" lon="4.30694">
        <ele>1014.33</ele>
        <time>2016-07-11T10:34:11Z</time>
      </trkpt>
      <trkpt lat="44.85024" lon="4.30694">
        <ele>1014.33</ele>
        <time>2016-07-11T10:34:35Z</time>
      </trkpt>
      <trkpt lat="44.85025" lon="4.30694">
        <ele>1014.33</ele>
        <time>2016-07-11T10:34:58Z</time>
      </trkpt>
      <trkpt lat="44.85024" lon="4.30694">
        <ele>1013.85</ele>
        <time>2016-07-11T10:35:24Z</time>
      </trkpt>
      <trkpt lat="44.85025" lon="4.30694">
        <ele>1014.33</ele>
        <time>2016-07-11T10:35:46Z</time>
      </trkpt>
      <trkpt lat="44.85024" lon="4.30694">
        <ele>1014.33</ele>
        <time>2016-07-11T10:36:11Z</time>
      </trkpt>
      <trkpt lat="44.85024" lon="4.30694">
        <ele>1013.85</ele>
        <time>2016-07-11T10:36:33Z</time>
      </trkpt>
      <trkpt lat="44.85024" lon="4.30694">
        <ele>1013.85</ele>
        <time>2016-07-11T10:37:05Z</time>
      </trkpt>
      <trkpt lat="44.85024" lon="4.30694">
        <ele>1013.85</ele>
        <time>2016-07-11T10:37:24Z</time>
      </trkpt>
      <trkpt lat="44.85024" lon="4.30693">
        <ele>1013.85</ele>
        <time>2016-07-11T10:37:46Z</time>
      </trkpt>
      <trkpt lat="44.85024" lon="4.30693">
        <ele>1013.85</ele>
        <time>2016-07-11T10:38:08Z</time>
      </trkpt>
      <trkpt lat="44.85023" lon="4.30693">
        <ele>1013.37</ele>
        <time>2016-07-11T10:38:32Z</time>
      </trkpt>
      <trkpt lat="44.85023" lon="4.30693">
        <ele>1013.37</ele>
        <time>2016-07-11T10:38:53Z</time>
      </trkpt>
      <trkpt lat="44.85023" lon="4.30694">
        <ele>1013.37</ele>
        <time>2016-07-11T10:39:14Z</time>
      </trkpt>
      <trkpt lat="44.85023" lon="4.30693">
        <ele>1012.89</ele>
        <time>2016-07-11T10:39:36Z</time>
      </trkpt>
      <trkpt lat="44.85023" lon="4.30693">
        <ele>1012.89</ele>
        <time>2016-07-11T10:40:06Z</time>
      </trkpt>
      <trkpt lat="44.85023" lon="4.30693">
        <ele>1012.89</ele>
        <time>2016-07-11T10:40:28Z</time>
      </trkpt>
      <trkpt lat="44.85023" lon="4.30693">
        <ele>1012.41</ele>
        <time>2016-07-11T10:40:51Z</time>
      </trkpt>
      <trkpt lat="44.85023" lon="4.30692">
        <ele>1011.93</ele>
        <time>2016-07-11T10:41:16Z</time>
      </trkpt>
      <trkpt lat="44.85023" lon="4.30692">
        <ele>1011.93</ele>
        <time>2016-07-11T10:41:39Z</time>
      </trkpt>
      <trkpt lat="44.85023" lon="4.30692">
        <ele>1011.44</ele>
        <time>2016-07-11T10:42:01Z</time>
      </trkpt>
      <trkpt lat="44.85022" lon="4.30692">
        <ele>1011.44</ele>
        <time>2016-07-11T10:42:25Z</time>
      </trkpt>
      <trkpt lat="44.85022" lon="4.30692">
        <ele>1011.44</ele>
        <time>2016-07-11T10:42:50Z</time>
      </trkpt>
      <trkpt lat="44.85022" lon="4.30692">
        <ele>1010.96</ele>
        <time>2016-07-11T10:43:13Z</time>
      </trkpt>
      <trkpt lat="44.85021" lon="4.30692">
        <ele>1010.96</ele>
        <time>2016-07-11T10:43:36Z</time>
      </trkpt>
      <trkpt lat="44.85021" lon="4.30692">
        <ele>1010.96</ele>
        <time>2016-07-11T10:44:00Z</time>
      </trkpt>
      <trkpt lat="44.85021" lon="4.30692">
        <ele>1010.96</ele>
        <time>2016-07-11T10:44:25Z</time>
      </trkpt>
      <trkpt lat="44.85021" lon="4.30693">
        <ele>1010.96</ele>
        <time>2016-07-11T10:44:48Z</time>
      </trkpt>
      <trkpt lat="44.85021" lon="4.30693">
        <ele>1010.96</ele>
        <time>2016-07-11T10:45:10Z</time>
      </trkpt>
      <trkpt lat="44.85021" lon="4.30693">
        <ele>1010.96</ele>
        <time>2016-07-11T10:45:33Z</time>
      </trkpt>
      <trkpt lat="44.85021" lon="4.30692">
        <ele>1011.44</ele>
        <time>2016-07-11T10:45:58Z</time>
      </trkpt>
      <trkpt lat="44.85021" lon="4.30693">
        <ele>1011.44</ele>
        <time>2016-07-11T10:46:22Z</time>
      </trkpt>
      <trkpt lat="44.85021" lon="4.30693">
        <ele>1011.44</ele>
        <time>2016-07-11T10:46:45Z</time>
      </trkpt>
      <trkpt lat="44.85022" lon="4.30693">
        <ele>1011.44</ele>
        <time>2016-07-11T10:47:17Z</time>
      </trkpt>
      <trkpt lat="44.85022" lon="4.30693">
        <ele>1010.96</ele>
        <time>2016-07-11T10:47:41Z</time>
      </trkpt>
      <trkpt lat="44.85022" lon="4.30693">
        <ele>1010.96</ele>
        <time>2016-07-11T10:48:02Z</time>
      </trkpt>
      <trkpt lat="44.85022" lon="4.30694">
        <ele>1011.44</ele>
        <time>2016-07-11T10:48:28Z</time>
      </trkpt>
      <trkpt lat="44.85022" lon="4.30694">
        <ele>1011.44</ele>
        <time>2016-07-11T10:48:49Z</time>
      </trkpt>
      <trkpt lat="44.85022" lon="4.30694">
        <ele>1011.44</ele>
        <time>2016-07-11T10:49:14Z</time>
      </trkpt>
      <trkpt lat="44.85022" lon="4.30694">
        <ele>1010.96</ele>
        <time>2016-07-11T10:49:37Z</time>
      </trkpt>
      <trkpt lat="44.85022" lon="4.30694">
        <ele>1010.96</ele>
        <time>2016-07-11T10:50:10Z</time>
      </trkpt>
      <trkpt lat="44.85022" lon="4.30694">
        <ele>1010.96</ele>
        <time>2016-07-11T10:50:33Z</time>
      </trkpt>
      <trkpt lat="44.85022" lon="4.30693">
        <ele>1010.96</ele>
        <time>2016-07-11T10:51:00Z</time>
      </trkpt>
      <trkpt lat="44.85022" lon="4.30693">
        <ele>1010.48</ele>
        <time>2016-07-11T10:51:31Z</time>
      </trkpt>
      <trkpt lat="44.85022" lon="4.30693">
        <ele>1010</ele>
        <time>2016-07-11T10:52:01Z</time>
      </trkpt>
      <trkpt lat="44.85022" lon="4.30693">
        <ele>1010</ele>
        <time>2016-07-11T10:52:32Z</time>
      </trkpt>
      <trkpt lat="44.85023" lon="4.30692">
        <ele>1009.52</ele>
        <time>2016-07-11T10:53:06Z</time>
      </trkpt>
      <trkpt lat="44.85023" lon="4.30692">
        <ele>1010</ele>
        <time>2016-07-11T10:53:33Z</time>
      </trkpt>
      <trkpt lat="44.85026" lon="4.3069">
        <ele>1009.04</ele>
        <time>2016-07-11T10:53:49Z</time>
      </trkpt>
      <trkpt lat="44.85025" lon="4.3069">
        <ele>1008.56</ele>
        <time>2016-07-11T10:54:25Z</time>
      </trkpt>
      <trkpt lat="44.85023" lon="4.30689">
        <ele>1008.08</ele>
        <time>2016-07-11T10:54:56Z</time>
      </trkpt>
      <trkpt lat="44.85022" lon="4.30688">
        <ele>1008.56</ele>
        <time>2016-07-11T10:55:27Z</time>
      </trkpt>
      <trkpt lat="44.85021" lon="4.30689">
        <ele>1009.52</ele>
        <time>2016-07-11T10:55:44Z</time>
      </trkpt>
      <trkpt lat="44.85024" lon="4.30689">
        <ele>1011.44</ele>
        <time>2016-07-11T10:56:08Z</time>
      </trkpt>
      <trkpt lat="44.85023" lon="4.30689">
        <ele>1010.96</ele>
        <time>2016-07-11T10:56:22Z</time>
      </trkpt>
      <trkpt lat="44.85024" lon="4.30689">
        <ele>1011.44</ele>
        <time>2016-07-11T10:56:40Z</time>
      </trkpt>
      <trkpt lat="44.85025" lon="4.30685">
        <ele>1010.96</ele>
        <time>2016-07-11T10:57:01Z</time>
      </trkpt>
      <trkpt lat="44.85023" lon="4.30685">
        <ele>1010.96</ele>
        <time>2016-07-11T10:57:20Z</time>
      </trkpt>
      <trkpt lat="44.85023" lon="4.30678">
        <ele>1011.93</ele>
        <time>2016-07-11T10:57:37Z</time>
      </trkpt>
      <trkpt lat="44.85026" lon="4.3067">
        <ele>1012.41</ele>
        <time>2016-07-11T10:57:55Z</time>
      </trkpt>
      <trkpt lat="44.85027" lon="4.30654">
        <ele>1014.33</ele>
        <time>2016-07-11T10:58:10Z</time>
      </trkpt>
      <trkpt lat="44.85029" lon="4.30639">
        <ele>1013.37</ele>
        <time>2016-07-11T10:58:29Z</time>
      </trkpt>
      <trkpt lat="44.85031" lon="4.30619">
        <ele>1015.29</ele>
        <time>2016-07-11T10:58:44Z</time>
      </trkpt>
      <trkpt lat="44.8503" lon="4.30599">
        <ele>1014.81</ele>
        <time>2016-07-11T10:59:02Z</time>
      </trkpt>
      <trkpt lat="44.85032" lon="4.30585">
        <ele>1017.21</ele>
        <time>2016-07-11T10:59:16Z</time>
      </trkpt>
      <trkpt lat="44.85034" lon="4.30581">
        <ele>1017.69</ele>
        <time>2016-07-11T10:59:38Z</time>
      </trkpt>
      <trkpt lat="44.85032" lon="4.30578">
        <ele>1018.17</ele>
        <time>2016-07-11T10:59:50Z</time>
      </trkpt>
      <trkpt lat="44.85027" lon="4.30569">
        <ele>1019.13</ele>
        <time>2016-07-11T11:00:06Z</time>
      </trkpt>
      <trkpt lat="44.85026" lon="4.30557">
        <ele>1024.9</ele>
        <time>2016-07-11T11:00:25Z</time>
      </trkpt>
      <trkpt lat="44.85024" lon="4.30543">
        <ele>1025.86</ele>
        <time>2016-07-11T11:00:42Z</time>
      </trkpt>
      <trkpt lat="44.85025" lon="4.30529">
        <ele>1026.34</ele>
        <time>2016-07-11T11:00:53Z</time>
      </trkpt>
      <trkpt lat="44.85018" lon="4.30506">
        <ele>1027.31</ele>
        <time>2016-07-11T11:01:08Z</time>
      </trkpt>
      <trkpt lat="44.85018" lon="4.30492">
        <ele>1029.23</ele>
        <time>2016-07-11T11:01:20Z</time>
      </trkpt>
      <trkpt lat="44.85024" lon="4.30476">
        <ele>1030.67</ele>
        <time>2016-07-11T11:01:36Z</time>
      </trkpt>
      <trkpt lat="44.85029" lon="4.30463">
        <ele>1031.63</ele>
        <time>2016-07-11T11:01:51Z</time>
      </trkpt>
      <trkpt lat="44.8503" lon="4.30458">
        <ele>1032.11</ele>
        <time>2016-07-11T11:01:56Z</time>
      </trkpt>
      <trkpt lat="44.85031" lon="4.30452">
        <ele>1032.11</ele>
        <time>2016-07-11T11:02:01Z</time>
      </trkpt>
      <trkpt lat="44.85034" lon="4.3045">
        <ele>1032.59</ele>
        <time>2016-07-11T11:02:06Z</time>
      </trkpt>
      <trkpt lat="44.8504" lon="4.30437">
        <ele>1033.07</ele>
        <time>2016-07-11T11:02:21Z</time>
      </trkpt>
      <trkpt lat="44.85041" lon="4.30425">
        <ele>1033.07</ele>
        <time>2016-07-11T11:02:35Z</time>
      </trkpt>
      <trkpt lat="44.85049" lon="4.30413">
        <ele>1034.04</ele>
        <time>2016-07-11T11:02:48Z</time>
      </trkpt>
      <trkpt lat="44.85058" lon="4.30405">
        <ele>1035.48</ele>
        <time>2016-07-11T11:03:03Z</time>
      </trkpt>
      <trkpt lat="44.85073" lon="4.30394">
        <ele>1037.88</ele>
        <time>2016-07-11T11:03:20Z</time>
      </trkpt>
      <trkpt lat="44.85082" lon="4.3039">
        <ele>1039.32</ele>
        <time>2016-07-11T11:03:36Z</time>
      </trkpt>
      <trkpt lat="44.85089" lon="4.30387">
        <ele>1039.32</ele>
        <time>2016-07-11T11:03:54Z</time>
      </trkpt>
      <trkpt lat="44.85099" lon="4.30386">
        <ele>1039.32</ele>
        <time>2016-07-11T11:04:13Z</time>
      </trkpt>
      <trkpt lat="44.85112" lon="4.30378">
        <ele>1042.69</ele>
        <time>2016-07-11T11:04:26Z</time>
      </trkpt>
      <trkpt lat="44.85118" lon="4.30362">
        <ele>1044.61</ele>
        <time>2016-07-11T11:04:38Z</time>
      </trkpt>
      <trkpt lat="44.85117" lon="4.30342">
        <ele>1043.17</ele>
        <time>2016-07-11T11:04:53Z</time>
      </trkpt>
      <trkpt lat="44.85112" lon="4.30326">
        <ele>1041.73</ele>
        <time>2016-07-11T11:05:09Z</time>
      </trkpt>
      <trkpt lat="44.85104" lon="4.30315">
        <ele>1039.32</ele>
        <time>2016-07-11T11:05:26Z</time>
      </trkpt>
      <trkpt lat="44.8509" lon="4.30299">
        <ele>1037.88</ele>
        <time>2016-07-11T11:05:46Z</time>
      </trkpt>
      <trkpt lat="44.8508" lon="4.30291">
        <ele>1038.36</ele>
        <time>2016-07-11T11:06:02Z</time>
      </trkpt>
      <trkpt lat="44.85074" lon="4.30272">
        <ele>1038.36</ele>
        <time>2016-07-11T11:06:20Z</time>
      </trkpt>
      <trkpt lat="44.8507" lon="4.30248">
        <ele>1036.92</ele>
        <time>2016-07-11T11:06:37Z</time>
      </trkpt>
      <trkpt lat="44.85066" lon="4.30224">
        <ele>1036.92</ele>
        <time>2016-07-11T11:06:54Z</time>
      </trkpt>
      <trkpt lat="44.85058" lon="4.30211">
        <ele>1037.4</ele>
        <time>2016-07-11T11:07:09Z</time>
      </trkpt>
      <trkpt lat="44.85047" lon="4.30196">
        <ele>1040.76</ele>
        <time>2016-07-11T11:07:26Z</time>
      </trkpt>
      <trkpt lat="44.85039" lon="4.30178">
        <ele>1040.76</ele>
        <time>2016-07-11T11:07:44Z</time>
      </trkpt>
      <trkpt lat="44.85039" lon="4.30162">
        <ele>1040.28</ele>
        <time>2016-07-11T11:08:01Z</time>
      </trkpt>
      <trkpt lat="44.85045" lon="4.30148">
        <ele>1039.32</ele>
        <time>2016-07-11T11:08:17Z</time>
      </trkpt>
      <trkpt lat="44.85045" lon="4.30138">
        <ele>1040.76</ele>
        <time>2016-07-11T11:08:31Z</time>
      </trkpt>
      <trkpt lat="44.85036" lon="4.30126">
        <ele>1039.8</ele>
        <time>2016-07-11T11:08:51Z</time>
      </trkpt>
      <trkpt lat="44.85022" lon="4.30114">
        <ele>1035.96</ele>
        <time>2016-07-11T11:09:06Z</time>
      </trkpt>
      <trkpt lat="44.85012" lon="4.30103">
        <ele>1030.67</ele>
        <time>2016-07-11T11:09:22Z</time>
      </trkpt>
      <trkpt lat="44.85008" lon="4.30101">
        <ele>1030.19</ele>
        <time>2016-07-11T11:09:35Z</time>
      </trkpt>
      <trkpt lat="44.85001" lon="4.30093">
        <ele>1030.19</ele>
        <time>2016-07-11T11:09:51Z</time>
      </trkpt>
      <trkpt lat="44.8499" lon="4.30082">
        <ele>1029.23</ele>
        <time>2016-07-11T11:10:10Z</time>
      </trkpt>
      <trkpt lat="44.8498" lon="4.30073">
        <ele>1028.75</ele>
        <time>2016-07-11T11:10:27Z</time>
      </trkpt>
      <trkpt lat="44.84966" lon="4.30068">
        <ele>1028.75</ele>
        <time>2016-07-11T11:10:44Z</time>
      </trkpt>
      <trkpt lat="44.84953" lon="4.30069">
        <ele>1028.27</ele>
        <time>2016-07-11T11:11:00Z</time>
      </trkpt>
      <trkpt lat="44.84938" lon="4.30061">
        <ele>1027.79</ele>
        <time>2016-07-11T11:11:15Z</time>
      </trkpt>
      <trkpt lat="44.84931" lon="4.30052">
        <ele>1027.79</ele>
        <time>2016-07-11T11:11:29Z</time>
      </trkpt>
      <trkpt lat="44.84928" lon="4.30038">
        <ele>1027.79</ele>
        <time>2016-07-11T11:11:42Z</time>
      </trkpt>
      <trkpt lat="44.84928" lon="4.30021">
        <ele>1029.23</ele>
        <time>2016-07-11T11:11:56Z</time>
      </trkpt>
      <trkpt lat="44.84932" lon="4.29998">
        <ele>1035.48</ele>
        <time>2016-07-11T11:12:13Z</time>
      </trkpt>
      <trkpt lat="44.84929" lon="4.29988">
        <ele>1038.36</ele>
        <time>2016-07-11T11:12:28Z</time>
      </trkpt>
      <trkpt lat="44.84924" lon="4.29988">
        <ele>1037.4</ele>
        <time>2016-07-11T11:12:42Z</time>
      </trkpt>
      <trkpt lat="44.84918" lon="4.29995">
        <ele>1037.88</ele>
        <time>2016-07-11T11:12:58Z</time>
      </trkpt>
      <trkpt lat="44.84911" lon="4.29995">
        <ele>1038.36</ele>
        <time>2016-07-11T11:13:13Z</time>
      </trkpt>
      <trkpt lat="44.84903" lon="4.29988">
        <ele>1037.4</ele>
        <time>2016-07-11T11:13:27Z</time>
      </trkpt>
      <trkpt lat="44.84897" lon="4.29981">
        <ele>1036.92</ele>
        <time>2016-07-11T11:13:41Z</time>
      </trkpt>
      <trkpt lat="44.84896" lon="4.29981">
        <ele>1035.96</ele>
        <time>2016-07-11T11:13:55Z</time>
      </trkpt>
      <trkpt lat="44.84895" lon="4.29986">
        <ele>1037.4</ele>
        <time>2016-07-11T11:14:07Z</time>
      </trkpt>
      <trkpt lat="44.84893" lon="4.29981">
        <ele>1035.48</ele>
        <time>2016-07-11T11:14:36Z</time>
      </trkpt>
      <trkpt lat="44.84892" lon="4.29967">
        <ele>1035</ele>
        <time>2016-07-11T11:14:50Z</time>
      </trkpt>
      <trkpt lat="44.84888" lon="4.29958">
        <ele>1033.55</ele>
        <time>2016-07-11T11:15:04Z</time>
      </trkpt>
      <trkpt lat="44.84884" lon="4.29945">
        <ele>1029.23</ele>
        <time>2016-07-11T11:15:19Z</time>
      </trkpt>
      <trkpt lat="44.84879" lon="4.2993">
        <ele>1025.86</ele>
        <time>2016-07-11T11:15:37Z</time>
      </trkpt>
      <trkpt lat="44.84877" lon="4.29921">
        <ele>1023.94</ele>
        <time>2016-07-11T11:15:52Z</time>
      </trkpt>
      <trkpt lat="44.84873" lon="4.29909">
        <ele>1022.02</ele>
        <time>2016-07-11T11:16:06Z</time>
      </trkpt>
      <trkpt lat="44.8487" lon="4.29901">
        <ele>1020.58</ele>
        <time>2016-07-11T11:16:21Z</time>
      </trkpt>
      <trkpt lat="44.84868" lon="4.29894">
        <ele>1021.06</ele>
        <time>2016-07-11T11:16:34Z</time>
      </trkpt>
      <trkpt lat="44.84869" lon="4.29893">
        <ele>1020.58</ele>
        <time>2016-07-11T11:16:53Z</time>
      </trkpt>
      <trkpt lat="44.84868" lon="4.29893">
        <ele>1020.58</ele>
        <time>2016-07-11T11:17:17Z</time>
      </trkpt>
      <trkpt lat="44.84868" lon="4.29893">
        <ele>1020.58</ele>
        <time>2016-07-11T11:17:22Z</time>
      </trkpt>
      <trkpt lat="44.8486" lon="4.29899">
        <ele>1022.02</ele>
        <time>2016-07-11T11:17:32Z</time>
      </trkpt>
      <trkpt lat="44.8485" lon="4.29921">
        <ele>1022.98</ele>
        <time>2016-07-11T11:17:49Z</time>
      </trkpt>
      <trkpt lat="44.84839" lon="4.29934">
        <ele>1023.94</ele>
        <time>2016-07-11T11:18:02Z</time>
      </trkpt>
      <trkpt lat="44.84826" lon="4.29954">
        <ele>1024.42</ele>
        <time>2016-07-11T11:18:20Z</time>
      </trkpt>
      <trkpt lat="44.84816" lon="4.29978">
        <ele>1026.34</ele>
        <time>2016-07-11T11:18:38Z</time>
      </trkpt>
      <trkpt lat="44.84812" lon="4.29998">
        <ele>1026.83</ele>
        <time>2016-07-11T11:18:53Z</time>
      </trkpt>
      <trkpt lat="44.84817" lon="4.30024">
        <ele>1027.31</ele>
        <time>2016-07-11T11:19:10Z</time>
      </trkpt>
      <trkpt lat="44.84819" lon="4.30052">
        <ele>1027.31</ele>
        <time>2016-07-11T11:19:27Z</time>
      </trkpt>
      <trkpt lat="44.84814" lon="4.30075">
        <ele>1026.83</ele>
        <time>2016-07-11T11:19:42Z</time>
      </trkpt>
      <trkpt lat="44.84806" lon="4.30098">
        <ele>1024.9</ele>
        <time>2016-07-11T11:20:01Z</time>
      </trkpt>
      <trkpt lat="44.84801" lon="4.30121">
        <ele>1023.94</ele>
        <time>2016-07-11T11:20:17Z</time>
      </trkpt>
      <trkpt lat="44.848" lon="4.30125">
        <ele>1024.42</ele>
        <time>2016-07-11T11:20:23Z</time>
      </trkpt>
      <trkpt lat="44.84801" lon="4.30117">
        <ele>1024.42</ele>
        <time>2016-07-11T11:20:29Z</time>
      </trkpt>
      <trkpt lat="44.84804" lon="4.30108">
        <ele>1023.46</ele>
        <time>2016-07-11T11:20:44Z</time>
      </trkpt>
      <trkpt lat="44.84812" lon="4.30098">
        <ele>1024.9</ele>
        <time>2016-07-11T11:20:56Z</time>
      </trkpt>
      <trkpt lat="44.84822" lon="4.30089">
        <ele>1026.34</ele>
        <time>2016-07-11T11:21:09Z</time>
      </trkpt>
      <trkpt lat="44.8483" lon="4.30078">
        <ele>1026.34</ele>
        <time>2016-07-11T11:21:20Z</time>
      </trkpt>
      <trkpt lat="44.84838" lon="4.30071">
        <ele>1026.34</ele>
        <time>2016-07-11T11:21:34Z</time>
      </trkpt>
      <trkpt lat="44.84844" lon="4.3007">
        <ele>1028.27</ele>
        <time>2016-07-11T11:21:47Z</time>
      </trkpt>
      <trkpt lat="44.8485" lon="4.30077">
        <ele>1029.71</ele>
        <time>2016-07-11T11:22:04Z</time>
      </trkpt>
      <trkpt lat="44.84856" lon="4.30095">
        <ele>1030.67</ele>
        <time>2016-07-11T11:22:21Z</time>
      </trkpt>
      <trkpt lat="44.8485" lon="4.30121">
        <ele>1035</ele>
        <time>2016-07-11T11:22:43Z</time>
      </trkpt>
      <trkpt lat="44.84851" lon="4.30129">
        <ele>1039.32</ele>
        <time>2016-07-11T11:22:56Z</time>
      </trkpt>
      <trkpt lat="44.84847" lon="4.30142">
        <ele>1044.13</ele>
        <time>2016-07-11T11:23:15Z</time>
      </trkpt>
      <trkpt lat="44.84847" lon="4.30151">
        <ele>1048.45</ele>
        <time>2016-07-11T11:23:28Z</time>
      </trkpt>
      <trkpt lat="44.84843" lon="4.30159">
        <ele>1050.38</ele>
        <time>2016-07-11T11:23:43Z</time>
      </trkpt>
      <trkpt lat="44.8484" lon="4.30171">
        <ele>1049.9</ele>
        <time>2016-07-11T11:23:57Z</time>
      </trkpt>
      <trkpt lat="44.8484" lon="4.30181">
        <ele>1050.38</ele>
        <time>2016-07-11T11:24:12Z</time>
      </trkpt>
      <trkpt lat="44.84838" lon="4.30193">
        <ele>1054.22</ele>
        <time>2016-07-11T11:24:25Z</time>
      </trkpt>
      <trkpt lat="44.84842" lon="4.30199">
        <ele>1055.18</ele>
        <time>2016-07-11T11:24:36Z</time>
      </trkpt>
      <trkpt lat="44.84848" lon="4.30206">
        <ele>1056.15</ele>
        <time>2016-07-11T11:24:53Z</time>
      </trkpt>
      <trkpt lat="44.84851" lon="4.3021">
        <ele>1056.63</ele>
        <time>2016-07-11T11:24:57Z</time>
      </trkpt>
      <trkpt lat="44.84854" lon="4.30213">
        <ele>1056.63</ele>
        <time>2016-07-11T11:25:00Z</time>
      </trkpt>
      <trkpt lat="44.84861" lon="4.30218">
        <ele>1056.63</ele>
        <time>2016-07-11T11:25:12Z</time>
      </trkpt>
      <trkpt lat="44.84874" lon="4.30233">
        <ele>1058.07</ele>
        <time>2016-07-11T11:25:30Z</time>
      </trkpt>
      <trkpt lat="44.8488" lon="4.30245">
        <ele>1058.07</ele>
        <time>2016-07-11T11:25:45Z</time>
      </trkpt>
      <trkpt lat="44.84893" lon="4.30253">
        <ele>1059.99</ele>
        <time>2016-07-11T11:25:59Z</time>
      </trkpt>
      <trkpt lat="44.84905" lon="4.30261">
        <ele>1057.59</ele>
        <time>2016-07-11T11:26:16Z</time>
      </trkpt>
      <trkpt lat="44.84914" lon="4.30272">
        <ele>1058.07</ele>
        <time>2016-07-11T11:26:31Z</time>
      </trkpt>
      <trkpt lat="44.84924" lon="4.30285">
        <ele>1059.03</ele>
        <time>2016-07-11T11:26:49Z</time>
      </trkpt>
      <trkpt lat="44.84936" lon="4.30301">
        <ele>1063.36</ele>
        <time>2016-07-11T11:27:08Z</time>
      </trkpt>
      <trkpt lat="44.8494" lon="4.30318">
        <ele>1065.76</ele>
        <time>2016-07-11T11:27:23Z</time>
      </trkpt>
      <trkpt lat="44.84939" lon="4.30331">
        <ele>1069.6</ele>
        <time>2016-07-11T11:27:36Z</time>
      </trkpt>
      <trkpt lat="44.84938" lon="4.30346">
        <ele>1067.2</ele>
        <time>2016-07-11T11:27:52Z</time>
      </trkpt>
      <trkpt lat="44.84938" lon="4.30347">
        <ele>1066.72</ele>
        <time>2016-07-11T11:28:07Z</time>
      </trkpt>
      <trkpt lat="44.84936" lon="4.30351">
        <ele>1067.2</ele>
        <time>2016-07-11T11:28:28Z</time>
      </trkpt>
      <trkpt lat="44.84935" lon="4.30361">
        <ele>1065.76</ele>
        <time>2016-07-11T11:28:41Z</time>
      </trkpt>
      <trkpt lat="44.84934" lon="4.30374">
        <ele>1064.32</ele>
        <time>2016-07-11T11:28:57Z</time>
      </trkpt>
      <trkpt lat="44.84933" lon="4.30376">
        <ele>1065.28</ele>
        <time>2016-07-11T11:29:18Z</time>
      </trkpt>
      <trkpt lat="44.84932" lon="4.30375">
        <ele>1064.8</ele>
        <time>2016-07-11T11:29:42Z</time>
      </trkpt>
      <trkpt lat="44.84932" lon="4.30375">
        <ele>1064.8</ele>
        <time>2016-07-11T11:29:57Z</time>
      </trkpt>
      <trkpt lat="44.84932" lon="4.30375">
        <ele>1065.76</ele>
        <time>2016-07-11T11:30:19Z</time>
      </trkpt>
      <trkpt lat="44.8493" lon="4.30376">
        <ele>1066.24</ele>
        <time>2016-07-11T11:30:37Z</time>
      </trkpt>
      <trkpt lat="44.84928" lon="4.30379">
        <ele>1065.76</ele>
        <time>2016-07-11T11:30:41Z</time>
      </trkpt>
      <trkpt lat="44.8493" lon="4.30397">
        <ele>1066.72</ele>
        <time>2016-07-11T11:30:58Z</time>
      </trkpt>
      <trkpt lat="44.84933" lon="4.30415">
        <ele>1067.2</ele>
        <time>2016-07-11T11:31:19Z</time>
      </trkpt>
      <trkpt lat="44.84931" lon="4.30427">
        <ele>1064.8</ele>
        <time>2016-07-11T11:31:39Z</time>
      </trkpt>
      <trkpt lat="44.84931" lon="4.30434">
        <ele>1063.84</ele>
        <time>2016-07-11T11:31:58Z</time>
      </trkpt>
      <trkpt lat="44.84935" lon="4.30444">
        <ele>1059.99</ele>
        <time>2016-07-11T11:32:16Z</time>
      </trkpt>
      <trkpt lat="44.84943" lon="4.30456">
        <ele>1058.07</ele>
        <time>2016-07-11T11:32:33Z</time>
      </trkpt>
      <trkpt lat="44.84952" lon="4.30461">
        <ele>1058.55</ele>
        <time>2016-07-11T11:32:50Z</time>
      </trkpt>
      <trkpt lat="44.8496" lon="4.30461">
        <ele>1059.99</ele>
        <time>2016-07-11T11:33:07Z</time>
      </trkpt>
      <trkpt lat="44.8497" lon="4.30459">
        <ele>1059.51</ele>
        <time>2016-07-11T11:33:22Z</time>
      </trkpt>
      <trkpt lat="44.84977" lon="4.30457">
        <ele>1059.03</ele>
        <time>2016-07-11T11:33:38Z</time>
      </trkpt>
      <trkpt lat="44.84982" lon="4.30453">
        <ele>1059.51</ele>
        <time>2016-07-11T11:33:50Z</time>
      </trkpt>
      <trkpt lat="44.84985" lon="4.30452">
        <ele>1058.55</ele>
        <time>2016-07-11T11:34:08Z</time>
      </trkpt>
      <trkpt lat="44.84988" lon="4.30447">
        <ele>1059.03</ele>
        <time>2016-07-11T11:34:21Z</time>
      </trkpt>
      <trkpt lat="44.84991" lon="4.30441">
        <ele>1061.43</ele>
        <time>2016-07-11T11:34:34Z</time>
      </trkpt>
      <trkpt lat="44.84995" lon="4.3043">
        <ele>1062.39</ele>
        <time>2016-07-11T11:34:48Z</time>
      </trkpt>
      <trkpt lat="44.84999" lon="4.30416">
        <ele>1064.32</ele>
        <time>2016-07-11T11:35:09Z</time>
      </trkpt>
      <trkpt lat="44.85001" lon="4.30399">
        <ele>1067.2</ele>
        <time>2016-07-11T11:35:28Z</time>
      </trkpt>
      <trkpt lat="44.84999" lon="4.30399">
        <ele>1068.16</ele>
        <time>2016-07-11T11:35:44Z</time>
      </trkpt>
      <trkpt lat="44.85001" lon="4.30383">
        <ele>1069.12</ele>
        <time>2016-07-11T11:36:11Z</time>
      </trkpt>
      <trkpt lat="44.85001" lon="4.30368">
        <ele>1071.53</ele>
        <time>2016-07-11T11:36:25Z</time>
      </trkpt>
      <trkpt lat="44.84996" lon="4.30354">
        <ele>1073.45</ele>
        <time>2016-07-11T11:36:41Z</time>
      </trkpt>
      <trkpt lat="44.84985" lon="4.30351">
        <ele>1074.41</ele>
        <time>2016-07-11T11:36:58Z</time>
      </trkpt>
      <trkpt lat="44.84982" lon="4.30346">
        <ele>1074.89</ele>
        <time>2016-07-11T11:37:16Z</time>
      </trkpt>
      <trkpt lat="44.84971" lon="4.30345">
        <ele>1074.41</ele>
        <time>2016-07-11T11:37:33Z</time>
      </trkpt>
      <trkpt lat="44.84957" lon="4.30344">
        <ele>1074.41</ele>
        <time>2016-07-11T11:37:47Z</time>
      </trkpt>
      <trkpt lat="44.84951" lon="4.30342">
        <ele>1073.93</ele>
        <time>2016-07-11T11:38:00Z</time>
      </trkpt>
      <trkpt lat="44.84942" lon="4.30345">
        <ele>1070.57</ele>
        <time>2016-07-11T11:38:14Z</time>
      </trkpt>
      <trkpt lat="44.8494" lon="4.30348">
        <ele>1070.08</ele>
        <time>2016-07-11T11:38:33Z</time>
      </trkpt>
      <trkpt lat="44.84941" lon="4.30344">
        <ele>1068.64</ele>
        <time>2016-07-11T11:38:51Z</time>
      </trkpt>
      <trkpt lat="44.84937" lon="4.30341">
        <ele>1067.2</ele>
        <time>2016-07-11T11:39:06Z</time>
      </trkpt>
      <trkpt lat="44.84937" lon="4.30343">
        <ele>1067.2</ele>
        <time>2016-07-11T11:39:07Z</time>
      </trkpt>
      <trkpt lat="44.84936" lon="4.30355">
        <ele>1067.68</ele>
        <time>2016-07-11T11:39:17Z</time>
      </trkpt>
      <trkpt lat="44.84931" lon="4.30368">
        <ele>1067.2</ele>
        <time>2016-07-11T11:39:31Z</time>
      </trkpt>
      <trkpt lat="44.84932" lon="4.30372">
        <ele>1068.16</ele>
        <time>2016-07-11T11:39:46Z</time>
      </trkpt>
      <trkpt lat="44.84931" lon="4.30374">
        <ele>1069.12</ele>
        <time>2016-07-11T11:40:02Z</time>
      </trkpt>
      <trkpt lat="44.84929" lon="4.30376">
        <ele>1071.05</ele>
        <time>2016-07-11T11:40:30Z</time>
      </trkpt>
      <trkpt lat="44.84929" lon="4.30372">
        <ele>1071.05</ele>
        <time>2016-07-11T11:40:49Z</time>
      </trkpt>
      <trkpt lat="44.8493" lon="4.30368">
        <ele>1072.01</ele>
        <time>2016-07-11T11:41:05Z</time>
      </trkpt>
      <trkpt lat="44.8493" lon="4.30368">
        <ele>1071.53</ele>
        <time>2016-07-11T11:41:25Z</time>
      </trkpt>
      <trkpt lat="44.84931" lon="4.30358">
        <ele>1071.53</ele>
        <time>2016-07-11T11:41:49Z</time>
      </trkpt>
      <trkpt lat="44.84932" lon="4.30334">
        <ele>1067.68</ele>
        <time>2016-07-11T11:42:06Z</time>
      </trkpt>
      <trkpt lat="44.84934" lon="4.30319">
        <ele>1067.68</ele>
        <time>2016-07-11T11:42:22Z</time>
      </trkpt>
      <trkpt lat="44.84931" lon="4.30305">
        <ele>1069.6</ele>
        <time>2016-07-11T11:42:36Z</time>
      </trkpt>
      <trkpt lat="44.84922" lon="4.30294">
        <ele>1067.2</ele>
        <time>2016-07-11T11:42:53Z</time>
      </trkpt>
      <trkpt lat="44.84913" lon="4.30283">
        <ele>1065.76</ele>
        <time>2016-07-11T11:43:08Z</time>
      </trkpt>
      <trkpt lat="44.849" lon="4.30267">
        <ele>1062.87</ele>
        <time>2016-07-11T11:43:26Z</time>
      </trkpt>
      <trkpt lat="44.84887" lon="4.30254">
        <ele>1058.07</ele>
        <time>2016-07-11T11:43:42Z</time>
      </trkpt>
      <trkpt lat="44.84879" lon="4.30238">
        <ele>1054.22</ele>
        <time>2016-07-11T11:43:58Z</time>
      </trkpt>
      <trkpt lat="44.84871" lon="4.30228">
        <ele>1053.74</ele>
        <time>2016-07-11T11:44:12Z</time>
      </trkpt>
      <trkpt lat="44.84868" lon="4.30225">
        <ele>1054.22</ele>
        <time>2016-07-11T11:44:16Z</time>
      </trkpt>
      <trkpt lat="44.84863" lon="4.30221">
        <ele>1054.22</ele>
        <time>2016-07-11T11:44:22Z</time>
      </trkpt>
      <trkpt lat="44.84854" lon="4.30211">
        <ele>1053.26</ele>
        <time>2016-07-11T11:44:37Z</time>
      </trkpt>
      <trkpt lat="44.8485" lon="4.30207">
        <ele>1052.78</ele>
        <time>2016-07-11T11:44:43Z</time>
      </trkpt>
      <trkpt lat="44.8484" lon="4.30196">
        <ele>1051.82</ele>
        <time>2016-07-11T11:44:57Z</time>
      </trkpt>
      <trkpt lat="44.84839" lon="4.30184">
        <ele>1049.42</ele>
        <time>2016-07-11T11:45:11Z</time>
      </trkpt>
      <trkpt lat="44.84839" lon="4.30171">
        <ele>1045.57</ele>
        <time>2016-07-11T11:45:25Z</time>
      </trkpt>
      <trkpt lat="44.84842" lon="4.30158">
        <ele>1044.13</ele>
        <time>2016-07-11T11:45:39Z</time>
      </trkpt>
      <trkpt lat="44.84844" lon="4.30144">
        <ele>1043.17</ele>
        <time>2016-07-11T11:45:53Z</time>
      </trkpt>
      <trkpt lat="44.84846" lon="4.30132">
        <ele>1041.25</ele>
        <time>2016-07-11T11:46:06Z</time>
      </trkpt>
      <trkpt lat="44.84846" lon="4.30121">
        <ele>1038.84</ele>
        <time>2016-07-11T11:46:20Z</time>
      </trkpt>
      <trkpt lat="44.84849" lon="4.30104">
        <ele>1035.96</ele>
        <time>2016-07-11T11:46:35Z</time>
      </trkpt>
      <trkpt lat="44.84851" lon="4.30081">
        <ele>1035.48</ele>
        <time>2016-07-11T11:46:56Z</time>
      </trkpt>
      <trkpt lat="44.84847" lon="4.30068">
        <ele>1032.11</ele>
        <time>2016-07-11T11:47:11Z</time>
      </trkpt>
      <trkpt lat="44.84843" lon="4.30056">
        <ele>1030.67</ele>
        <time>2016-07-11T11:47:27Z</time>
      </trkpt>
      <trkpt lat="44.84841" lon="4.30054">
        <ele>1029.23</ele>
        <time>2016-07-11T11:47:36Z</time>
      </trkpt>
      <trkpt lat="44.84833" lon="4.30048">
        <ele>1025.86</ele>
        <time>2016-07-11T11:47:51Z</time>
      </trkpt>
      <trkpt lat="44.84828" lon="4.30042">
        <ele>1024.9</ele>
        <time>2016-07-11T11:48:04Z</time>
      </trkpt>
      <trkpt lat="44.84826" lon="4.30039">
        <ele>1024.42</ele>
        <time>2016-07-11T11:48:17Z</time>
      </trkpt>
      <trkpt lat="44.84823" lon="4.30037">
        <ele>1022.5</ele>
        <time>2016-07-11T11:48:33Z</time>
      </trkpt>
      <trkpt lat="44.8482" lon="4.3002">
        <ele>1022.02</ele>
        <time>2016-07-11T11:48:48Z</time>
      </trkpt>
      <trkpt lat="44.84819" lon="4.30017">
        <ele>1022.02</ele>
        <time>2016-07-11T11:48:51Z</time>
      </trkpt>
      <trkpt lat="44.84815" lon="4.30006">
        <ele>1022.5</ele>
        <time>2016-07-11T11:49:08Z</time>
      </trkpt>
      <trkpt lat="44.84815" lon="4.30003">
        <ele>1023.46</ele>
        <time>2016-07-11T11:49:23Z</time>
      </trkpt>
      <trkpt lat="44.84813" lon="4.29993">
        <ele>1022.98</ele>
        <time>2016-07-11T11:49:41Z</time>
      </trkpt>
      <trkpt lat="44.84813" lon="4.2998">
        <ele>1022.98</ele>
        <time>2016-07-11T11:49:51Z</time>
      </trkpt>
      <trkpt lat="44.84821" lon="4.2996">
        <ele>1023.94</ele>
        <time>2016-07-11T11:50:08Z</time>
      </trkpt>
      <trkpt lat="44.84823" lon="4.29953">
        <ele>1023.94</ele>
        <time>2016-07-11T11:50:13Z</time>
      </trkpt>
      <trkpt lat="44.84835" lon="4.29931">
        <ele>1022.02</ele>
        <time>2016-07-11T11:50:33Z</time>
      </trkpt>
      <trkpt lat="44.84846" lon="4.29915">
        <ele>1019.13</ele>
        <time>2016-07-11T11:50:50Z</time>
      </trkpt>
      <trkpt lat="44.84852" lon="4.29905">
        <ele>1019.62</ele>
        <time>2016-07-11T11:51:01Z</time>
      </trkpt>
      <trkpt lat="44.84859" lon="4.29882">
        <ele>1022.5</ele>
        <time>2016-07-11T11:51:17Z</time>
      </trkpt>
      <trkpt lat="44.84859" lon="4.29881">
        <ele>1022.5</ele>
        <time>2016-07-11T11:51:18Z</time>
      </trkpt>
      <trkpt lat="44.84857" lon="4.29865">
        <ele>1024.9</ele>
        <time>2016-07-11T11:51:29Z</time>
      </trkpt>
      <trkpt lat="44.84859" lon="4.29851">
        <ele>1026.34</ele>
        <time>2016-07-11T11:51:41Z</time>
      </trkpt>
      <trkpt lat="44.8486" lon="4.29828">
        <ele>1027.31</ele>
        <time>2016-07-11T11:51:57Z</time>
      </trkpt>
      <trkpt lat="44.84863" lon="4.29811">
        <ele>1027.79</ele>
        <time>2016-07-11T11:52:13Z</time>
      </trkpt>
      <trkpt lat="44.84865" lon="4.29812">
        <ele>1028.75</ele>
        <time>2016-07-11T11:52:38Z</time>
      </trkpt>
      <trkpt lat="44.84866" lon="4.29813">
        <ele>1029.23</ele>
        <time>2016-07-11T11:52:56Z</time>
      </trkpt>
      <trkpt lat="44.84868" lon="4.29816">
        <ele>1029.23</ele>
        <time>2016-07-11T11:53:34Z</time>
      </trkpt>
      <trkpt lat="44.84868" lon="4.29817">
        <ele>1029.71</ele>
        <time>2016-07-11T11:53:55Z</time>
      </trkpt>
      <trkpt lat="44.84867" lon="4.29815">
        <ele>1029.71</ele>
        <time>2016-07-11T11:54:12Z</time>
      </trkpt>
      <trkpt lat="44.84867" lon="4.29812">
        <ele>1029.23</ele>
        <time>2016-07-11T11:54:48Z</time>
      </trkpt>
      <trkpt lat="44.84865" lon="4.29808">
        <ele>1028.75</ele>
        <time>2016-07-11T11:55:01Z</time>
      </trkpt>
      <trkpt lat="44.84865" lon="4.29805">
        <ele>1028.27</ele>
        <time>2016-07-11T11:55:20Z</time>
      </trkpt>
      <trkpt lat="44.84867" lon="4.29788">
        <ele>1030.19</ele>
        <time>2016-07-11T11:55:35Z</time>
      </trkpt>
      <trkpt lat="44.8487" lon="4.29787">
        <ele>1030.19</ele>
        <time>2016-07-11T11:55:38Z</time>
      </trkpt>
      <trkpt lat="44.84884" lon="4.29783">
        <ele>1030.19</ele>
        <time>2016-07-11T11:55:52Z</time>
      </trkpt>
      <trkpt lat="44.84899" lon="4.29776">
        <ele>1029.23</ele>
        <time>2016-07-11T11:56:06Z</time>
      </trkpt>
      <trkpt lat="44.84916" lon="4.29771">
        <ele>1028.27</ele>
        <time>2016-07-11T11:56:21Z</time>
      </trkpt>
      <trkpt lat="44.84935" lon="4.29766">
        <ele>1026.83</ele>
        <time>2016-07-11T11:56:38Z</time>
      </trkpt>
      <trkpt lat="44.8495" lon="4.29762">
        <ele>1026.83</ele>
        <time>2016-07-11T11:56:53Z</time>
      </trkpt>
      <trkpt lat="44.84961" lon="4.29763">
        <ele>1027.31</ele>
        <time>2016-07-11T11:57:07Z</time>
      </trkpt>
      <trkpt lat="44.84961" lon="4.29763">
        <ele>1027.79</ele>
        <time>2016-07-11T11:57:22Z</time>
      </trkpt>
      <trkpt lat="44.84968" lon="4.29764">
        <ele>1028.27</ele>
        <time>2016-07-11T11:57:36Z</time>
      </trkpt>
      <trkpt lat="44.84975" lon="4.29763">
        <ele>1028.75</ele>
        <time>2016-07-11T11:57:50Z</time>
      </trkpt>
      <trkpt lat="44.84977" lon="4.29763">
        <ele>1029.23</ele>
        <time>2016-07-11T11:58:07Z</time>
      </trkpt>
      <trkpt lat="44.84986" lon="4.29755">
        <ele>1031.15</ele>
        <time>2016-07-11T11:58:25Z</time>
      </trkpt>
      <trkpt lat="44.84992" lon="4.29747">
        <ele>1031.15</ele>
        <time>2016-07-11T11:58:40Z</time>
      </trkpt>
      <trkpt lat="44.84991" lon="4.29746">
        <ele>1031.15</ele>
        <time>2016-07-11T11:58:58Z</time>
      </trkpt>
      <trkpt lat="44.84992" lon="4.29746">
        <ele>1030.19</ele>
        <time>2016-07-11T11:59:13Z</time>
      </trkpt>
      <trkpt lat="44.84991" lon="4.29743">
        <ele>1029.23</ele>
        <time>2016-07-11T11:59:31Z</time>
      </trkpt>
      <trkpt lat="44.84994" lon="4.29733">
        <ele>1028.27</ele>
        <time>2016-07-11T11:59:47Z</time>
      </trkpt>
      <trkpt lat="44.84994" lon="4.29718">
        <ele>1028.27</ele>
        <time>2016-07-11T12:00:03Z</time>
      </trkpt>
      <trkpt lat="44.84998" lon="4.29705">
        <ele>1027.31</ele>
        <time>2016-07-11T12:00:21Z</time>
      </trkpt>
      <trkpt lat="44.85004" lon="4.29688">
        <ele>1025.38</ele>
        <time>2016-07-11T12:00:38Z</time>
      </trkpt>
      <trkpt lat="44.85014" lon="4.29673">
        <ele>1022.02</ele>
        <time>2016-07-11T12:00:54Z</time>
      </trkpt>
      <trkpt lat="44.85018" lon="4.29659">
        <ele>1020.58</ele>
        <time>2016-07-11T12:01:12Z</time>
      </trkpt>
      <trkpt lat="44.8502" lon="4.29641">
        <ele>1021.06</ele>
        <time>2016-07-11T12:01:30Z</time>
      </trkpt>
      <trkpt lat="44.85023" lon="4.29624">
        <ele>1023.94</ele>
        <time>2016-07-11T12:01:50Z</time>
      </trkpt>
      <trkpt lat="44.85028" lon="4.29611">
        <ele>1025.86</ele>
        <time>2016-07-11T12:02:06Z</time>
      </trkpt>
      <trkpt lat="44.85032" lon="4.29602">
        <ele>1025.38</ele>
        <time>2016-07-11T12:02:19Z</time>
      </trkpt>
      <trkpt lat="44.85034" lon="4.29594">
        <ele>1023.94</ele>
        <time>2016-07-11T12:02:34Z</time>
      </trkpt>
      <trkpt lat="44.85039" lon="4.29585">
        <ele>1023.46</ele>
        <time>2016-07-11T12:02:47Z</time>
      </trkpt>
      <trkpt lat="44.85041" lon="4.29574">
        <ele>1022.5</ele>
        <time>2016-07-11T12:03:01Z</time>
      </trkpt>
      <trkpt lat="44.85039" lon="4.29563">
        <ele>1021.06</ele>
        <time>2016-07-11T12:03:17Z</time>
      </trkpt>
      <trkpt lat="44.85037" lon="4.29547">
        <ele>1022.98</ele>
        <time>2016-07-11T12:03:35Z</time>
      </trkpt>
      <trkpt lat="44.8504" lon="4.29531">
        <ele>1023.46</ele>
        <time>2016-07-11T12:03:55Z</time>
      </trkpt>
      <trkpt lat="44.8504" lon="4.29519">
        <ele>1022.98</ele>
        <time>2016-07-11T12:04:15Z</time>
      </trkpt>
      <trkpt lat="44.8504" lon="4.29511">
        <ele>1020.58</ele>
        <time>2016-07-11T12:04:32Z</time>
      </trkpt>
      <trkpt lat="44.85044" lon="4.29509">
        <ele>1020.1</ele>
        <time>2016-07-11T12:05:00Z</time>
      </trkpt>
      <trkpt lat="44.85044" lon="4.29503">
        <ele>1019.13</ele>
        <time>2016-07-11T12:05:07Z</time>
      </trkpt>
      <trkpt lat="44.85046" lon="4.29482">
        <ele>1021.06</ele>
        <time>2016-07-11T12:05:50Z</time>
      </trkpt>
      <trkpt lat="44.85061" lon="4.29472">
        <ele>1013.85</ele>
        <time>2016-07-11T12:06:11Z</time>
      </trkpt>
      <trkpt lat="44.8508" lon="4.29467">
        <ele>1010</ele>
        <time>2016-07-11T12:06:31Z</time>
      </trkpt>
      <trkpt lat="44.85093" lon="4.29465">
        <ele>1009.04</ele>
        <time>2016-07-11T12:06:54Z</time>
      </trkpt>
      <trkpt lat="44.85106" lon="4.29461">
        <ele>1008.08</ele>
        <time>2016-07-11T12:07:13Z</time>
      </trkpt>
      <trkpt lat="44.85112" lon="4.29458">
        <ele>1008.08</ele>
        <time>2016-07-11T12:07:35Z</time>
      </trkpt>
      <trkpt lat="44.85119" lon="4.2946">
        <ele>1006.16</ele>
        <time>2016-07-11T12:07:58Z</time>
      </trkpt>
      <trkpt lat="44.85146" lon="4.29454">
        <ele>1001.35</ele>
        <time>2016-07-11T12:08:20Z</time>
      </trkpt>
      <trkpt lat="44.85159" lon="4.29463">
        <ele>999.91</ele>
        <time>2016-07-11T12:08:42Z</time>
      </trkpt>
      <trkpt lat="44.8516" lon="4.29465">
        <ele>998.95</ele>
        <time>2016-07-11T12:09:03Z</time>
      </trkpt>
      <trkpt lat="44.85166" lon="4.29473">
        <ele>998.95</ele>
        <time>2016-07-11T12:09:26Z</time>
      </trkpt>
      <trkpt lat="44.85174" lon="4.29477">
        <ele>999.91</ele>
        <time>2016-07-11T12:09:46Z</time>
      </trkpt>
      <trkpt lat="44.85183" lon="4.29482">
        <ele>999.91</ele>
        <time>2016-07-11T12:10:08Z</time>
      </trkpt>
      <trkpt lat="44.85186" lon="4.29486">
        <ele>1000.39</ele>
        <time>2016-07-11T12:10:34Z</time>
      </trkpt>
      <trkpt lat="44.85187" lon="4.29487">
        <ele>1000.87</ele>
        <time>2016-07-11T12:10:56Z</time>
      </trkpt>
      <trkpt lat="44.85191" lon="4.29493">
        <ele>1000.87</ele>
        <time>2016-07-11T12:11:17Z</time>
      </trkpt>
      <trkpt lat="44.85192" lon="4.29497">
        <ele>1000.39</ele>
        <time>2016-07-11T12:11:40Z</time>
      </trkpt>
      <trkpt lat="44.85192" lon="4.29498">
        <ele>1000.39</ele>
        <time>2016-07-11T12:12:02Z</time>
      </trkpt>
      <trkpt lat="44.85191" lon="4.29498">
        <ele>999.43</ele>
        <time>2016-07-11T12:12:32Z</time>
      </trkpt>
      <trkpt lat="44.85191" lon="4.29499">
        <ele>999.43</ele>
        <time>2016-07-11T12:12:55Z</time>
      </trkpt>
      <trkpt lat="44.8519" lon="4.29499">
        <ele>999.91</ele>
        <time>2016-07-11T12:13:24Z</time>
      </trkpt>
      <trkpt lat="44.8519" lon="4.29498">
        <ele>999.43</ele>
        <time>2016-07-11T12:13:43Z</time>
      </trkpt>
      <trkpt lat="44.85191" lon="4.29496">
        <ele>997.51</ele>
        <time>2016-07-11T12:14:06Z</time>
      </trkpt>
      <trkpt lat="44.85194" lon="4.29487">
        <ele>995.1</ele>
        <time>2016-07-11T12:14:25Z</time>
      </trkpt>
      <trkpt lat="44.85198" lon="4.29479">
        <ele>992.22</ele>
        <time>2016-07-11T12:14:42Z</time>
      </trkpt>
      <trkpt lat="44.85205" lon="4.29478">
        <ele>986.45</ele>
        <time>2016-07-11T12:15:00Z</time>
      </trkpt>
      <trkpt lat="44.8521" lon="4.29478">
        <ele>983.09</ele>
        <time>2016-07-11T12:15:19Z</time>
      </trkpt>
      <trkpt lat="44.85221" lon="4.29475">
        <ele>979.72</ele>
        <time>2016-07-11T12:15:36Z</time>
      </trkpt>
      <trkpt lat="44.85234" lon="4.29474">
        <ele>975.39</ele>
        <time>2016-07-11T12:15:58Z</time>
      </trkpt>
      <trkpt lat="44.85236" lon="4.29472">
        <ele>974.91</ele>
        <time>2016-07-11T12:16:14Z</time>
      </trkpt>
      <trkpt lat="44.8524" lon="4.29469">
        <ele>971.55</ele>
        <time>2016-07-11T12:16:36Z</time>
      </trkpt>
      <trkpt lat="44.85245" lon="4.29466">
        <ele>970.11</ele>
        <time>2016-07-11T12:16:54Z</time>
      </trkpt>
      <trkpt lat="44.85249" lon="4.29463">
        <ele>968.18</ele>
        <time>2016-07-11T12:17:10Z</time>
      </trkpt>
      <trkpt lat="44.85252" lon="4.29459">
        <ele>966.26</ele>
        <time>2016-07-11T12:17:31Z</time>
      </trkpt>
      <trkpt lat="44.85262" lon="4.29449">
        <ele>964.34</ele>
        <time>2016-07-11T12:17:46Z</time>
      </trkpt>
      <trkpt lat="44.85267" lon="4.29446">
        <ele>963.38</ele>
        <time>2016-07-11T12:18:02Z</time>
      </trkpt>
      <trkpt lat="44.85269" lon="4.29444">
        <ele>961.46</ele>
        <time>2016-07-11T12:18:21Z</time>
      </trkpt>
      <trkpt lat="44.85273" lon="4.29444">
        <ele>960.01</ele>
        <time>2016-07-11T12:18:46Z</time>
      </trkpt>
      <trkpt lat="44.85274" lon="4.29446">
        <ele>960.01</ele>
        <time>2016-07-11T12:19:02Z</time>
      </trkpt>
      <trkpt lat="44.85274" lon="4.29449">
        <ele>959.05</ele>
        <time>2016-07-11T12:19:21Z</time>
      </trkpt>
      <trkpt lat="44.85276" lon="4.29451">
        <ele>957.61</ele>
        <time>2016-07-11T12:19:37Z</time>
      </trkpt>
      <trkpt lat="44.85277" lon="4.29453">
        <ele>956.65</ele>
        <time>2016-07-11T12:19:59Z</time>
      </trkpt>
      <trkpt lat="44.8528" lon="4.29456">
        <ele>956.65</ele>
        <time>2016-07-11T12:20:18Z</time>
      </trkpt>
      <trkpt lat="44.85288" lon="4.29466">
        <ele>956.65</ele>
        <time>2016-07-11T12:20:36Z</time>
      </trkpt>
      <trkpt lat="44.85291" lon="4.29471">
        <ele>956.17</ele>
        <time>2016-07-11T12:20:57Z</time>
      </trkpt>
      <trkpt lat="44.85292" lon="4.29482">
        <ele>954.73</ele>
        <time>2016-07-11T12:21:19Z</time>
      </trkpt>
      <trkpt lat="44.85292" lon="4.29482">
        <ele>954.73</ele>
        <time>2016-07-11T12:21:36Z</time>
      </trkpt>
      <trkpt lat="44.85293" lon="4.29486">
        <ele>953.77</ele>
        <time>2016-07-11T12:22:00Z</time>
      </trkpt>
      <trkpt lat="44.85291" lon="4.29493">
        <ele>953.28</ele>
        <time>2016-07-11T12:22:21Z</time>
      </trkpt>
      <trkpt lat="44.85287" lon="4.29513">
        <ele>951.84</ele>
        <time>2016-07-11T12:22:37Z</time>
      </trkpt>
      <trkpt lat="44.8528" lon="4.29535">
        <ele>947.04</ele>
        <time>2016-07-11T12:22:54Z</time>
      </trkpt>
      <trkpt lat="44.8528" lon="4.29536">
        <ele>946.56</ele>
        <time>2016-07-11T12:23:13Z</time>
      </trkpt>
      <trkpt lat="44.85274" lon="4.29552">
        <ele>944.63</ele>
        <time>2016-07-11T12:23:29Z</time>
      </trkpt>
      <trkpt lat="44.85268" lon="4.29574">
        <ele>939.35</ele>
        <time>2016-07-11T12:23:47Z</time>
      </trkpt>
      <trkpt lat="44.8527" lon="4.29589">
        <ele>935.02</ele>
        <time>2016-07-11T12:24:04Z</time>
      </trkpt>
      <trkpt lat="44.85271" lon="4.29584">
        <ele>933.58</ele>
        <time>2016-07-11T12:24:26Z</time>
      </trkpt>
      <trkpt lat="44.8528" lon="4.2957">
        <ele>934.06</ele>
        <time>2016-07-11T12:24:41Z</time>
      </trkpt>
      <trkpt lat="44.85291" lon="4.29563">
        <ele>933.1</ele>
        <time>2016-07-11T12:24:58Z</time>
      </trkpt>
      <trkpt lat="44.853" lon="4.29558">
        <ele>933.58</ele>
        <time>2016-07-11T12:25:12Z</time>
      </trkpt>
      <trkpt lat="44.85301" lon="4.29555">
        <ele>933.1</ele>
        <time>2016-07-11T12:25:25Z</time>
      </trkpt>
      <trkpt lat="44.85306" lon="4.29548">
        <ele>932.62</ele>
        <time>2016-07-11T12:25:39Z</time>
      </trkpt>
      <trkpt lat="44.85313" lon="4.29537">
        <ele>931.65</ele>
        <time>2016-07-11T12:25:57Z</time>
      </trkpt>
      <trkpt lat="44.85325" lon="4.29529">
        <ele>931.65</ele>
        <time>2016-07-11T12:26:15Z</time>
      </trkpt>
      <trkpt lat="44.85331" lon="4.29524">
        <ele>932.14</ele>
        <time>2016-07-11T12:26:33Z</time>
      </trkpt>
      <trkpt lat="44.85345" lon="4.29519">
        <ele>931.17</ele>
        <time>2016-07-11T12:26:53Z</time>
      </trkpt>
      <trkpt lat="44.85346" lon="4.29516">
        <ele>931.17</ele>
        <time>2016-07-11T12:27:10Z</time>
      </trkpt>
      <trkpt lat="44.8535" lon="4.29516">
        <ele>930.69</ele>
        <time>2016-07-11T12:27:32Z</time>
      </trkpt>
      <trkpt lat="44.85356" lon="4.29512">
        <ele>930.21</ele>
        <time>2016-07-11T12:27:52Z</time>
      </trkpt>
      <trkpt lat="44.85365" lon="4.29504">
        <ele>929.73</ele>
        <time>2016-07-11T12:28:08Z</time>
      </trkpt>
      <trkpt lat="44.85369" lon="4.29498">
        <ele>928.77</ele>
        <time>2016-07-11T12:28:27Z</time>
      </trkpt>
      <trkpt lat="44.85378" lon="4.2949">
        <ele>927.81</ele>
        <time>2016-07-11T12:28:48Z</time>
      </trkpt>
      <trkpt lat="44.85383" lon="4.29485">
        <ele>927.81</ele>
        <time>2016-07-11T12:29:09Z</time>
      </trkpt>
      <trkpt lat="44.85389" lon="4.2948">
        <ele>927.33</ele>
        <time>2016-07-11T12:29:25Z</time>
      </trkpt>
      <trkpt lat="44.85395" lon="4.29477">
        <ele>927.81</ele>
        <time>2016-07-11T12:29:45Z</time>
      </trkpt>
      <trkpt lat="44.85398" lon="4.29477">
        <ele>928.29</ele>
        <time>2016-07-11T12:30:01Z</time>
      </trkpt>
      <trkpt lat="44.85407" lon="4.29475">
        <ele>928.77</ele>
        <time>2016-07-11T12:30:20Z</time>
      </trkpt>
      <trkpt lat="44.85412" lon="4.29475">
        <ele>928.77</ele>
        <time>2016-07-11T12:30:33Z</time>
      </trkpt>
      <trkpt lat="44.85413" lon="4.29478">
        <ele>927.33</ele>
        <time>2016-07-11T12:30:54Z</time>
      </trkpt>
      <trkpt lat="44.85412" lon="4.29471">
        <ele>926.85</ele>
        <time>2016-07-11T12:31:09Z</time>
      </trkpt>
      <trkpt lat="44.85411" lon="4.2947">
        <ele>926.37</ele>
        <time>2016-07-11T12:31:29Z</time>
      </trkpt>
      <trkpt lat="44.8541" lon="4.29473">
        <ele>925.89</ele>
        <time>2016-07-11T12:31:46Z</time>
      </trkpt>
      <trkpt lat="44.8541" lon="4.29471">
        <ele>925.41</ele>
        <time>2016-07-11T12:32:09Z</time>
      </trkpt>
      <trkpt lat="44.85422" lon="4.2946">
        <ele>924.93</ele>
        <time>2016-07-11T12:32:23Z</time>
      </trkpt>
      <trkpt lat="44.85431" lon="4.29458">
        <ele>920.6</ele>
        <time>2016-07-11T12:32:38Z</time>
      </trkpt>
      <trkpt lat="44.85447" lon="4.29463">
        <ele>914.83</ele>
        <time>2016-07-11T12:32:56Z</time>
      </trkpt>
      <trkpt lat="44.85461" lon="4.29464">
        <ele>911.95</ele>
        <time>2016-07-11T12:33:13Z</time>
      </trkpt>
      <trkpt lat="44.85475" lon="4.29464">
        <ele>906.66</ele>
        <time>2016-07-11T12:33:31Z</time>
      </trkpt>
      <trkpt lat="44.85483" lon="4.29458">
        <ele>901.85</ele>
        <time>2016-07-11T12:33:48Z</time>
      </trkpt>
      <trkpt lat="44.85499" lon="4.29457">
        <ele>895.12</ele>
        <time>2016-07-11T12:34:08Z</time>
      </trkpt>
      <trkpt lat="44.85515" lon="4.29464">
        <ele>885.99</ele>
        <time>2016-07-11T12:34:25Z</time>
      </trkpt>
      <trkpt lat="44.8553" lon="4.29471">
        <ele>882.15</ele>
        <time>2016-07-11T12:34:41Z</time>
      </trkpt>
      <trkpt lat="44.85546" lon="4.29482">
        <ele>876.86</ele>
        <time>2016-07-11T12:34:56Z</time>
      </trkpt>
      <trkpt lat="44.8555" lon="4.29485">
        <ele>875.9</ele>
        <time>2016-07-11T12:35:01Z</time>
      </trkpt>
      <trkpt lat="44.85562" lon="4.29504">
        <ele>873.01</ele>
        <time>2016-07-11T12:35:19Z</time>
      </trkpt>
      <trkpt lat="44.85567" lon="4.2952">
        <ele>871.57</ele>
        <time>2016-07-11T12:35:36Z</time>
      </trkpt>
      <trkpt lat="44.85575" lon="4.29527">
        <ele>870.13</ele>
        <time>2016-07-11T12:35:51Z</time>
      </trkpt>
      <trkpt lat="44.85578" lon="4.29516">
        <ele>868.69</ele>
        <time>2016-07-11T12:36:04Z</time>
      </trkpt>
      <trkpt lat="44.85584" lon="4.29507">
        <ele>867.25</ele>
        <time>2016-07-11T12:36:13Z</time>
      </trkpt>
      <trkpt lat="44.85593" lon="4.29493">
        <ele>866.29</ele>
        <time>2016-07-11T12:36:28Z</time>
      </trkpt>
      <trkpt lat="44.85606" lon="4.29479">
        <ele>869.17</ele>
        <time>2016-07-11T12:36:43Z</time>
      </trkpt>
      <trkpt lat="44.85622" lon="4.29472">
        <ele>872.53</ele>
        <time>2016-07-11T12:36:59Z</time>
      </trkpt>
      <trkpt lat="44.85638" lon="4.29475">
        <ele>871.57</ele>
        <time>2016-07-11T12:37:17Z</time>
      </trkpt>
      <trkpt lat="44.85654" lon="4.29472">
        <ele>867.25</ele>
        <time>2016-07-11T12:37:36Z</time>
      </trkpt>
      <trkpt lat="44.85678" lon="4.29472">
        <ele>861.48</ele>
        <time>2016-07-11T12:37:58Z</time>
      </trkpt>
      <trkpt lat="44.85691" lon="4.29461">
        <ele>856.67</ele>
        <time>2016-07-11T12:38:14Z</time>
      </trkpt>
      <trkpt lat="44.85698" lon="4.29446">
        <ele>859.56</ele>
        <time>2016-07-11T12:38:27Z</time>
      </trkpt>
      <trkpt lat="44.85703" lon="4.29435">
        <ele>857.63</ele>
        <time>2016-07-11T12:38:41Z</time>
      </trkpt>
      <trkpt lat="44.85705" lon="4.29431">
        <ele>857.63</ele>
        <time>2016-07-11T12:38:45Z</time>
      </trkpt>
      <trkpt lat="44.85714" lon="4.29417">
        <ele>858.11</ele>
        <time>2016-07-11T12:38:58Z</time>
      </trkpt>
      <trkpt lat="44.85725" lon="4.29407">
        <ele>854.75</ele>
        <time>2016-07-11T12:39:13Z</time>
      </trkpt>
      <trkpt lat="44.85744" lon="4.29409">
        <ele>855.23</ele>
        <time>2016-07-11T12:39:30Z</time>
      </trkpt>
      <trkpt lat="44.85755" lon="4.29411">
        <ele>855.71</ele>
        <time>2016-07-11T12:39:43Z</time>
      </trkpt>
      <trkpt lat="44.85761" lon="4.29413">
        <ele>855.23</ele>
        <time>2016-07-11T12:39:56Z</time>
      </trkpt>
      <trkpt lat="44.85772" lon="4.29408">
        <ele>854.27</ele>
        <time>2016-07-11T12:40:12Z</time>
      </trkpt>
      <trkpt lat="44.85775" lon="4.29412">
        <ele>855.23</ele>
        <time>2016-07-11T12:40:33Z</time>
      </trkpt>
      <trkpt lat="44.85781" lon="4.29423">
        <ele>854.75</ele>
        <time>2016-07-11T12:40:51Z</time>
      </trkpt>
      <trkpt lat="44.85784" lon="4.29423">
        <ele>854.75</ele>
        <time>2016-07-11T12:41:05Z</time>
      </trkpt>
      <trkpt lat="44.85789" lon="4.29423">
        <ele>854.27</ele>
        <time>2016-07-11T12:41:16Z</time>
      </trkpt>
      <trkpt lat="44.85803" lon="4.29414">
        <ele>854.75</ele>
        <time>2016-07-11T12:41:30Z</time>
      </trkpt>
      <trkpt lat="44.8581" lon="4.29409">
        <ele>854.27</ele>
        <time>2016-07-11T12:41:38Z</time>
      </trkpt>
      <trkpt lat="44.85823" lon="4.29403">
        <ele>857.63</ele>
        <time>2016-07-11T12:41:53Z</time>
      </trkpt>
      <trkpt lat="44.85836" lon="4.29391">
        <ele>855.23</ele>
        <time>2016-07-11T12:42:09Z</time>
      </trkpt>
      <trkpt lat="44.85847" lon="4.29376">
        <ele>852.83</ele>
        <time>2016-07-11T12:42:26Z</time>
      </trkpt>
      <trkpt lat="44.85849" lon="4.29363">
        <ele>848.98</ele>
        <time>2016-07-11T12:42:41Z</time>
      </trkpt>
      <trkpt lat="44.8585" lon="4.29356">
        <ele>848.02</ele>
        <time>2016-07-11T12:42:54Z</time>
      </trkpt>
      <trkpt lat="44.85844" lon="4.29355">
        <ele>848.02</ele>
        <time>2016-07-11T12:43:08Z</time>
      </trkpt>
      <trkpt lat="44.85839" lon="4.29353">
        <ele>847.54</ele>
        <time>2016-07-11T12:43:16Z</time>
      </trkpt>
      <trkpt lat="44.85825" lon="4.29356">
        <ele>844.66</ele>
        <time>2016-07-11T12:43:34Z</time>
      </trkpt>
      <trkpt lat="44.85809" lon="4.29344">
        <ele>841.29</ele>
        <time>2016-07-11T12:43:52Z</time>
      </trkpt>
      <trkpt lat="44.85804" lon="4.2934">
        <ele>840.33</ele>
        <time>2016-07-11T12:44:12Z</time>
      </trkpt>
      <trkpt lat="44.85795" lon="4.29331">
        <ele>839.85</ele>
        <time>2016-07-11T12:44:26Z</time>
      </trkpt>
      <trkpt lat="44.85787" lon="4.29318">
        <ele>840.81</ele>
        <time>2016-07-11T12:44:41Z</time>
      </trkpt>
      <trkpt lat="44.85782" lon="4.29305">
        <ele>841.29</ele>
        <time>2016-07-11T12:44:55Z</time>
      </trkpt>
      <trkpt lat="44.85779" lon="4.29287">
        <ele>839.85</ele>
        <time>2016-07-11T12:45:10Z</time>
      </trkpt>
      <trkpt lat="44.85778" lon="4.29268">
        <ele>838.89</ele>
        <time>2016-07-11T12:45:26Z</time>
      </trkpt>
      <trkpt lat="44.85778" lon="4.29248">
        <ele>837.93</ele>
        <time>2016-07-11T12:45:43Z</time>
      </trkpt>
      <trkpt lat="44.85779" lon="4.29232">
        <ele>836.96</ele>
        <time>2016-07-11T12:45:54Z</time>
      </trkpt>
      <trkpt lat="44.85787" lon="4.29218">
        <ele>835.52</ele>
        <time>2016-07-11T12:46:08Z</time>
      </trkpt>
      <trkpt lat="44.85797" lon="4.2921">
        <ele>835.04</ele>
        <time>2016-07-11T12:46:22Z</time>
      </trkpt>
      <trkpt lat="44.85805" lon="4.29207">
        <ele>834.56</ele>
        <time>2016-07-11T12:46:37Z</time>
      </trkpt>
      <trkpt lat="44.85811" lon="4.29204">
        <ele>834.08</ele>
        <time>2016-07-11T12:46:52Z</time>
      </trkpt>
      <trkpt lat="44.85818" lon="4.29196">
        <ele>833.12</ele>
        <time>2016-07-11T12:47:06Z</time>
      </trkpt>
      <trkpt lat="44.85824" lon="4.29179">
        <ele>832.64</ele>
        <time>2016-07-11T12:47:22Z</time>
      </trkpt>
      <trkpt lat="44.8583" lon="4.29165">
        <ele>833.12</ele>
        <time>2016-07-11T12:47:39Z</time>
      </trkpt>
      <trkpt lat="44.85838" lon="4.2915">
        <ele>832.64</ele>
        <time>2016-07-11T12:47:54Z</time>
      </trkpt>
      <trkpt lat="44.85844" lon="4.29135">
        <ele>830.24</ele>
        <time>2016-07-11T12:48:09Z</time>
      </trkpt>
      <trkpt lat="44.85852" lon="4.29125">
        <ele>829.76</ele>
        <time>2016-07-11T12:48:25Z</time>
      </trkpt>
      <trkpt lat="44.85856" lon="4.29129">
        <ele>828.31</ele>
        <time>2016-07-11T12:48:49Z</time>
      </trkpt>
      <trkpt lat="44.85858" lon="4.29133">
        <ele>829.27</ele>
        <time>2016-07-11T12:49:08Z</time>
      </trkpt>
      <trkpt lat="44.85863" lon="4.29141">
        <ele>828.31</ele>
        <time>2016-07-11T12:49:22Z</time>
      </trkpt>
      <trkpt lat="44.85868" lon="4.29147">
        <ele>827.83</ele>
        <time>2016-07-11T12:49:33Z</time>
      </trkpt>
      <trkpt lat="44.85874" lon="4.29153">
        <ele>823.51</ele>
        <time>2016-07-11T12:49:49Z</time>
      </trkpt>
      <trkpt lat="44.85878" lon="4.29154">
        <ele>820.62</ele>
        <time>2016-07-11T12:50:04Z</time>
      </trkpt>
      <trkpt lat="44.85883" lon="4.29156">
        <ele>819.18</ele>
        <time>2016-07-11T12:50:17Z</time>
      </trkpt>
      <trkpt lat="44.85891" lon="4.2916">
        <ele>815.82</ele>
        <time>2016-07-11T12:50:32Z</time>
      </trkpt>
      <trkpt lat="44.85896" lon="4.29162">
        <ele>814.85</ele>
        <time>2016-07-11T12:50:48Z</time>
      </trkpt>
      <trkpt lat="44.85902" lon="4.29171">
        <ele>812.93</ele>
        <time>2016-07-11T12:51:05Z</time>
      </trkpt>
      <trkpt lat="44.85905" lon="4.29174">
        <ele>811.97</ele>
        <time>2016-07-11T12:51:20Z</time>
      </trkpt>
      <trkpt lat="44.85915" lon="4.29176">
        <ele>808.13</ele>
        <time>2016-07-11T12:51:39Z</time>
      </trkpt>
      <trkpt lat="44.8592" lon="4.2918">
        <ele>805.24</ele>
        <time>2016-07-11T12:51:56Z</time>
      </trkpt>
      <trkpt lat="44.85925" lon="4.29182">
        <ele>803.8</ele>
        <time>2016-07-11T12:52:11Z</time>
      </trkpt>
      <trkpt lat="44.85928" lon="4.29181">
        <ele>802.84</ele>
        <time>2016-07-11T12:52:25Z</time>
      </trkpt>
      <trkpt lat="44.8594" lon="4.29186">
        <ele>798.99</ele>
        <time>2016-07-11T12:52:42Z</time>
      </trkpt>
      <trkpt lat="44.85945" lon="4.29186">
        <ele>798.03</ele>
        <time>2016-07-11T12:52:56Z</time>
      </trkpt>
      <trkpt lat="44.85948" lon="4.29178">
        <ele>798.03</ele>
        <time>2016-07-11T12:53:10Z</time>
      </trkpt>
      <trkpt lat="44.85951" lon="4.29177">
        <ele>798.51</ele>
        <time>2016-07-11T12:53:27Z</time>
      </trkpt>
      <trkpt lat="44.85952" lon="4.29178">
        <ele>797.55</ele>
        <time>2016-07-11T12:53:45Z</time>
      </trkpt>
      <trkpt lat="44.85954" lon="4.29183">
        <ele>795.63</ele>
        <time>2016-07-11T12:53:58Z</time>
      </trkpt>
      <trkpt lat="44.85955" lon="4.29186">
        <ele>793.71</ele>
        <time>2016-07-11T12:54:12Z</time>
      </trkpt>
      <trkpt lat="44.85956" lon="4.29191">
        <ele>792.26</ele>
        <time>2016-07-11T12:54:28Z</time>
      </trkpt>
      <trkpt lat="44.85961" lon="4.29203">
        <ele>789.86</ele>
        <time>2016-07-11T12:54:42Z</time>
      </trkpt>
      <trkpt lat="44.85968" lon="4.29213">
        <ele>791.78</ele>
        <time>2016-07-11T12:55:01Z</time>
      </trkpt>
      <trkpt lat="44.85971" lon="4.29213">
        <ele>792.26</ele>
        <time>2016-07-11T12:55:18Z</time>
      </trkpt>
      <trkpt lat="44.8597" lon="4.29212">
        <ele>793.22</ele>
        <time>2016-07-11T12:55:36Z</time>
      </trkpt>
      <trkpt lat="44.8597" lon="4.29212">
        <ele>793.71</ele>
        <time>2016-07-11T12:55:51Z</time>
      </trkpt>
      <trkpt lat="44.8598" lon="4.29202">
        <ele>792.74</ele>
        <time>2016-07-11T12:56:08Z</time>
      </trkpt>
      <trkpt lat="44.85992" lon="4.29201">
        <ele>790.82</ele>
        <time>2016-07-11T12:56:23Z</time>
      </trkpt>
      <trkpt lat="44.86001" lon="4.29191">
        <ele>789.86</ele>
        <time>2016-07-11T12:56:38Z</time>
      </trkpt>
      <trkpt lat="44.86005" lon="4.29183">
        <ele>790.34</ele>
        <time>2016-07-11T12:56:52Z</time>
      </trkpt>
      <trkpt lat="44.86014" lon="4.29183">
        <ele>786.5</ele>
        <time>2016-07-11T12:57:05Z</time>
      </trkpt>
      <trkpt lat="44.86019" lon="4.2918">
        <ele>785.05</ele>
        <time>2016-07-11T12:57:18Z</time>
      </trkpt>
      <trkpt lat="44.86024" lon="4.2918">
        <ele>783.13</ele>
        <time>2016-07-11T12:57:23Z</time>
      </trkpt>
      <trkpt lat="44.86036" lon="4.29176">
        <ele>780.25</ele>
        <time>2016-07-11T12:57:36Z</time>
      </trkpt>
      <trkpt lat="44.86039" lon="4.29177">
        <ele>779.77</ele>
        <time>2016-07-11T12:57:39Z</time>
      </trkpt>
      <trkpt lat="44.86046" lon="4.29176">
        <ele>778.81</ele>
        <time>2016-07-11T12:57:45Z</time>
      </trkpt>
      <trkpt lat="44.8605" lon="4.29176">
        <ele>778.32</ele>
        <time>2016-07-11T12:57:50Z</time>
      </trkpt>
      <trkpt lat="44.86061" lon="4.29177">
        <ele>776.88</ele>
        <time>2016-07-11T12:58:04Z</time>
      </trkpt>
      <trkpt lat="44.86069" lon="4.29175">
        <ele>775.92</ele>
        <time>2016-07-11T12:58:18Z</time>
      </trkpt>
      <trkpt lat="44.86082" lon="4.29173">
        <ele>774.48</ele>
        <time>2016-07-11T12:58:33Z</time>
      </trkpt>
      <trkpt lat="44.86093" lon="4.29168">
        <ele>773.04</ele>
        <time>2016-07-11T12:58:48Z</time>
      </trkpt>
      <trkpt lat="44.86107" lon="4.29159">
        <ele>770.15</ele>
        <time>2016-07-11T12:59:06Z</time>
      </trkpt>
      <trkpt lat="44.86123" lon="4.29157">
        <ele>765.35</ele>
        <time>2016-07-11T12:59:26Z</time>
      </trkpt>
      <trkpt lat="44.86136" lon="4.29153">
        <ele>763.42</ele>
        <time>2016-07-11T12:59:42Z</time>
      </trkpt>
      <trkpt lat="44.86139" lon="4.29149">
        <ele>763.42</ele>
        <time>2016-07-11T12:59:57Z</time>
      </trkpt>
      <trkpt lat="44.86143" lon="4.29146">
        <ele>762.94</ele>
        <time>2016-07-11T13:00:14Z</time>
      </trkpt>
      <trkpt lat="44.86151" lon="4.29141">
        <ele>761.02</ele>
        <time>2016-07-11T13:00:27Z</time>
      </trkpt>
      <trkpt lat="44.86152" lon="4.29125">
        <ele>755.73</ele>
        <time>2016-07-11T13:00:45Z</time>
      </trkpt>
      <trkpt lat="44.86157" lon="4.29113">
        <ele>753.81</ele>
        <time>2016-07-11T13:00:58Z</time>
      </trkpt>
      <trkpt lat="44.86163" lon="4.29103">
        <ele>752.37</ele>
        <time>2016-07-11T13:01:11Z</time>
      </trkpt>
      <trkpt lat="44.86166" lon="4.29091">
        <ele>749.97</ele>
        <time>2016-07-11T13:01:24Z</time>
      </trkpt>
      <trkpt lat="44.86172" lon="4.29081">
        <ele>753.33</ele>
        <time>2016-07-11T13:01:39Z</time>
      </trkpt>
      <trkpt lat="44.86182" lon="4.29074">
        <ele>751.89</ele>
        <time>2016-07-11T13:02:02Z</time>
      </trkpt>
      <trkpt lat="44.86185" lon="4.29061">
        <ele>754.29</ele>
        <time>2016-07-11T13:02:17Z</time>
      </trkpt>
      <trkpt lat="44.86185" lon="4.2906">
        <ele>753.81</ele>
        <time>2016-07-11T13:02:37Z</time>
      </trkpt>
      <trkpt lat="44.86186" lon="4.29062">
        <ele>753.33</ele>
        <time>2016-07-11T13:03:06Z</time>
      </trkpt>
      <trkpt lat="44.86186" lon="4.29062">
        <ele>753.33</ele>
        <time>2016-07-11T13:03:26Z</time>
      </trkpt>
      <trkpt lat="44.86185" lon="4.29062">
        <ele>753.33</ele>
        <time>2016-07-11T13:03:45Z</time>
      </trkpt>
      <trkpt lat="44.86185" lon="4.29062">
        <ele>753.81</ele>
        <time>2016-07-11T13:04:23Z</time>
      </trkpt>
      <trkpt lat="44.86187" lon="4.29059">
        <ele>753.33</ele>
        <time>2016-07-11T13:04:57Z</time>
      </trkpt>
      <trkpt lat="44.86186" lon="4.29061">
        <ele>753.33</ele>
        <time>2016-07-11T13:05:39Z</time>
      </trkpt>
      <trkpt lat="44.86186" lon="4.29062">
        <ele>753.81</ele>
        <time>2016-07-11T13:06:20Z</time>
      </trkpt>
      <trkpt lat="44.86186" lon="4.29062">
        <ele>754.29</ele>
        <time>2016-07-11T13:06:58Z</time>
      </trkpt>
      <trkpt lat="44.86186" lon="4.29062">
        <ele>754.29</ele>
        <time>2016-07-11T13:07:33Z</time>
      </trkpt>
      <trkpt lat="44.86186" lon="4.29061">
        <ele>754.29</ele>
        <time>2016-07-11T13:08:07Z</time>
      </trkpt>
      <trkpt lat="44.86187" lon="4.29062">
        <ele>754.77</ele>
        <time>2016-07-11T13:08:41Z</time>
      </trkpt>
      <trkpt lat="44.86187" lon="4.29063">
        <ele>754.77</ele>
        <time>2016-07-11T13:09:05Z</time>
      </trkpt>
      <trkpt lat="44.86188" lon="4.29063">
        <ele>754.29</ele>
        <time>2016-07-11T13:09:35Z</time>
      </trkpt>
      <trkpt lat="44.86189" lon="4.29063">
        <ele>753.81</ele>
        <time>2016-07-11T13:10:02Z</time>
      </trkpt>
      <trkpt lat="44.86188" lon="4.29062">
        <ele>753.33</ele>
        <time>2016-07-11T13:10:37Z</time>
      </trkpt>
      <trkpt lat="44.86188" lon="4.29062">
        <ele>753.33</ele>
        <time>2016-07-11T13:11:14Z</time>
      </trkpt>
      <trkpt lat="44.86191" lon="4.29056">
        <ele>751.89</ele>
        <time>2016-07-11T13:11:45Z</time>
      </trkpt>
      <trkpt lat="44.86191" lon="4.29058">
        <ele>752.37</ele>
        <time>2016-07-11T13:12:16Z</time>
      </trkpt>
      <trkpt lat="44.8619" lon="4.29062">
        <ele>753.33</ele>
        <time>2016-07-11T13:12:41Z</time>
      </trkpt>
      <trkpt lat="44.8619" lon="4.29062">
        <ele>753.81</ele>
        <time>2016-07-11T13:13:08Z</time>
      </trkpt>
      <trkpt lat="44.86188" lon="4.29063">
        <ele>754.29</ele>
        <time>2016-07-11T13:13:38Z</time>
      </trkpt>
      <trkpt lat="44.86185" lon="4.29067">
        <ele>754.29</ele>
        <time>2016-07-11T13:14:06Z</time>
      </trkpt>
      <trkpt lat="44.86185" lon="4.29066">
        <ele>754.29</ele>
        <time>2016-07-11T13:14:34Z</time>
      </trkpt>
      <trkpt lat="44.86184" lon="4.29065">
        <ele>755.25</ele>
        <time>2016-07-11T13:15:07Z</time>
      </trkpt>
      <trkpt lat="44.86184" lon="4.29064">
        <ele>755.73</ele>
        <time>2016-07-11T13:15:35Z</time>
      </trkpt>
      <trkpt lat="44.86186" lon="4.29061">
        <ele>756.21</ele>
        <time>2016-07-11T13:16:08Z</time>
      </trkpt>
      <trkpt lat="44.86186" lon="4.29056">
        <ele>757.66</ele>
        <time>2016-07-11T13:16:33Z</time>
      </trkpt>
      <trkpt lat="44.86185" lon="4.29058">
        <ele>758.62</ele>
        <time>2016-07-11T13:16:57Z</time>
      </trkpt>
      <trkpt lat="44.86186" lon="4.29058">
        <ele>759.58</ele>
        <time>2016-07-11T13:17:26Z</time>
      </trkpt>
      <trkpt lat="44.86187" lon="4.29059">
        <ele>759.58</ele>
        <time>2016-07-11T13:17:53Z</time>
      </trkpt>
      <trkpt lat="44.86184" lon="4.29064">
        <ele>759.1</ele>
        <time>2016-07-11T13:18:36Z</time>
      </trkpt>
      <trkpt lat="44.86183" lon="4.29064">
        <ele>759.58</ele>
        <time>2016-07-11T13:19:20Z</time>
      </trkpt>
      <trkpt lat="44.86183" lon="4.29064">
        <ele>760.06</ele>
        <time>2016-07-11T13:20:03Z</time>
      </trkpt>
      <trkpt lat="44.86184" lon="4.29064">
        <ele>759.58</ele>
        <time>2016-07-11T13:20:32Z</time>
      </trkpt>
      <trkpt lat="44.86184" lon="4.29067">
        <ele>761.02</ele>
        <time>2016-07-11T13:21:02Z</time>
      </trkpt>
      <trkpt lat="44.86186" lon="4.29066">
        <ele>761.5</ele>
        <time>2016-07-11T13:21:28Z</time>
      </trkpt>
      <trkpt lat="44.86187" lon="4.29066">
        <ele>761.5</ele>
        <time>2016-07-11T13:21:58Z</time>
      </trkpt>
      <trkpt lat="44.86188" lon="4.29065">
        <ele>761.5</ele>
        <time>2016-07-11T13:22:30Z</time>
      </trkpt>
      <trkpt lat="44.86188" lon="4.29065">
        <ele>761.02</ele>
        <time>2016-07-11T13:23:03Z</time>
      </trkpt>
      <trkpt lat="44.86186" lon="4.29063">
        <ele>758.62</ele>
        <time>2016-07-11T13:23:30Z</time>
      </trkpt>
      <trkpt lat="44.86186" lon="4.29063">
        <ele>757.66</ele>
        <time>2016-07-11T13:23:50Z</time>
      </trkpt>
      <trkpt lat="44.86185" lon="4.29062">
        <ele>757.66</ele>
        <time>2016-07-11T13:24:20Z</time>
      </trkpt>
      <trkpt lat="44.86185" lon="4.29063">
        <ele>756.69</ele>
        <time>2016-07-11T13:24:46Z</time>
      </trkpt>
      <trkpt lat="44.86185" lon="4.29062">
        <ele>756.21</ele>
        <time>2016-07-11T13:25:10Z</time>
      </trkpt>
      <trkpt lat="44.86183" lon="4.29062">
        <ele>754.29</ele>
        <time>2016-07-11T13:25:37Z</time>
      </trkpt>
      <trkpt lat="44.86183" lon="4.29062">
        <ele>754.29</ele>
        <time>2016-07-11T13:26:04Z</time>
      </trkpt>
      <trkpt lat="44.86184" lon="4.29063">
        <ele>754.29</ele>
        <time>2016-07-11T13:26:35Z</time>
      </trkpt>
      <trkpt lat="44.86185" lon="4.29063">
        <ele>754.77</ele>
        <time>2016-07-11T13:27:07Z</time>
      </trkpt>
      <trkpt lat="44.86185" lon="4.29064">
        <ele>754.77</ele>
        <time>2016-07-11T13:27:45Z</time>
      </trkpt>
      <trkpt lat="44.86186" lon="4.29064">
        <ele>754.77</ele>
        <time>2016-07-11T13:28:16Z</time>
      </trkpt>
      <trkpt lat="44.86185" lon="4.29064">
        <ele>755.25</ele>
        <time>2016-07-11T13:28:35Z</time>
      </trkpt>
      <trkpt lat="44.86185" lon="4.29063">
        <ele>756.21</ele>
        <time>2016-07-11T13:29:05Z</time>
      </trkpt>
      <trkpt lat="44.86185" lon="4.29062">
        <ele>756.21</ele>
        <time>2016-07-11T13:29:24Z</time>
      </trkpt>
      <trkpt lat="44.86185" lon="4.2906">
        <ele>756.21</ele>
        <time>2016-07-11T13:29:49Z</time>
      </trkpt>
      <trkpt lat="44.86185" lon="4.2906">
        <ele>755.73</ele>
        <time>2016-07-11T13:30:09Z</time>
      </trkpt>
      <trkpt lat="44.86184" lon="4.2906">
        <ele>756.21</ele>
        <time>2016-07-11T13:30:31Z</time>
      </trkpt>
      <trkpt lat="44.86185" lon="4.29058">
        <ele>756.69</ele>
        <time>2016-07-11T13:31:00Z</time>
      </trkpt>
      <trkpt lat="44.86185" lon="4.29058">
        <ele>756.21</ele>
        <time>2016-07-11T13:31:25Z</time>
      </trkpt>
      <trkpt lat="44.86186" lon="4.29058">
        <ele>756.69</ele>
        <time>2016-07-11T13:31:54Z</time>
      </trkpt>
      <trkpt lat="44.86186" lon="4.29058">
        <ele>757.18</ele>
        <time>2016-07-11T13:32:14Z</time>
      </trkpt>
      <trkpt lat="44.86185" lon="4.29058">
        <ele>757.18</ele>
        <time>2016-07-11T13:32:35Z</time>
      </trkpt>
      <trkpt lat="44.86185" lon="4.29058">
        <ele>757.66</ele>
        <time>2016-07-11T13:32:52Z</time>
      </trkpt>
      <trkpt lat="44.86185" lon="4.29058">
        <ele>758.62</ele>
        <time>2016-07-11T13:33:17Z</time>
      </trkpt>
      <trkpt lat="44.86201" lon="4.29067">
        <ele>755.73</ele>
        <time>2016-07-11T13:33:36Z</time>
      </trkpt>
      <trkpt lat="44.86208" lon="4.29076">
        <ele>752.85</ele>
        <time>2016-07-11T13:33:51Z</time>
      </trkpt>
      <trkpt lat="44.86213" lon="4.29068">
        <ele>749</ele>
        <time>2016-07-11T13:34:06Z</time>
      </trkpt>
      <trkpt lat="44.8622" lon="4.29051">
        <ele>748.04</ele>
        <time>2016-07-11T13:34:22Z</time>
      </trkpt>
      <trkpt lat="44.86223" lon="4.29037">
        <ele>747.08</ele>
        <time>2016-07-11T13:34:32Z</time>
      </trkpt>
      <trkpt lat="44.86225" lon="4.29026">
        <ele>747.56</ele>
        <time>2016-07-11T13:34:48Z</time>
      </trkpt>
      <trkpt lat="44.86225" lon="4.29026">
        <ele>746.6</ele>
        <time>2016-07-11T13:35:07Z</time>
      </trkpt>
      <trkpt lat="44.86218" lon="4.29009">
        <ele>744.2</ele>
        <time>2016-07-11T13:35:23Z</time>
      </trkpt>
      <trkpt lat="44.86214" lon="4.2899">
        <ele>740.83</ele>
        <time>2016-07-11T13:35:40Z</time>
      </trkpt>
      <trkpt lat="44.8622" lon="4.28985">
        <ele>740.35</ele>
        <time>2016-07-11T13:35:54Z</time>
      </trkpt>
      <trkpt lat="44.86221" lon="4.28985">
        <ele>740.35</ele>
        <time>2016-07-11T13:36:13Z</time>
      </trkpt>
      <trkpt lat="44.86232" lon="4.28971">
        <ele>736.99</ele>
        <time>2016-07-11T13:36:29Z</time>
      </trkpt>
      <trkpt lat="44.86237" lon="4.28965">
        <ele>736.03</ele>
        <time>2016-07-11T13:36:37Z</time>
      </trkpt>
      <trkpt lat="44.86252" lon="4.28964">
        <ele>736.99</ele>
        <time>2016-07-11T13:36:52Z</time>
      </trkpt>
      <trkpt lat="44.86264" lon="4.2897">
        <ele>736.51</ele>
        <time>2016-07-11T13:37:06Z</time>
      </trkpt>
      <trkpt lat="44.86273" lon="4.28971">
        <ele>734.58</ele>
        <time>2016-07-11T13:37:22Z</time>
      </trkpt>
      <trkpt lat="44.86292" lon="4.2897">
        <ele>735.55</ele>
        <time>2016-07-11T13:37:39Z</time>
      </trkpt>
      <trkpt lat="44.86309" lon="4.28969">
        <ele>733.14</ele>
        <time>2016-07-11T13:37:56Z</time>
      </trkpt>
      <trkpt lat="44.86317" lon="4.28962">
        <ele>730.74</ele>
        <time>2016-07-11T13:38:08Z</time>
      </trkpt>
      <trkpt lat="44.86322" lon="4.28954">
        <ele>729.3</ele>
        <time>2016-07-11T13:38:19Z</time>
      </trkpt>
      <trkpt lat="44.86325" lon="4.28937">
        <ele>734.1</ele>
        <time>2016-07-11T13:38:33Z</time>
      </trkpt>
      <trkpt lat="44.86333" lon="4.28929">
        <ele>736.99</ele>
        <time>2016-07-11T13:38:50Z</time>
      </trkpt>
      <trkpt lat="44.86341" lon="4.2892">
        <ele>737.95</ele>
        <time>2016-07-11T13:39:04Z</time>
      </trkpt>
      <trkpt lat="44.86346" lon="4.28912">
        <ele>740.35</ele>
        <time>2016-07-11T13:39:20Z</time>
      </trkpt>
      <trkpt lat="44.86351" lon="4.28903">
        <ele>742.76</ele>
        <time>2016-07-11T13:39:40Z</time>
      </trkpt>
      <trkpt lat="44.86354" lon="4.28898">
        <ele>744.2</ele>
        <time>2016-07-11T13:39:59Z</time>
      </trkpt>
      <trkpt lat="44.86357" lon="4.28903">
        <ele>743.72</ele>
        <time>2016-07-11T13:40:17Z</time>
      </trkpt>
      <trkpt lat="44.86375" lon="4.28915">
        <ele>748.52</ele>
        <time>2016-07-11T13:40:34Z</time>
      </trkpt>
      <trkpt lat="44.86384" lon="4.28923">
        <ele>749.97</ele>
        <time>2016-07-11T13:40:49Z</time>
      </trkpt>
      <trkpt lat="44.86395" lon="4.28935">
        <ele>752.37</ele>
        <time>2016-07-11T13:41:05Z</time>
      </trkpt>
      <trkpt lat="44.86406" lon="4.2894">
        <ele>753.33</ele>
        <time>2016-07-11T13:41:21Z</time>
      </trkpt>
      <trkpt lat="44.86414" lon="4.28949">
        <ele>754.77</ele>
        <time>2016-07-11T13:41:35Z</time>
      </trkpt>
      <trkpt lat="44.8643" lon="4.28955">
        <ele>757.66</ele>
        <time>2016-07-11T13:41:50Z</time>
      </trkpt>
      <trkpt lat="44.86436" lon="4.28956">
        <ele>758.14</ele>
        <time>2016-07-11T13:42:08Z</time>
      </trkpt>
      <trkpt lat="44.86436" lon="4.28956">
        <ele>758.14</ele>
        <time>2016-07-11T13:42:34Z</time>
      </trkpt>
      <trkpt lat="44.86436" lon="4.28958">
        <ele>759.58</ele>
        <time>2016-07-11T13:42:58Z</time>
      </trkpt>
      <trkpt lat="44.86436" lon="4.28958">
        <ele>760.06</ele>
        <time>2016-07-11T13:43:25Z</time>
      </trkpt>
      <trkpt lat="44.86438" lon="4.28957">
        <ele>760.06</ele>
        <time>2016-07-11T13:43:54Z</time>
      </trkpt>
      <trkpt lat="44.86438" lon="4.28956">
        <ele>760.54</ele>
        <time>2016-07-11T13:44:23Z</time>
      </trkpt>
      <trkpt lat="44.8644" lon="4.28959">
        <ele>759.58</ele>
        <time>2016-07-11T13:44:43Z</time>
      </trkpt>
      <trkpt lat="44.86443" lon="4.28959">
        <ele>758.62</ele>
        <time>2016-07-11T13:45:04Z</time>
      </trkpt>
      <trkpt lat="44.86445" lon="4.28962">
        <ele>758.62</ele>
        <time>2016-07-11T13:45:20Z</time>
      </trkpt>
      <trkpt lat="44.8645" lon="4.28963">
        <ele>759.1</ele>
        <time>2016-07-11T13:45:44Z</time>
      </trkpt>
      <trkpt lat="44.8646" lon="4.28957">
        <ele>759.58</ele>
        <time>2016-07-11T13:45:59Z</time>
      </trkpt>
      <trkpt lat="44.86473" lon="4.28947">
        <ele>757.66</ele>
        <time>2016-07-11T13:46:18Z</time>
      </trkpt>
      <trkpt lat="44.86482" lon="4.28936">
        <ele>755.73</ele>
        <time>2016-07-11T13:46:33Z</time>
      </trkpt>
      <trkpt lat="44.86488" lon="4.28928">
        <ele>757.18</ele>
        <time>2016-07-11T13:46:49Z</time>
      </trkpt>
      <trkpt lat="44.86489" lon="4.28923">
        <ele>758.14</ele>
        <time>2016-07-11T13:47:02Z</time>
      </trkpt>
      <trkpt lat="44.86489" lon="4.28922">
        <ele>760.06</ele>
        <time>2016-07-11T13:47:18Z</time>
      </trkpt>
      <trkpt lat="44.86489" lon="4.28917">
        <ele>761.5</ele>
        <time>2016-07-11T13:47:33Z</time>
      </trkpt>
      <trkpt lat="44.86492" lon="4.28907">
        <ele>764.87</ele>
        <time>2016-07-11T13:47:45Z</time>
      </trkpt>
      <trkpt lat="44.86496" lon="4.28902">
        <ele>766.79</ele>
        <time>2016-07-11T13:47:56Z</time>
      </trkpt>
      <trkpt lat="44.86502" lon="4.28897">
        <ele>767.75</ele>
        <time>2016-07-11T13:48:08Z</time>
      </trkpt>
      <trkpt lat="44.86506" lon="4.28883">
        <ele>769.19</ele>
        <time>2016-07-11T13:48:25Z</time>
      </trkpt>
      <trkpt lat="44.86508" lon="4.28871">
        <ele>768.71</ele>
        <time>2016-07-11T13:48:37Z</time>
      </trkpt>
      <trkpt lat="44.86511" lon="4.28861">
        <ele>769.19</ele>
        <time>2016-07-11T13:48:49Z</time>
      </trkpt>
      <trkpt lat="44.86516" lon="4.28853">
        <ele>773.04</ele>
        <time>2016-07-11T13:49:01Z</time>
      </trkpt>
      <trkpt lat="44.86518" lon="4.28848">
        <ele>774.96</ele>
        <time>2016-07-11T13:49:14Z</time>
      </trkpt>
      <trkpt lat="44.86521" lon="4.28838">
        <ele>778.81</ele>
        <time>2016-07-11T13:49:27Z</time>
      </trkpt>
      <trkpt lat="44.86524" lon="4.28824">
        <ele>780.73</ele>
        <time>2016-07-11T13:49:43Z</time>
      </trkpt>
      <trkpt lat="44.86525" lon="4.28816">
        <ele>781.69</ele>
        <time>2016-07-11T13:49:56Z</time>
      </trkpt>
      <trkpt lat="44.86526" lon="4.28806">
        <ele>783.61</ele>
        <time>2016-07-11T13:50:10Z</time>
      </trkpt>
      <trkpt lat="44.86525" lon="4.28794">
        <ele>784.09</ele>
        <time>2016-07-11T13:50:23Z</time>
      </trkpt>
      <trkpt lat="44.86525" lon="4.28785">
        <ele>783.61</ele>
        <time>2016-07-11T13:50:36Z</time>
      </trkpt>
      <trkpt lat="44.86525" lon="4.28774">
        <ele>784.09</ele>
        <time>2016-07-11T13:50:48Z</time>
      </trkpt>
      <trkpt lat="44.86528" lon="4.28761">
        <ele>786.02</ele>
        <time>2016-07-11T13:51:05Z</time>
      </trkpt>
      <trkpt lat="44.86533" lon="4.2875">
        <ele>788.42</ele>
        <time>2016-07-11T13:51:18Z</time>
      </trkpt>
      <trkpt lat="44.86536" lon="4.28743">
        <ele>788.42</ele>
        <time>2016-07-11T13:51:30Z</time>
      </trkpt>
      <trkpt lat="44.86538" lon="4.28733">
        <ele>788.42</ele>
        <time>2016-07-11T13:51:46Z</time>
      </trkpt>
      <trkpt lat="44.8654" lon="4.28719">
        <ele>789.38</ele>
        <time>2016-07-11T13:51:59Z</time>
      </trkpt>
      <trkpt lat="44.86542" lon="4.28707">
        <ele>791.3</ele>
        <time>2016-07-11T13:52:13Z</time>
      </trkpt>
      <trkpt lat="44.86548" lon="4.28698">
        <ele>793.71</ele>
        <time>2016-07-11T13:52:29Z</time>
      </trkpt>
      <trkpt lat="44.86554" lon="4.28683">
        <ele>798.51</ele>
        <time>2016-07-11T13:52:47Z</time>
      </trkpt>
      <trkpt lat="44.86554" lon="4.28676">
        <ele>802.36</ele>
        <time>2016-07-11T13:53:01Z</time>
      </trkpt>
      <trkpt lat="44.86558" lon="4.28663">
        <ele>807.16</ele>
        <time>2016-07-11T13:53:16Z</time>
      </trkpt>
      <trkpt lat="44.86564" lon="4.28654">
        <ele>806.68</ele>
        <time>2016-07-11T13:53:29Z</time>
      </trkpt>
      <trkpt lat="44.86567" lon="4.28643">
        <ele>803.32</ele>
        <time>2016-07-11T13:53:43Z</time>
      </trkpt>
      <trkpt lat="44.86572" lon="4.28628">
        <ele>803.32</ele>
        <time>2016-07-11T13:53:58Z</time>
      </trkpt>
      <trkpt lat="44.86576" lon="4.28615">
        <ele>804.28</ele>
        <time>2016-07-11T13:54:12Z</time>
      </trkpt>
      <trkpt lat="44.8658" lon="4.28603">
        <ele>805.72</ele>
        <time>2016-07-11T13:54:24Z</time>
      </trkpt>
      <trkpt lat="44.86582" lon="4.28601">
        <ele>806.2</ele>
        <time>2016-07-11T13:54:42Z</time>
      </trkpt>
      <trkpt lat="44.86588" lon="4.28588">
        <ele>806.68</ele>
        <time>2016-07-11T13:54:55Z</time>
      </trkpt>
      <trkpt lat="44.86594" lon="4.28577">
        <ele>806.68</ele>
        <time>2016-07-11T13:55:07Z</time>
      </trkpt>
      <trkpt lat="44.86595" lon="4.28566">
        <ele>805.72</ele>
        <time>2016-07-11T13:55:19Z</time>
      </trkpt>
      <trkpt lat="44.86594" lon="4.28564">
        <ele>806.68</ele>
        <time>2016-07-11T13:55:35Z</time>
      </trkpt>
      <trkpt lat="44.86593" lon="4.2856">
        <ele>806.2</ele>
        <time>2016-07-11T13:56:03Z</time>
      </trkpt>
      <trkpt lat="44.86595" lon="4.28551">
        <ele>806.2</ele>
        <time>2016-07-11T13:56:13Z</time>
      </trkpt>
      <trkpt lat="44.86596" lon="4.28544">
        <ele>806.68</ele>
        <time>2016-07-11T13:56:31Z</time>
      </trkpt>
      <trkpt lat="44.86595" lon="4.28532">
        <ele>807.64</ele>
        <time>2016-07-11T13:56:46Z</time>
      </trkpt>
      <trkpt lat="44.8659" lon="4.28513">
        <ele>810.05</ele>
        <time>2016-07-11T13:56:59Z</time>
      </trkpt>
      <trkpt lat="44.86583" lon="4.28496">
        <ele>812.45</ele>
        <time>2016-07-11T13:57:12Z</time>
      </trkpt>
      <trkpt lat="44.86576" lon="4.28476">
        <ele>812.93</ele>
        <time>2016-07-11T13:57:31Z</time>
      </trkpt>
      <trkpt lat="44.8657" lon="4.28467">
        <ele>812.45</ele>
        <time>2016-07-11T13:57:50Z</time>
      </trkpt>
      <trkpt lat="44.86552" lon="4.28453">
        <ele>808.13</ele>
        <time>2016-07-11T13:58:18Z</time>
      </trkpt>
      <trkpt lat="44.86567" lon="4.28415">
        <ele>823.03</ele>
        <time>2016-07-11T13:58:30Z</time>
      </trkpt>
      <trkpt lat="44.86565" lon="4.28405">
        <ele>827.83</ele>
        <time>2016-07-11T13:58:46Z</time>
      </trkpt>
      <trkpt lat="44.86564" lon="4.28389">
        <ele>828.31</ele>
        <time>2016-07-11T13:59:01Z</time>
      </trkpt>
      <trkpt lat="44.86569" lon="4.2838">
        <ele>831.2</ele>
        <time>2016-07-11T13:59:13Z</time>
      </trkpt>
      <trkpt lat="44.86569" lon="4.28371">
        <ele>833.12</ele>
        <time>2016-07-11T13:59:20Z</time>
      </trkpt>
      <trkpt lat="44.86569" lon="4.2836">
        <ele>833.6</ele>
        <time>2016-07-11T13:59:28Z</time>
      </trkpt>
      <trkpt lat="44.86568" lon="4.28352">
        <ele>834.08</ele>
        <time>2016-07-11T13:59:35Z</time>
      </trkpt>
      <trkpt lat="44.86567" lon="4.28332">
        <ele>835.04</ele>
        <time>2016-07-11T13:59:51Z</time>
      </trkpt>
      <trkpt lat="44.86568" lon="4.28316">
        <ele>834.08</ele>
        <time>2016-07-11T14:00:03Z</time>
      </trkpt>
      <trkpt lat="44.86567" lon="4.28297">
        <ele>835.04</ele>
        <time>2016-07-11T14:00:19Z</time>
      </trkpt>
      <trkpt lat="44.86562" lon="4.28284">
        <ele>835.04</ele>
        <time>2016-07-11T14:00:33Z</time>
      </trkpt>
      <trkpt lat="44.86558" lon="4.28279">
        <ele>834.56</ele>
        <time>2016-07-11T14:00:47Z</time>
      </trkpt>
      <trkpt lat="44.86557" lon="4.28278">
        <ele>835.04</ele>
        <time>2016-07-11T14:00:52Z</time>
      </trkpt>
      <trkpt lat="44.86544" lon="4.28268">
        <ele>834.56</ele>
        <time>2016-07-11T14:01:07Z</time>
      </trkpt>
      <trkpt lat="44.86533" lon="4.28257">
        <ele>833.6</ele>
        <time>2016-07-11T14:01:21Z</time>
      </trkpt>
      <trkpt lat="44.86519" lon="4.28245">
        <ele>835.04</ele>
        <time>2016-07-11T14:01:38Z</time>
      </trkpt>
      <trkpt lat="44.86508" lon="4.28234">
        <ele>834.56</ele>
        <time>2016-07-11T14:01:53Z</time>
      </trkpt>
      <trkpt lat="44.86499" lon="4.28225">
        <ele>834.56</ele>
        <time>2016-07-11T14:02:05Z</time>
      </trkpt>
      <trkpt lat="44.86494" lon="4.28221">
        <ele>834.56</ele>
        <time>2016-07-11T14:02:11Z</time>
      </trkpt>
      <trkpt lat="44.86484" lon="4.28211">
        <ele>835.52</ele>
        <time>2016-07-11T14:02:26Z</time>
      </trkpt>
      <trkpt lat="44.86474" lon="4.28201">
        <ele>837.45</ele>
        <time>2016-07-11T14:02:41Z</time>
      </trkpt>
      <trkpt lat="44.86464" lon="4.28193">
        <ele>839.37</ele>
        <time>2016-07-11T14:02:55Z</time>
      </trkpt>
      <trkpt lat="44.86454" lon="4.28184">
        <ele>840.33</ele>
        <time>2016-07-11T14:03:09Z</time>
      </trkpt>
      <trkpt lat="44.86443" lon="4.28172">
        <ele>841.77</ele>
        <time>2016-07-11T14:03:25Z</time>
      </trkpt>
      <trkpt lat="44.86435" lon="4.2816">
        <ele>841.77</ele>
        <time>2016-07-11T14:03:39Z</time>
      </trkpt>
      <trkpt lat="44.86427" lon="4.2815">
        <ele>844.18</ele>
        <time>2016-07-11T14:03:52Z</time>
      </trkpt>
      <trkpt lat="44.86418" lon="4.28141">
        <ele>846.1</ele>
        <time>2016-07-11T14:04:04Z</time>
      </trkpt>
      <trkpt lat="44.86409" lon="4.28132">
        <ele>847.54</ele>
        <time>2016-07-11T14:04:18Z</time>
      </trkpt>
      <trkpt lat="44.86401" lon="4.28119">
        <ele>847.06</ele>
        <time>2016-07-11T14:04:34Z</time>
      </trkpt>
      <trkpt lat="44.86399" lon="4.28117">
        <ele>847.54</ele>
        <time>2016-07-11T14:04:36Z</time>
      </trkpt>
      <trkpt lat="44.86394" lon="4.28103">
        <ele>848.02</ele>
        <time>2016-07-11T14:04:47Z</time>
      </trkpt>
      <trkpt lat="44.86391" lon="4.28085">
        <ele>848.98</ele>
        <time>2016-07-11T14:05:01Z</time>
      </trkpt>
      <trkpt lat="44.86386" lon="4.28067">
        <ele>848.98</ele>
        <time>2016-07-11T14:05:13Z</time>
      </trkpt>
      <trkpt lat="44.86385" lon="4.28055">
        <ele>851.38</ele>
        <time>2016-07-11T14:05:22Z</time>
      </trkpt>
      <trkpt lat="44.86381" lon="4.28035">
        <ele>851.38</ele>
        <time>2016-07-11T14:05:37Z</time>
      </trkpt>
      <trkpt lat="44.86378" lon="4.28014">
        <ele>852.35</ele>
        <time>2016-07-11T14:05:53Z</time>
      </trkpt>
      <trkpt lat="44.86377" lon="4.27998">
        <ele>854.27</ele>
        <time>2016-07-11T14:06:07Z</time>
      </trkpt>
      <trkpt lat="44.86378" lon="4.27988">
        <ele>855.23</ele>
        <time>2016-07-11T14:06:20Z</time>
      </trkpt>
      <trkpt lat="44.86377" lon="4.27979">
        <ele>856.19</ele>
        <time>2016-07-11T14:06:35Z</time>
      </trkpt>
      <trkpt lat="44.86377" lon="4.27955">
        <ele>857.63</ele>
        <time>2016-07-11T14:06:53Z</time>
      </trkpt>
      <trkpt lat="44.86377" lon="4.27937">
        <ele>858.59</ele>
        <time>2016-07-11T14:07:06Z</time>
      </trkpt>
      <trkpt lat="44.86377" lon="4.27929">
        <ele>859.08</ele>
        <time>2016-07-11T14:07:12Z</time>
      </trkpt>
      <trkpt lat="44.86376" lon="4.27913">
        <ele>858.11</ele>
        <time>2016-07-11T14:07:23Z</time>
      </trkpt>
      <trkpt lat="44.86374" lon="4.27898">
        <ele>856.67</ele>
        <time>2016-07-11T14:07:35Z</time>
      </trkpt>
      <trkpt lat="44.86371" lon="4.27881">
        <ele>857.15</ele>
        <time>2016-07-11T14:07:48Z</time>
      </trkpt>
      <trkpt lat="44.86366" lon="4.27863">
        <ele>857.63</ele>
        <time>2016-07-11T14:08:05Z</time>
      </trkpt>
      <trkpt lat="44.86361" lon="4.27859">
        <ele>858.11</ele>
        <time>2016-07-11T14:08:10Z</time>
      </trkpt>
      <trkpt lat="44.86354" lon="4.27844">
        <ele>859.56</ele>
        <time>2016-07-11T14:08:26Z</time>
      </trkpt>
      <trkpt lat="44.86353" lon="4.27842">
        <ele>860.04</ele>
        <time>2016-07-11T14:08:28Z</time>
      </trkpt>
      <trkpt lat="44.86346" lon="4.27825">
        <ele>859.08</ele>
        <time>2016-07-11T14:08:42Z</time>
      </trkpt>
      <trkpt lat="44.8634" lon="4.27808">
        <ele>858.59</ele>
        <time>2016-07-11T14:08:55Z</time>
      </trkpt>
      <trkpt lat="44.86339" lon="4.27792">
        <ele>856.67</ele>
        <time>2016-07-11T14:09:07Z</time>
      </trkpt>
      <trkpt lat="44.86337" lon="4.27777">
        <ele>855.23</ele>
        <time>2016-07-11T14:09:20Z</time>
      </trkpt>
      <trkpt lat="44.86334" lon="4.27756">
        <ele>855.23</ele>
        <time>2016-07-11T14:09:35Z</time>
      </trkpt>
      <trkpt lat="44.86334" lon="4.27737">
        <ele>854.75</ele>
        <time>2016-07-11T14:09:49Z</time>
      </trkpt>
      <trkpt lat="44.8634" lon="4.27723">
        <ele>854.27</ele>
        <time>2016-07-11T14:10:02Z</time>
      </trkpt>
      <trkpt lat="44.86351" lon="4.27704">
        <ele>866.29</ele>
        <time>2016-07-11T14:10:15Z</time>
      </trkpt>
      <trkpt lat="44.86358" lon="4.27693">
        <ele>869.65</ele>
        <time>2016-07-11T14:10:27Z</time>
      </trkpt>
      <trkpt lat="44.8636" lon="4.27679">
        <ele>871.57</ele>
        <time>2016-07-11T14:10:39Z</time>
      </trkpt>
      <trkpt lat="44.86367" lon="4.27662">
        <ele>873.01</ele>
        <time>2016-07-11T14:10:54Z</time>
      </trkpt>
      <trkpt lat="44.86376" lon="4.27652">
        <ele>873.5</ele>
        <time>2016-07-11T14:11:08Z</time>
      </trkpt>
      <trkpt lat="44.86379" lon="4.27639">
        <ele>874.94</ele>
        <time>2016-07-11T14:11:19Z</time>
      </trkpt>
      <trkpt lat="44.86388" lon="4.27629">
        <ele>875.9</ele>
        <time>2016-07-11T14:11:33Z</time>
      </trkpt>
      <trkpt lat="44.86393" lon="4.2762">
        <ele>876.38</ele>
        <time>2016-07-11T14:11:42Z</time>
      </trkpt>
      <trkpt lat="44.86402" lon="4.27609">
        <ele>874.94</ele>
        <time>2016-07-11T14:11:57Z</time>
      </trkpt>
      <trkpt lat="44.86402" lon="4.27608">
        <ele>874.94</ele>
        <time>2016-07-11T14:11:58Z</time>
      </trkpt>
      <trkpt lat="44.86412" lon="4.27596">
        <ele>875.42</ele>
        <time>2016-07-11T14:12:13Z</time>
      </trkpt>
      <trkpt lat="44.86422" lon="4.27587">
        <ele>873.5</ele>
        <time>2016-07-11T14:12:29Z</time>
      </trkpt>
      <trkpt lat="44.86425" lon="4.27583">
        <ele>874.46</ele>
        <time>2016-07-11T14:12:34Z</time>
      </trkpt>
      <trkpt lat="44.86433" lon="4.27568">
        <ele>875.9</ele>
        <time>2016-07-11T14:12:50Z</time>
      </trkpt>
      <trkpt lat="44.86433" lon="4.27569">
        <ele>876.38</ele>
        <time>2016-07-11T14:13:10Z</time>
      </trkpt>
      <trkpt lat="44.86435" lon="4.27569">
        <ele>877.82</ele>
        <time>2016-07-11T14:13:27Z</time>
      </trkpt>
      <trkpt lat="44.86436" lon="4.27569">
        <ele>879.26</ele>
        <time>2016-07-11T14:13:46Z</time>
      </trkpt>
      <trkpt lat="44.86435" lon="4.27566">
        <ele>880.22</ele>
        <time>2016-07-11T14:14:06Z</time>
      </trkpt>
      <trkpt lat="44.86436" lon="4.27566">
        <ele>881.19</ele>
        <time>2016-07-11T14:14:28Z</time>
      </trkpt>
      <trkpt lat="44.86436" lon="4.27566">
        <ele>881.19</ele>
        <time>2016-07-11T14:14:51Z</time>
      </trkpt>
      <trkpt lat="44.86435" lon="4.27567">
        <ele>881.19</ele>
        <time>2016-07-11T14:15:16Z</time>
      </trkpt>
      <trkpt lat="44.86434" lon="4.27568">
        <ele>880.71</ele>
        <time>2016-07-11T14:15:35Z</time>
      </trkpt>
      <trkpt lat="44.86434" lon="4.27568">
        <ele>881.19</ele>
        <time>2016-07-11T14:15:54Z</time>
      </trkpt>
      <trkpt lat="44.86432" lon="4.27565">
        <ele>880.71</ele>
        <time>2016-07-11T14:16:14Z</time>
      </trkpt>
      <trkpt lat="44.86433" lon="4.27565">
        <ele>879.74</ele>
        <time>2016-07-11T14:16:38Z</time>
      </trkpt>
      <trkpt lat="44.86433" lon="4.27566">
        <ele>879.74</ele>
        <time>2016-07-11T14:16:58Z</time>
      </trkpt>
      <trkpt lat="44.86435" lon="4.27563">
        <ele>881.19</ele>
        <time>2016-07-11T14:17:17Z</time>
      </trkpt>
      <trkpt lat="44.86435" lon="4.27563">
        <ele>882.63</ele>
        <time>2016-07-11T14:17:42Z</time>
      </trkpt>
      <trkpt lat="44.86439" lon="4.27559">
        <ele>882.15</ele>
        <time>2016-07-11T14:18:03Z</time>
      </trkpt>
      <trkpt lat="44.86446" lon="4.27551">
        <ele>883.59</ele>
        <time>2016-07-11T14:18:18Z</time>
      </trkpt>
      <trkpt lat="44.86456" lon="4.27537">
        <ele>884.55</ele>
        <time>2016-07-11T14:18:34Z</time>
      </trkpt>
      <trkpt lat="44.86461" lon="4.27541">
        <ele>883.11</ele>
        <time>2016-07-11T14:18:51Z</time>
      </trkpt>
      <trkpt lat="44.86467" lon="4.27534">
        <ele>883.59</ele>
        <time>2016-07-11T14:19:08Z</time>
      </trkpt>
      <trkpt lat="44.86472" lon="4.27527">
        <ele>884.55</ele>
        <time>2016-07-11T14:19:21Z</time>
      </trkpt>
      <trkpt lat="44.86483" lon="4.27521">
        <ele>885.03</ele>
        <time>2016-07-11T14:19:36Z</time>
      </trkpt>
      <trkpt lat="44.86484" lon="4.27519">
        <ele>885.51</ele>
        <time>2016-07-11T14:19:38Z</time>
      </trkpt>
      <trkpt lat="44.86489" lon="4.27515">
        <ele>885.51</ele>
        <time>2016-07-11T14:19:43Z</time>
      </trkpt>
      <trkpt lat="44.86503" lon="4.27504">
        <ele>891.76</ele>
        <time>2016-07-11T14:20:01Z</time>
      </trkpt>
      <trkpt lat="44.86507" lon="4.27502">
        <ele>890.32</ele>
        <time>2016-07-11T14:20:16Z</time>
      </trkpt>
      <trkpt lat="44.86517" lon="4.27499">
        <ele>888.88</ele>
        <time>2016-07-11T14:20:30Z</time>
      </trkpt>
      <trkpt lat="44.86534" lon="4.27495">
        <ele>886.95</ele>
        <time>2016-07-11T14:20:47Z</time>
      </trkpt>
      <trkpt lat="44.86541" lon="4.27494">
        <ele>885.99</ele>
        <time>2016-07-11T14:21:00Z</time>
      </trkpt>
      <trkpt lat="44.86549" lon="4.27489">
        <ele>883.59</ele>
        <time>2016-07-11T14:21:15Z</time>
      </trkpt>
      <trkpt lat="44.86554" lon="4.27485">
        <ele>883.59</ele>
        <time>2016-07-11T14:21:33Z</time>
      </trkpt>
      <trkpt lat="44.8657" lon="4.27486">
        <ele>880.71</ele>
        <time>2016-07-11T14:21:49Z</time>
      </trkpt>
      <trkpt lat="44.86591" lon="4.27488">
        <ele>883.59</ele>
        <time>2016-07-11T14:22:04Z</time>
      </trkpt>
      <trkpt lat="44.86605" lon="4.27487">
        <ele>883.59</ele>
        <time>2016-07-11T14:22:18Z</time>
      </trkpt>
      <trkpt lat="44.86616" lon="4.27485">
        <ele>882.63</ele>
        <time>2016-07-11T14:22:34Z</time>
      </trkpt>
      <trkpt lat="44.86631" lon="4.27485">
        <ele>884.55</ele>
        <time>2016-07-11T14:22:51Z</time>
      </trkpt>
      <trkpt lat="44.86647" lon="4.27483">
        <ele>885.03</ele>
        <time>2016-07-11T14:23:07Z</time>
      </trkpt>
      <trkpt lat="44.86658" lon="4.27482">
        <ele>883.59</ele>
        <time>2016-07-11T14:23:23Z</time>
      </trkpt>
      <trkpt lat="44.86675" lon="4.27478">
        <ele>885.03</ele>
        <time>2016-07-11T14:23:42Z</time>
      </trkpt>
      <trkpt lat="44.86694" lon="4.27475">
        <ele>885.99</ele>
        <time>2016-07-11T14:24:00Z</time>
      </trkpt>
      <trkpt lat="44.86707" lon="4.27471">
        <ele>885.99</ele>
        <time>2016-07-11T14:24:15Z</time>
      </trkpt>
      <trkpt lat="44.86716" lon="4.27474">
        <ele>884.07</ele>
        <time>2016-07-11T14:24:30Z</time>
      </trkpt>
      <trkpt lat="44.86719" lon="4.27476">
        <ele>885.03</ele>
        <time>2016-07-11T14:24:45Z</time>
      </trkpt>
      <trkpt lat="44.86735" lon="4.27471">
        <ele>884.55</ele>
        <time>2016-07-11T14:25:00Z</time>
      </trkpt>
      <trkpt lat="44.86751" lon="4.27468">
        <ele>883.59</ele>
        <time>2016-07-11T14:25:17Z</time>
      </trkpt>
      <trkpt lat="44.86759" lon="4.27464">
        <ele>884.55</ele>
        <time>2016-07-11T14:25:34Z</time>
      </trkpt>
      <trkpt lat="44.86758" lon="4.27464">
        <ele>885.51</ele>
        <time>2016-07-11T14:25:49Z</time>
      </trkpt>
      <trkpt lat="44.86758" lon="4.27464">
        <ele>883.59</ele>
        <time>2016-07-11T14:26:09Z</time>
      </trkpt>
      <trkpt lat="44.86766" lon="4.27472">
        <ele>881.67</ele>
        <time>2016-07-11T14:26:21Z</time>
      </trkpt>
      <trkpt lat="44.86769" lon="4.27476">
        <ele>881.67</ele>
        <time>2016-07-11T14:26:36Z</time>
      </trkpt>
      <trkpt lat="44.8677" lon="4.27477">
        <ele>880.71</ele>
        <time>2016-07-11T14:26:52Z</time>
      </trkpt>
      <trkpt lat="44.8677" lon="4.27478">
        <ele>880.22</ele>
        <time>2016-07-11T14:27:10Z</time>
      </trkpt>
      <trkpt lat="44.86769" lon="4.27477">
        <ele>880.22</ele>
        <time>2016-07-11T14:27:28Z</time>
      </trkpt>
      <trkpt lat="44.86766" lon="4.27476">
        <ele>880.71</ele>
        <time>2016-07-11T14:27:48Z</time>
      </trkpt>
      <trkpt lat="44.86763" lon="4.27475">
        <ele>881.19</ele>
        <time>2016-07-11T14:28:01Z</time>
      </trkpt>
      <trkpt lat="44.86759" lon="4.27471">
        <ele>881.67</ele>
        <time>2016-07-11T14:28:17Z</time>
      </trkpt>
      <trkpt lat="44.86758" lon="4.27473">
        <ele>880.71</ele>
        <time>2016-07-11T14:28:34Z</time>
      </trkpt>
      <trkpt lat="44.8676" lon="4.27469">
        <ele>879.74</ele>
        <time>2016-07-11T14:28:48Z</time>
      </trkpt>
      <trkpt lat="44.86768" lon="4.27469">
        <ele>879.26</ele>
        <time>2016-07-11T14:29:00Z</time>
      </trkpt>
      <trkpt lat="44.86785" lon="4.2747">
        <ele>881.67</ele>
        <time>2016-07-11T14:29:15Z</time>
      </trkpt>
      <trkpt lat="44.86797" lon="4.27471">
        <ele>882.63</ele>
        <time>2016-07-11T14:29:27Z</time>
      </trkpt>
      <trkpt lat="44.86809" lon="4.27471">
        <ele>883.11</ele>
        <time>2016-07-11T14:29:41Z</time>
      </trkpt>
      <trkpt lat="44.86819" lon="4.27469">
        <ele>881.67</ele>
        <time>2016-07-11T14:29:56Z</time>
      </trkpt>
      <trkpt lat="44.86821" lon="4.27468">
        <ele>879.74</ele>
        <time>2016-07-11T14:30:13Z</time>
      </trkpt>
      <trkpt lat="44.8682" lon="4.2747">
        <ele>881.19</ele>
        <time>2016-07-11T14:30:37Z</time>
      </trkpt>
      <trkpt lat="44.86822" lon="4.27472">
        <ele>880.71</ele>
        <time>2016-07-11T14:30:52Z</time>
      </trkpt>
      <trkpt lat="44.86822" lon="4.27473">
        <ele>880.71</ele>
        <time>2016-07-11T14:31:10Z</time>
      </trkpt>
      <trkpt lat="44.86827" lon="4.27478">
        <ele>881.67</ele>
        <time>2016-07-11T14:31:23Z</time>
      </trkpt>
      <trkpt lat="44.86834" lon="4.27485">
        <ele>879.74</ele>
        <time>2016-07-11T14:31:39Z</time>
      </trkpt>
      <trkpt lat="44.86841" lon="4.27486">
        <ele>875.9</ele>
        <time>2016-07-11T14:31:53Z</time>
      </trkpt>
      <trkpt lat="44.86843" lon="4.27485">
        <ele>875.9</ele>
        <time>2016-07-11T14:32:09Z</time>
      </trkpt>
      <trkpt lat="44.86843" lon="4.27485">
        <ele>875.42</ele>
        <time>2016-07-11T14:32:33Z</time>
      </trkpt>
      <trkpt lat="44.86844" lon="4.27487">
        <ele>874.46</ele>
        <time>2016-07-11T14:32:53Z</time>
      </trkpt>
      <trkpt lat="44.86845" lon="4.27488">
        <ele>874.46</ele>
        <time>2016-07-11T14:33:25Z</time>
      </trkpt>
      <trkpt lat="44.86846" lon="4.27489">
        <ele>874.46</ele>
        <time>2016-07-11T14:33:56Z</time>
      </trkpt>
      <trkpt lat="44.86847" lon="4.27489">
        <ele>873.98</ele>
        <time>2016-07-11T14:34:25Z</time>
      </trkpt>
      <trkpt lat="44.86847" lon="4.27491">
        <ele>873.5</ele>
        <time>2016-07-11T14:35:01Z</time>
      </trkpt>
      <trkpt lat="44.86847" lon="4.2749">
        <ele>873.98</ele>
        <time>2016-07-11T14:35:32Z</time>
      </trkpt>
      <trkpt lat="44.86847" lon="4.2749">
        <ele>873.98</ele>
        <time>2016-07-11T14:36:07Z</time>
      </trkpt>
      <trkpt lat="44.86847" lon="4.2749">
        <ele>874.46</ele>
        <time>2016-07-11T14:36:40Z</time>
      </trkpt>
      <trkpt lat="44.86847" lon="4.2749">
        <ele>873.98</ele>
        <time>2016-07-11T14:37:11Z</time>
      </trkpt>
      <trkpt lat="44.86847" lon="4.27489">
        <ele>874.46</ele>
        <time>2016-07-11T14:37:54Z</time>
      </trkpt>
      <trkpt lat="44.86848" lon="4.27488">
        <ele>874.46</ele>
        <time>2016-07-11T14:38:28Z</time>
      </trkpt>
      <trkpt lat="44.86848" lon="4.27489">
        <ele>874.94</ele>
        <time>2016-07-11T14:39:00Z</time>
      </trkpt>
      <trkpt lat="44.86848" lon="4.27488">
        <ele>874.46</ele>
        <time>2016-07-11T14:39:28Z</time>
      </trkpt>
      <trkpt lat="44.86847" lon="4.27488">
        <ele>874.94</ele>
        <time>2016-07-11T14:40:00Z</time>
      </trkpt>
      <trkpt lat="44.86847" lon="4.27488">
        <ele>874.46</ele>
        <time>2016-07-11T14:40:37Z</time>
      </trkpt>
      <trkpt lat="44.86847" lon="4.27488">
        <ele>874.46</ele>
        <time>2016-07-11T14:41:16Z</time>
      </trkpt>
      <trkpt lat="44.86847" lon="4.27488">
        <ele>875.42</ele>
        <time>2016-07-11T14:41:51Z</time>
      </trkpt>
      <trkpt lat="44.86847" lon="4.27489">
        <ele>874.94</ele>
        <time>2016-07-11T14:42:26Z</time>
      </trkpt>
      <trkpt lat="44.86847" lon="4.27489">
        <ele>874.94</ele>
        <time>2016-07-11T14:43:04Z</time>
      </trkpt>
      <trkpt lat="44.86849" lon="4.27489">
        <ele>874.94</ele>
        <time>2016-07-11T14:43:44Z</time>
      </trkpt>
      <trkpt lat="44.86849" lon="4.27489">
        <ele>874.94</ele>
        <time>2016-07-11T14:44:25Z</time>
      </trkpt>
      <trkpt lat="44.8685" lon="4.27489">
        <ele>874.94</ele>
        <time>2016-07-11T14:44:59Z</time>
      </trkpt>
      <trkpt lat="44.8685" lon="4.27489">
        <ele>875.42</ele>
        <time>2016-07-11T14:45:37Z</time>
      </trkpt>
      <trkpt lat="44.86849" lon="4.27488">
        <ele>876.38</ele>
        <time>2016-07-11T14:46:06Z</time>
      </trkpt>
      <trkpt lat="44.86849" lon="4.27489">
        <ele>876.38</ele>
        <time>2016-07-11T14:46:43Z</time>
      </trkpt>
      <trkpt lat="44.86849" lon="4.2749">
        <ele>876.38</ele>
        <time>2016-07-11T14:47:14Z</time>
      </trkpt>
      <trkpt lat="44.86849" lon="4.2749">
        <ele>876.38</ele>
        <time>2016-07-11T14:47:42Z</time>
      </trkpt>
      <trkpt lat="44.86849" lon="4.2749">
        <ele>876.38</ele>
        <time>2016-07-11T14:48:26Z</time>
      </trkpt>
      <trkpt lat="44.8685" lon="4.2749">
        <ele>876.38</ele>
        <time>2016-07-11T14:49:06Z</time>
      </trkpt>
      <trkpt lat="44.8685" lon="4.27491">
        <ele>875.9</ele>
        <time>2016-07-11T14:49:37Z</time>
      </trkpt>
      <trkpt lat="44.86849" lon="4.27491">
        <ele>875.9</ele>
        <time>2016-07-11T14:50:05Z</time>
      </trkpt>
      <trkpt lat="44.86849" lon="4.27491">
        <ele>875.42</ele>
        <time>2016-07-11T14:50:30Z</time>
      </trkpt>
      <trkpt lat="44.86848" lon="4.2749">
        <ele>875.42</ele>
        <time>2016-07-11T14:50:54Z</time>
      </trkpt>
      <trkpt lat="44.86848" lon="4.2749">
        <ele>875.42</ele>
        <time>2016-07-11T14:51:23Z</time>
      </trkpt>
      <trkpt lat="44.86842" lon="4.27491">
        <ele>875.42</ele>
        <time>2016-07-11T14:51:46Z</time>
      </trkpt>
      <trkpt lat="44.86842" lon="4.2749">
        <ele>876.38</ele>
        <time>2016-07-11T14:52:18Z</time>
      </trkpt>
      <trkpt lat="44.86842" lon="4.27489">
        <ele>877.34</ele>
        <time>2016-07-11T14:52:51Z</time>
      </trkpt>
      <trkpt lat="44.86843" lon="4.27488">
        <ele>878.3</ele>
        <time>2016-07-11T14:53:25Z</time>
      </trkpt>
      <trkpt lat="44.86842" lon="4.27486">
        <ele>879.26</ele>
        <time>2016-07-11T14:53:53Z</time>
      </trkpt>
      <trkpt lat="44.86844" lon="4.27489">
        <ele>879.26</ele>
        <time>2016-07-11T14:54:21Z</time>
      </trkpt>
    </trkseg>
  </trk>
</gpx>